<?xml version="1.0" encoding="UTF-8" standalone="no" ?>
<gpx xmlns="http://www.topografix.com/GPX/1/1" xmlns:xsi="http://www.w3.org/2001/XMLSchema-instance" xsi:schemaLocation="http://www.topografix.com/GPX/1/1 http://www.topografix.com/GPX/1/1/gpx.xsd" version="1.1" creator="VisuGPX - https://www.visugpx.com">
  <metadata>
    <name>lundi 2016 03 21</name>
    <desc><![CDATA[rando du lundi]]></desc>
  </metadata>
  <trk>
    <name><![CDATA[lundi 2016 03 21]]></name>
    <trkseg>
      <trkpt lat="48.85726" lon="2.34693">
        <ele>40.400001525879</ele>
        <time>2016-03-21T19:19:44.000Z</time>
      </trkpt>
      <trkpt lat="48.85725" lon="2.34697">
        <ele>40.400001525879</ele>
        <time>2016-03-21T19:19:45.000Z</time>
      </trkpt>
      <trkpt lat="48.85726" lon="2.34693">
        <ele>40.400001525879</ele>
        <time>2016-03-21T19:19:51.000Z</time>
      </trkpt>
      <trkpt lat="48.85723" lon="2.34693">
        <ele>40.400001525879</ele>
        <time>2016-03-21T19:19:52.000Z</time>
      </trkpt>
      <trkpt lat="48.85719" lon="2.34684">
        <ele>40.200000762939</ele>
        <time>2016-03-21T19:19:59.000Z</time>
      </trkpt>
      <trkpt lat="48.85699" lon="2.3468">
        <ele>40.799999237061</ele>
        <time>2016-03-21T19:20:05.000Z</time>
      </trkpt>
      <trkpt lat="48.85683" lon="2.34669">
        <ele>41.599998474121</ele>
        <time>2016-03-21T19:20:11.000Z</time>
      </trkpt>
      <trkpt lat="48.85666" lon="2.34659">
        <ele>43</ele>
        <time>2016-03-21T19:20:17.000Z</time>
      </trkpt>
      <trkpt lat="48.85647" lon="2.34647">
        <ele>44.599998474121</ele>
        <time>2016-03-21T19:20:23.000Z</time>
      </trkpt>
      <trkpt lat="48.8563" lon="2.34638">
        <ele>46</ele>
        <time>2016-03-21T19:20:29.000Z</time>
      </trkpt>
      <trkpt lat="48.8561" lon="2.34636">
        <ele>47.599998474121</ele>
        <time>2016-03-21T19:20:36.000Z</time>
      </trkpt>
      <trkpt lat="48.85592" lon="2.34624">
        <ele>47.799999237061</ele>
        <time>2016-03-21T19:20:41.000Z</time>
      </trkpt>
      <trkpt lat="48.85573" lon="2.3461">
        <ele>47.599998474121</ele>
        <time>2016-03-21T19:20:47.000Z</time>
      </trkpt>
      <trkpt lat="48.85554" lon="2.34591">
        <ele>47.400001525879</ele>
        <time>2016-03-21T19:20:52.000Z</time>
      </trkpt>
      <trkpt lat="48.85538" lon="2.34577">
        <ele>47</ele>
        <time>2016-03-21T19:20:56.000Z</time>
      </trkpt>
      <trkpt lat="48.85521" lon="2.34559">
        <ele>46.200000762939</ele>
        <time>2016-03-21T19:21:02.000Z</time>
      </trkpt>
      <trkpt lat="48.85501" lon="2.34533">
        <ele>44.400001525879</ele>
        <time>2016-03-21T19:21:08.000Z</time>
      </trkpt>
      <trkpt lat="48.85484" lon="2.34518">
        <ele>43.400001525879</ele>
        <time>2016-03-21T19:21:11.000Z</time>
      </trkpt>
      <trkpt lat="48.8546" lon="2.34513">
        <ele>42.200000762939</ele>
        <time>2016-03-21T19:21:14.000Z</time>
      </trkpt>
      <trkpt lat="48.85456" lon="2.34502">
        <ele>41.799999237061</ele>
        <time>2016-03-21T19:21:15.000Z</time>
      </trkpt>
      <trkpt lat="48.85436" lon="2.34483">
        <ele>40.599998474121</ele>
        <time>2016-03-21T19:21:19.000Z</time>
      </trkpt>
      <trkpt lat="48.8542" lon="2.34468">
        <ele>41.400001525879</ele>
        <time>2016-03-21T19:21:23.000Z</time>
      </trkpt>
      <trkpt lat="48.85405" lon="2.34452">
        <ele>41.799999237061</ele>
        <time>2016-03-21T19:21:27.000Z</time>
      </trkpt>
      <trkpt lat="48.854" lon="2.34445">
        <ele>42</ele>
        <time>2016-03-21T19:21:29.000Z</time>
      </trkpt>
      <trkpt lat="48.85392" lon="2.34439">
        <ele>42.200000762939</ele>
        <time>2016-03-21T19:21:34.000Z</time>
      </trkpt>
      <trkpt lat="48.85389" lon="2.34434">
        <ele>42.400001525879</ele>
        <time>2016-03-21T19:21:40.000Z</time>
      </trkpt>
      <trkpt lat="48.85387" lon="2.3443">
        <ele>42.400001525879</ele>
        <time>2016-03-21T19:21:44.000Z</time>
      </trkpt>
      <trkpt lat="48.85385" lon="2.34429">
        <ele>42.400001525879</ele>
        <time>2016-03-21T19:21:45.000Z</time>
      </trkpt>
      <trkpt lat="48.85383" lon="2.34427">
        <ele>42.400001525879</ele>
        <time>2016-03-21T19:21:55.000Z</time>
      </trkpt>
      <trkpt lat="48.85368" lon="2.34412">
        <ele>43.200000762939</ele>
        <time>2016-03-21T19:22:10.000Z</time>
      </trkpt>
      <trkpt lat="48.85354" lon="2.34394">
        <ele>44.799999237061</ele>
        <time>2016-03-21T19:22:15.000Z</time>
      </trkpt>
      <trkpt lat="48.85337" lon="2.34386">
        <ele>45.400001525879</ele>
        <time>2016-03-21T19:22:21.000Z</time>
      </trkpt>
      <trkpt lat="48.85317" lon="2.34388">
        <ele>46.599998474121</ele>
        <time>2016-03-21T19:22:28.000Z</time>
      </trkpt>
      <trkpt lat="48.853" lon="2.3438">
        <ele>48</ele>
        <time>2016-03-21T19:22:34.000Z</time>
      </trkpt>
      <trkpt lat="48.85287" lon="2.34381">
        <ele>49</ele>
        <time>2016-03-21T19:22:38.000Z</time>
      </trkpt>
      <trkpt lat="48.85269" lon="2.34378">
        <ele>50.200000762939</ele>
        <time>2016-03-21T19:22:43.000Z</time>
      </trkpt>
      <trkpt lat="48.85247" lon="2.34368">
        <ele>50</ele>
        <time>2016-03-21T19:22:48.000Z</time>
      </trkpt>
      <trkpt lat="48.85227" lon="2.34356">
        <ele>49.599998474121</ele>
        <time>2016-03-21T19:22:52.000Z</time>
      </trkpt>
      <trkpt lat="48.85209" lon="2.34342">
        <ele>49.200000762939</ele>
        <time>2016-03-21T19:22:56.000Z</time>
      </trkpt>
      <trkpt lat="48.85191" lon="2.34334">
        <ele>49</ele>
        <time>2016-03-21T19:22:59.000Z</time>
      </trkpt>
      <trkpt lat="48.85173" lon="2.34325">
        <ele>48.799999237061</ele>
        <time>2016-03-21T19:23:02.000Z</time>
      </trkpt>
      <trkpt lat="48.85152" lon="2.34312">
        <ele>48.599998474121</ele>
        <time>2016-03-21T19:23:06.000Z</time>
      </trkpt>
      <trkpt lat="48.85137" lon="2.343">
        <ele>48.599998474121</ele>
        <time>2016-03-21T19:23:10.000Z</time>
      </trkpt>
      <trkpt lat="48.85118" lon="2.34293">
        <ele>48.200000762939</ele>
        <time>2016-03-21T19:23:14.000Z</time>
      </trkpt>
      <trkpt lat="48.85099" lon="2.34285">
        <ele>48.400001525879</ele>
        <time>2016-03-21T19:23:18.000Z</time>
      </trkpt>
      <trkpt lat="48.85083" lon="2.34278">
        <ele>49.400001525879</ele>
        <time>2016-03-21T19:23:22.000Z</time>
      </trkpt>
      <trkpt lat="48.85071" lon="2.34273">
        <ele>50</ele>
        <time>2016-03-21T19:23:26.000Z</time>
      </trkpt>
      <trkpt lat="48.85055" lon="2.34287">
        <ele>50.799999237061</ele>
        <time>2016-03-21T19:23:32.000Z</time>
      </trkpt>
      <trkpt lat="48.85046" lon="2.34306">
        <ele>51.799999237061</ele>
        <time>2016-03-21T19:23:37.000Z</time>
      </trkpt>
      <trkpt lat="48.85043" lon="2.34315">
        <ele>52.200000762939</ele>
        <time>2016-03-21T19:23:39.000Z</time>
      </trkpt>
      <trkpt lat="48.85032" lon="2.34339">
        <ele>53.200000762939</ele>
        <time>2016-03-21T19:23:44.000Z</time>
      </trkpt>
      <trkpt lat="48.85032" lon="2.34372">
        <ele>53</ele>
        <time>2016-03-21T19:23:50.000Z</time>
      </trkpt>
      <trkpt lat="48.85026" lon="2.344">
        <ele>53.599998474121</ele>
        <time>2016-03-21T19:23:57.000Z</time>
      </trkpt>
      <trkpt lat="48.85024" lon="2.34433">
        <ele>54</ele>
        <time>2016-03-21T19:24:02.000Z</time>
      </trkpt>
      <trkpt lat="48.85024" lon="2.34464">
        <ele>54.400001525879</ele>
        <time>2016-03-21T19:24:07.000Z</time>
      </trkpt>
      <trkpt lat="48.85022" lon="2.34496">
        <ele>55</ele>
        <time>2016-03-21T19:24:13.000Z</time>
      </trkpt>
      <trkpt lat="48.85018" lon="2.34527">
        <ele>54.200000762939</ele>
        <time>2016-03-21T19:24:19.000Z</time>
      </trkpt>
      <trkpt lat="48.85016" lon="2.34558">
        <ele>53.599998474121</ele>
        <time>2016-03-21T19:24:24.000Z</time>
      </trkpt>
      <trkpt lat="48.85004" lon="2.34586">
        <ele>52</ele>
        <time>2016-03-21T19:24:29.000Z</time>
      </trkpt>
      <trkpt lat="48.84994" lon="2.34614">
        <ele>49.599998474121</ele>
        <time>2016-03-21T19:24:34.000Z</time>
      </trkpt>
      <trkpt lat="48.8499" lon="2.34645">
        <ele>48.400001525879</ele>
        <time>2016-03-21T19:24:39.000Z</time>
      </trkpt>
      <trkpt lat="48.8498" lon="2.34672">
        <ele>49.799999237061</ele>
        <time>2016-03-21T19:24:44.000Z</time>
      </trkpt>
      <trkpt lat="48.84974" lon="2.34701">
        <ele>49.799999237061</ele>
        <time>2016-03-21T19:24:49.000Z</time>
      </trkpt>
      <trkpt lat="48.84976" lon="2.34733">
        <ele>49.200000762939</ele>
        <time>2016-03-21T19:24:54.000Z</time>
      </trkpt>
      <trkpt lat="48.84968" lon="2.3476">
        <ele>49.599998474121</ele>
        <time>2016-03-21T19:24:59.000Z</time>
      </trkpt>
      <trkpt lat="48.84964" lon="2.34788">
        <ele>49.200000762939</ele>
        <time>2016-03-21T19:25:06.000Z</time>
      </trkpt>
      <trkpt lat="48.8496" lon="2.34796">
        <ele>49.200000762939</ele>
        <time>2016-03-21T19:25:09.000Z</time>
      </trkpt>
      <trkpt lat="48.84957" lon="2.34793">
        <ele>49.599998474121</ele>
        <time>2016-03-21T19:25:14.000Z</time>
      </trkpt>
      <trkpt lat="48.8495" lon="2.3479">
        <ele>50.400001525879</ele>
        <time>2016-03-21T19:25:19.000Z</time>
      </trkpt>
      <trkpt lat="48.84945" lon="2.34818">
        <ele>50</ele>
        <time>2016-03-21T19:25:25.000Z</time>
      </trkpt>
      <trkpt lat="48.84939" lon="2.34845">
        <ele>50.200000762939</ele>
        <time>2016-03-21T19:25:30.000Z</time>
      </trkpt>
      <trkpt lat="48.84933" lon="2.3486">
        <ele>51.400001525879</ele>
        <time>2016-03-21T19:25:34.000Z</time>
      </trkpt>
      <trkpt lat="48.84941" lon="2.3488">
        <ele>51</ele>
        <time>2016-03-21T19:25:45.000Z</time>
      </trkpt>
      <trkpt lat="48.84935" lon="2.34878">
        <ele>51.599998474121</ele>
        <time>2016-03-21T19:25:49.000Z</time>
      </trkpt>
      <trkpt lat="48.84917" lon="2.34865">
        <ele>53.400001525879</ele>
        <time>2016-03-21T19:25:57.000Z</time>
      </trkpt>
      <trkpt lat="48.84897" lon="2.34855">
        <ele>55.599998474121</ele>
        <time>2016-03-21T19:26:03.000Z</time>
      </trkpt>
      <trkpt lat="48.84877" lon="2.34848">
        <ele>57.799999237061</ele>
        <time>2016-03-21T19:26:09.000Z</time>
      </trkpt>
      <trkpt lat="48.84875" lon="2.34844">
        <ele>58</ele>
        <time>2016-03-21T19:26:13.000Z</time>
      </trkpt>
      <trkpt lat="48.8486" lon="2.34853">
        <ele>58.400001525879</ele>
        <time>2016-03-21T19:26:37.000Z</time>
      </trkpt>
      <trkpt lat="48.84841" lon="2.34852">
        <ele>58.799999237061</ele>
        <time>2016-03-21T19:26:42.000Z</time>
      </trkpt>
      <trkpt lat="48.8482" lon="2.34849">
        <ele>59</ele>
        <time>2016-03-21T19:26:47.000Z</time>
      </trkpt>
      <trkpt lat="48.848" lon="2.34847">
        <ele>59</ele>
        <time>2016-03-21T19:26:52.000Z</time>
      </trkpt>
      <trkpt lat="48.84781" lon="2.34851">
        <ele>59</ele>
        <time>2016-03-21T19:26:58.000Z</time>
      </trkpt>
      <trkpt lat="48.84763" lon="2.34859">
        <ele>58.599998474121</ele>
        <time>2016-03-21T19:27:04.000Z</time>
      </trkpt>
      <trkpt lat="48.84741" lon="2.34854">
        <ele>58.799999237061</ele>
        <time>2016-03-21T19:27:10.000Z</time>
      </trkpt>
      <trkpt lat="48.84732" lon="2.34852">
        <ele>59</ele>
        <time>2016-03-21T19:27:13.000Z</time>
      </trkpt>
      <trkpt lat="48.8472" lon="2.34865">
        <ele>58.400001525879</ele>
        <time>2016-03-21T19:27:21.000Z</time>
      </trkpt>
      <trkpt lat="48.84706" lon="2.34884">
        <ele>58.400001525879</ele>
        <time>2016-03-21T19:27:28.000Z</time>
      </trkpt>
      <trkpt lat="48.84687" lon="2.3489">
        <ele>58.599998474121</ele>
        <time>2016-03-21T19:27:32.000Z</time>
      </trkpt>
      <trkpt lat="48.84668" lon="2.34895">
        <ele>58.799999237061</ele>
        <time>2016-03-21T19:27:37.000Z</time>
      </trkpt>
      <trkpt lat="48.84649" lon="2.34896">
        <ele>59.400001525879</ele>
        <time>2016-03-21T19:27:42.000Z</time>
      </trkpt>
      <trkpt lat="48.84631" lon="2.34907">
        <ele>60</ele>
        <time>2016-03-21T19:27:48.000Z</time>
      </trkpt>
      <trkpt lat="48.8462" lon="2.34904">
        <ele>60.400001525879</ele>
        <time>2016-03-21T19:27:53.000Z</time>
      </trkpt>
      <trkpt lat="48.84605" lon="2.34908">
        <ele>61</ele>
        <time>2016-03-21T19:28:11.000Z</time>
      </trkpt>
      <trkpt lat="48.84595" lon="2.34909">
        <ele>61.400001525879</ele>
        <time>2016-03-21T19:28:15.000Z</time>
      </trkpt>
      <trkpt lat="48.84576" lon="2.34912">
        <ele>62.599998474121</ele>
        <time>2016-03-21T19:28:21.000Z</time>
      </trkpt>
      <trkpt lat="48.84556" lon="2.34915">
        <ele>64</ele>
        <time>2016-03-21T19:28:26.000Z</time>
      </trkpt>
      <trkpt lat="48.84538" lon="2.3492">
        <ele>65</ele>
        <time>2016-03-21T19:28:30.000Z</time>
      </trkpt>
      <trkpt lat="48.84519" lon="2.34925">
        <ele>65.800003051758</ele>
        <time>2016-03-21T19:28:35.000Z</time>
      </trkpt>
      <trkpt lat="48.84501" lon="2.34928">
        <ele>65.400001525879</ele>
        <time>2016-03-21T19:28:40.000Z</time>
      </trkpt>
      <trkpt lat="48.84479" lon="2.34928">
        <ele>64.800003051758</ele>
        <time>2016-03-21T19:28:46.000Z</time>
      </trkpt>
      <trkpt lat="48.84458" lon="2.34928">
        <ele>64.400001525879</ele>
        <time>2016-03-21T19:28:50.000Z</time>
      </trkpt>
      <trkpt lat="48.84454" lon="2.34926">
        <ele>64.199996948242</ele>
        <time>2016-03-21T19:28:52.000Z</time>
      </trkpt>
      <trkpt lat="48.8445" lon="2.34924">
        <ele>64.199996948242</ele>
        <time>2016-03-21T19:28:54.000Z</time>
      </trkpt>
      <trkpt lat="48.84446" lon="2.34896">
        <ele>64</ele>
        <time>2016-03-21T19:29:04.000Z</time>
      </trkpt>
      <trkpt lat="48.84441" lon="2.34867">
        <ele>63.400001525879</ele>
        <time>2016-03-21T19:29:12.000Z</time>
      </trkpt>
      <trkpt lat="48.84443" lon="2.34838">
        <ele>63.200000762939</ele>
        <time>2016-03-21T19:29:21.000Z</time>
      </trkpt>
      <trkpt lat="48.84451" lon="2.34806">
        <ele>62.799999237061</ele>
        <time>2016-03-21T19:29:28.000Z</time>
      </trkpt>
      <trkpt lat="48.84453" lon="2.34783">
        <ele>62.799999237061</ele>
        <time>2016-03-21T19:29:32.000Z</time>
      </trkpt>
      <trkpt lat="48.8446" lon="2.34752">
        <ele>62.799999237061</ele>
        <time>2016-03-21T19:29:38.000Z</time>
      </trkpt>
      <trkpt lat="48.84465" lon="2.34727">
        <ele>63</ele>
        <time>2016-03-21T19:29:45.000Z</time>
      </trkpt>
      <trkpt lat="48.84446" lon="2.3472">
        <ele>63.200000762939</ele>
        <time>2016-03-21T19:29:50.000Z</time>
      </trkpt>
      <trkpt lat="48.84425" lon="2.34714">
        <ele>63.400001525879</ele>
        <time>2016-03-21T19:29:55.000Z</time>
      </trkpt>
      <trkpt lat="48.84406" lon="2.34706">
        <ele>63.400001525879</ele>
        <time>2016-03-21T19:30:00.000Z</time>
      </trkpt>
      <trkpt lat="48.84386" lon="2.34698">
        <ele>63.799999237061</ele>
        <time>2016-03-21T19:30:06.000Z</time>
      </trkpt>
      <trkpt lat="48.84365" lon="2.34698">
        <ele>64.400001525879</ele>
        <time>2016-03-21T19:30:12.000Z</time>
      </trkpt>
      <trkpt lat="48.84346" lon="2.34699">
        <ele>64.199996948242</ele>
        <time>2016-03-21T19:30:19.000Z</time>
      </trkpt>
      <trkpt lat="48.84341" lon="2.34697">
        <ele>63.799999237061</ele>
        <time>2016-03-21T19:30:23.000Z</time>
      </trkpt>
      <trkpt lat="48.84341" lon="2.34687">
        <ele>63.400001525879</ele>
        <time>2016-03-21T19:30:27.000Z</time>
      </trkpt>
      <trkpt lat="48.84333" lon="2.34659">
        <ele>62.400001525879</ele>
        <time>2016-03-21T19:30:36.000Z</time>
      </trkpt>
      <trkpt lat="48.84334" lon="2.34654">
        <ele>62.599998474121</ele>
        <time>2016-03-21T19:30:40.000Z</time>
      </trkpt>
      <trkpt lat="48.8432" lon="2.34674">
        <ele>61.599998474121</ele>
        <time>2016-03-21T19:30:52.000Z</time>
      </trkpt>
      <trkpt lat="48.84306" lon="2.34694">
        <ele>61.200000762939</ele>
        <time>2016-03-21T19:31:03.000Z</time>
      </trkpt>
      <trkpt lat="48.84286" lon="2.34707">
        <ele>61</ele>
        <time>2016-03-21T19:31:08.000Z</time>
      </trkpt>
      <trkpt lat="48.84265" lon="2.3472">
        <ele>61</ele>
        <time>2016-03-21T19:31:14.000Z</time>
      </trkpt>
      <trkpt lat="48.84247" lon="2.34736">
        <ele>61</ele>
        <time>2016-03-21T19:31:23.000Z</time>
      </trkpt>
      <trkpt lat="48.84227" lon="2.34754">
        <ele>60.200000762939</ele>
        <time>2016-03-21T19:31:28.000Z</time>
      </trkpt>
      <trkpt lat="48.8421" lon="2.34774">
        <ele>59</ele>
        <time>2016-03-21T19:31:33.000Z</time>
      </trkpt>
      <trkpt lat="48.84193" lon="2.3479">
        <ele>58.200000762939</ele>
        <time>2016-03-21T19:31:38.000Z</time>
      </trkpt>
      <trkpt lat="48.84174" lon="2.348">
        <ele>57.799999237061</ele>
        <time>2016-03-21T19:31:44.000Z</time>
      </trkpt>
      <trkpt lat="48.84164" lon="2.34828">
        <ele>57.200000762939</ele>
        <time>2016-03-21T19:31:50.000Z</time>
      </trkpt>
      <trkpt lat="48.84149" lon="2.34849">
        <ele>55.599998474121</ele>
        <time>2016-03-21T19:31:56.000Z</time>
      </trkpt>
      <trkpt lat="48.84129" lon="2.34853">
        <ele>54.799999237061</ele>
        <time>2016-03-21T19:32:01.000Z</time>
      </trkpt>
      <trkpt lat="48.8411" lon="2.34858">
        <ele>53.200000762939</ele>
        <time>2016-03-21T19:32:06.000Z</time>
      </trkpt>
      <trkpt lat="48.84091" lon="2.34863">
        <ele>51.799999237061</ele>
        <time>2016-03-21T19:32:13.000Z</time>
      </trkpt>
      <trkpt lat="48.84069" lon="2.34869">
        <ele>50</ele>
        <time>2016-03-21T19:32:23.000Z</time>
      </trkpt>
      <trkpt lat="48.84053" lon="2.34855">
        <ele>50</ele>
        <time>2016-03-21T19:32:29.000Z</time>
      </trkpt>
      <trkpt lat="48.84044" lon="2.34837">
        <ele>50.799999237061</ele>
        <time>2016-03-21T19:32:33.000Z</time>
      </trkpt>
      <trkpt lat="48.84028" lon="2.34818">
        <ele>51</ele>
        <time>2016-03-21T19:32:38.000Z</time>
      </trkpt>
      <trkpt lat="48.84014" lon="2.34796">
        <ele>51.400001525879</ele>
        <time>2016-03-21T19:32:43.000Z</time>
      </trkpt>
      <trkpt lat="48.84004" lon="2.3477">
        <ele>52</ele>
        <time>2016-03-21T19:32:49.000Z</time>
      </trkpt>
      <trkpt lat="48.8399" lon="2.3475">
        <ele>52.400001525879</ele>
        <time>2016-03-21T19:32:58.000Z</time>
      </trkpt>
      <trkpt lat="48.83973" lon="2.34751">
        <ele>51.400001525879</ele>
        <time>2016-03-21T19:33:14.000Z</time>
      </trkpt>
      <trkpt lat="48.83959" lon="2.34775">
        <ele>49.799999237061</ele>
        <time>2016-03-21T19:33:20.000Z</time>
      </trkpt>
      <trkpt lat="48.8395" lon="2.34797">
        <ele>48.599998474121</ele>
        <time>2016-03-21T19:33:24.000Z</time>
      </trkpt>
      <trkpt lat="48.83939" lon="2.34825">
        <ele>47.200000762939</ele>
        <time>2016-03-21T19:33:29.000Z</time>
      </trkpt>
      <trkpt lat="48.83929" lon="2.34851">
        <ele>45.599998474121</ele>
        <time>2016-03-21T19:33:33.000Z</time>
      </trkpt>
      <trkpt lat="48.83918" lon="2.3488">
        <ele>43.400001525879</ele>
        <time>2016-03-21T19:33:37.000Z</time>
      </trkpt>
      <trkpt lat="48.83909" lon="2.34907">
        <ele>42</ele>
        <time>2016-03-21T19:33:41.000Z</time>
      </trkpt>
      <trkpt lat="48.83898" lon="2.34935">
        <ele>41.799999237061</ele>
        <time>2016-03-21T19:33:45.000Z</time>
      </trkpt>
      <trkpt lat="48.83885" lon="2.34966">
        <ele>42.200000762939</ele>
        <time>2016-03-21T19:33:49.000Z</time>
      </trkpt>
      <trkpt lat="48.83876" lon="2.3499">
        <ele>43</ele>
        <time>2016-03-21T19:33:52.000Z</time>
      </trkpt>
      <trkpt lat="48.83865" lon="2.35021">
        <ele>44.400001525879</ele>
        <time>2016-03-21T19:33:56.000Z</time>
      </trkpt>
      <trkpt lat="48.83856" lon="2.35049">
        <ele>45.200000762939</ele>
        <time>2016-03-21T19:34:00.000Z</time>
      </trkpt>
      <trkpt lat="48.83843" lon="2.35075">
        <ele>46.400001525879</ele>
        <time>2016-03-21T19:34:04.000Z</time>
      </trkpt>
      <trkpt lat="48.83825" lon="2.3509">
        <ele>47</ele>
        <time>2016-03-21T19:34:08.000Z</time>
      </trkpt>
      <trkpt lat="48.83807" lon="2.35102">
        <ele>47.200000762939</ele>
        <time>2016-03-21T19:34:12.000Z</time>
      </trkpt>
      <trkpt lat="48.83792" lon="2.3511">
        <ele>47.799999237061</ele>
        <time>2016-03-21T19:34:15.000Z</time>
      </trkpt>
      <trkpt lat="48.83773" lon="2.35121">
        <ele>48.400001525879</ele>
        <time>2016-03-21T19:34:19.000Z</time>
      </trkpt>
      <trkpt lat="48.83764" lon="2.35126">
        <ele>48.200000762939</ele>
        <time>2016-03-21T19:34:21.000Z</time>
      </trkpt>
      <trkpt lat="48.83744" lon="2.35137">
        <ele>47.599998474121</ele>
        <time>2016-03-21T19:34:26.000Z</time>
      </trkpt>
      <trkpt lat="48.83725" lon="2.3515">
        <ele>47.799999237061</ele>
        <time>2016-03-21T19:34:31.000Z</time>
      </trkpt>
      <trkpt lat="48.83707" lon="2.35161">
        <ele>48</ele>
        <time>2016-03-21T19:34:37.000Z</time>
      </trkpt>
      <trkpt lat="48.83703" lon="2.35165">
        <ele>48</ele>
        <time>2016-03-21T19:34:39.000Z</time>
      </trkpt>
      <trkpt lat="48.83695" lon="2.35173">
        <ele>48</ele>
        <time>2016-03-21T19:34:43.000Z</time>
      </trkpt>
      <trkpt lat="48.83688" lon="2.35175">
        <ele>48.400001525879</ele>
        <time>2016-03-21T19:34:48.000Z</time>
      </trkpt>
      <trkpt lat="48.83676" lon="2.35158">
        <ele>47.799999237061</ele>
        <time>2016-03-21T19:35:15.000Z</time>
      </trkpt>
      <trkpt lat="48.83669" lon="2.35131">
        <ele>47.200000762939</ele>
        <time>2016-03-21T19:35:20.000Z</time>
      </trkpt>
      <trkpt lat="48.83659" lon="2.351">
        <ele>46.599998474121</ele>
        <time>2016-03-21T19:35:25.000Z</time>
      </trkpt>
      <trkpt lat="48.83649" lon="2.35073">
        <ele>46.200000762939</ele>
        <time>2016-03-21T19:35:29.000Z</time>
      </trkpt>
      <trkpt lat="48.83639" lon="2.35043">
        <ele>46.200000762939</ele>
        <time>2016-03-21T19:35:33.000Z</time>
      </trkpt>
      <trkpt lat="48.83629" lon="2.35018">
        <ele>46.400001525879</ele>
        <time>2016-03-21T19:35:36.000Z</time>
      </trkpt>
      <trkpt lat="48.83622" lon="2.34992">
        <ele>46.599998474121</ele>
        <time>2016-03-21T19:35:39.000Z</time>
      </trkpt>
      <trkpt lat="48.83614" lon="2.34966">
        <ele>46.400001525879</ele>
        <time>2016-03-21T19:35:42.000Z</time>
      </trkpt>
      <trkpt lat="48.83606" lon="2.3494">
        <ele>46</ele>
        <time>2016-03-21T19:35:45.000Z</time>
      </trkpt>
      <trkpt lat="48.83595" lon="2.34909">
        <ele>45.599998474121</ele>
        <time>2016-03-21T19:35:49.000Z</time>
      </trkpt>
      <trkpt lat="48.8359" lon="2.34882">
        <ele>45.400001525879</ele>
        <time>2016-03-21T19:35:53.000Z</time>
      </trkpt>
      <trkpt lat="48.83586" lon="2.34872">
        <ele>45.200000762939</ele>
        <time>2016-03-21T19:35:55.000Z</time>
      </trkpt>
      <trkpt lat="48.83566" lon="2.34863">
        <ele>45</ele>
        <time>2016-03-21T19:35:59.000Z</time>
      </trkpt>
      <trkpt lat="48.83558" lon="2.34867">
        <ele>44.799999237061</ele>
        <time>2016-03-21T19:36:02.000Z</time>
      </trkpt>
      <trkpt lat="48.83555" lon="2.34869">
        <ele>44.799999237061</ele>
        <time>2016-03-21T19:36:03.000Z</time>
      </trkpt>
      <trkpt lat="48.83538" lon="2.34866">
        <ele>44.200000762939</ele>
        <time>2016-03-21T19:36:07.000Z</time>
      </trkpt>
      <trkpt lat="48.83518" lon="2.34861">
        <ele>43.599998474121</ele>
        <time>2016-03-21T19:36:12.000Z</time>
      </trkpt>
      <trkpt lat="48.83499" lon="2.34855">
        <ele>43.200000762939</ele>
        <time>2016-03-21T19:36:16.000Z</time>
      </trkpt>
      <trkpt lat="48.83491" lon="2.34856">
        <ele>43</ele>
        <time>2016-03-21T19:36:18.000Z</time>
      </trkpt>
      <trkpt lat="48.83472" lon="2.34874">
        <ele>42.400001525879</ele>
        <time>2016-03-21T19:36:24.000Z</time>
      </trkpt>
      <trkpt lat="48.83466" lon="2.3488">
        <ele>42.400001525879</ele>
        <time>2016-03-21T19:36:26.000Z</time>
      </trkpt>
      <trkpt lat="48.83449" lon="2.34889">
        <ele>42.200000762939</ele>
        <time>2016-03-21T19:36:33.000Z</time>
      </trkpt>
      <trkpt lat="48.8343" lon="2.34894">
        <ele>42</ele>
        <time>2016-03-21T19:36:38.000Z</time>
      </trkpt>
      <trkpt lat="48.83411" lon="2.34899">
        <ele>41.599998474121</ele>
        <time>2016-03-21T19:36:42.000Z</time>
      </trkpt>
      <trkpt lat="48.83391" lon="2.34898">
        <ele>40.799999237061</ele>
        <time>2016-03-21T19:36:47.000Z</time>
      </trkpt>
      <trkpt lat="48.83371" lon="2.34892">
        <ele>40.400001525879</ele>
        <time>2016-03-21T19:36:50.000Z</time>
      </trkpt>
      <trkpt lat="48.83351" lon="2.34881">
        <ele>40.200000762939</ele>
        <time>2016-03-21T19:36:54.000Z</time>
      </trkpt>
      <trkpt lat="48.83341" lon="2.34873">
        <ele>40.400001525879</ele>
        <time>2016-03-21T19:36:57.000Z</time>
      </trkpt>
      <trkpt lat="48.83328" lon="2.34849">
        <ele>41</ele>
        <time>2016-03-21T19:37:02.000Z</time>
      </trkpt>
      <trkpt lat="48.83323" lon="2.34827">
        <ele>41.799999237061</ele>
        <time>2016-03-21T19:37:06.000Z</time>
      </trkpt>
      <trkpt lat="48.83312" lon="2.34806">
        <ele>42.400001525879</ele>
        <time>2016-03-21T19:37:10.000Z</time>
      </trkpt>
      <trkpt lat="48.83303" lon="2.34788">
        <ele>43</ele>
        <time>2016-03-21T19:37:13.000Z</time>
      </trkpt>
      <trkpt lat="48.83291" lon="2.34764">
        <ele>43.599998474121</ele>
        <time>2016-03-21T19:37:17.000Z</time>
      </trkpt>
      <trkpt lat="48.8328" lon="2.34743">
        <ele>44</ele>
        <time>2016-03-21T19:37:21.000Z</time>
      </trkpt>
      <trkpt lat="48.83269" lon="2.34719">
        <ele>45.799999237061</ele>
        <time>2016-03-21T19:37:27.000Z</time>
      </trkpt>
      <trkpt lat="48.83262" lon="2.34699">
        <ele>47</ele>
        <time>2016-03-21T19:37:33.000Z</time>
      </trkpt>
      <trkpt lat="48.8326" lon="2.34693">
        <ele>47.200000762939</ele>
        <time>2016-03-21T19:37:35.000Z</time>
      </trkpt>
      <trkpt lat="48.83255" lon="2.34681">
        <ele>48</ele>
        <time>2016-03-21T19:37:40.000Z</time>
      </trkpt>
      <trkpt lat="48.83247" lon="2.34651">
        <ele>48.799999237061</ele>
        <time>2016-03-21T19:37:48.000Z</time>
      </trkpt>
      <trkpt lat="48.83238" lon="2.34622">
        <ele>48.400001525879</ele>
        <time>2016-03-21T19:37:55.000Z</time>
      </trkpt>
      <trkpt lat="48.83227" lon="2.34596">
        <ele>48.200000762939</ele>
        <time>2016-03-21T19:38:01.000Z</time>
      </trkpt>
      <trkpt lat="48.83218" lon="2.34571">
        <ele>48.200000762939</ele>
        <time>2016-03-21T19:38:08.000Z</time>
      </trkpt>
      <trkpt lat="48.83211" lon="2.34543">
        <ele>49</ele>
        <time>2016-03-21T19:38:13.000Z</time>
      </trkpt>
      <trkpt lat="48.832" lon="2.3452">
        <ele>49.400001525879</ele>
        <time>2016-03-21T19:38:18.000Z</time>
      </trkpt>
      <trkpt lat="48.83191" lon="2.34492">
        <ele>50</ele>
        <time>2016-03-21T19:38:24.000Z</time>
      </trkpt>
      <trkpt lat="48.83185" lon="2.34466">
        <ele>49.599998474121</ele>
        <time>2016-03-21T19:38:30.000Z</time>
      </trkpt>
      <trkpt lat="48.83184" lon="2.34444">
        <ele>49.400001525879</ele>
        <time>2016-03-21T19:38:37.000Z</time>
      </trkpt>
      <trkpt lat="48.83186" lon="2.34442">
        <ele>49.400001525879</ele>
        <time>2016-03-21T19:38:39.000Z</time>
      </trkpt>
      <trkpt lat="48.83171" lon="2.34426">
        <ele>49.200000762939</ele>
        <time>2016-03-21T19:38:57.000Z</time>
      </trkpt>
      <trkpt lat="48.83148" lon="2.34425">
        <ele>49.200000762939</ele>
        <time>2016-03-21T19:39:01.000Z</time>
      </trkpt>
      <trkpt lat="48.83127" lon="2.34424">
        <ele>49.200000762939</ele>
        <time>2016-03-21T19:39:06.000Z</time>
      </trkpt>
      <trkpt lat="48.83115" lon="2.34422">
        <ele>49</ele>
        <time>2016-03-21T19:39:10.000Z</time>
      </trkpt>
      <trkpt lat="48.83095" lon="2.34421">
        <ele>48.200000762939</ele>
        <time>2016-03-21T19:39:17.000Z</time>
      </trkpt>
      <trkpt lat="48.83074" lon="2.34415">
        <ele>47.200000762939</ele>
        <time>2016-03-21T19:39:22.000Z</time>
      </trkpt>
      <trkpt lat="48.83055" lon="2.34407">
        <ele>46</ele>
        <time>2016-03-21T19:39:26.000Z</time>
      </trkpt>
      <trkpt lat="48.83037" lon="2.34393">
        <ele>44.799999237061</ele>
        <time>2016-03-21T19:39:30.000Z</time>
      </trkpt>
      <trkpt lat="48.8302" lon="2.34379">
        <ele>44</ele>
        <time>2016-03-21T19:39:34.000Z</time>
      </trkpt>
      <trkpt lat="48.8301" lon="2.34372">
        <ele>44.200000762939</ele>
        <time>2016-03-21T19:39:36.000Z</time>
      </trkpt>
      <trkpt lat="48.82994" lon="2.34359">
        <ele>44.400001525879</ele>
        <time>2016-03-21T19:39:39.000Z</time>
      </trkpt>
      <trkpt lat="48.82974" lon="2.34344">
        <ele>44.599998474121</ele>
        <time>2016-03-21T19:39:43.000Z</time>
      </trkpt>
      <trkpt lat="48.82956" lon="2.34334">
        <ele>44.799999237061</ele>
        <time>2016-03-21T19:39:46.000Z</time>
      </trkpt>
      <trkpt lat="48.82935" lon="2.34326">
        <ele>45.200000762939</ele>
        <time>2016-03-21T19:39:49.000Z</time>
      </trkpt>
      <trkpt lat="48.82912" lon="2.34322">
        <ele>46.200000762939</ele>
        <time>2016-03-21T19:39:52.000Z</time>
      </trkpt>
      <trkpt lat="48.82891" lon="2.34313">
        <ele>47.200000762939</ele>
        <time>2016-03-21T19:39:56.000Z</time>
      </trkpt>
      <trkpt lat="48.82883" lon="2.34306">
        <ele>47.599998474121</ele>
        <time>2016-03-21T19:39:58.000Z</time>
      </trkpt>
      <trkpt lat="48.82869" lon="2.34289">
        <ele>48.599998474121</ele>
        <time>2016-03-21T19:40:02.000Z</time>
      </trkpt>
      <trkpt lat="48.82867" lon="2.34283">
        <ele>48.799999237061</ele>
        <time>2016-03-21T19:40:03.000Z</time>
      </trkpt>
      <trkpt lat="48.8287" lon="2.34252">
        <ele>49.599998474121</ele>
        <time>2016-03-21T19:40:07.000Z</time>
      </trkpt>
      <trkpt lat="48.82872" lon="2.34224">
        <ele>49.799999237061</ele>
        <time>2016-03-21T19:40:11.000Z</time>
      </trkpt>
      <trkpt lat="48.82874" lon="2.34193">
        <ele>50.200000762939</ele>
        <time>2016-03-21T19:40:15.000Z</time>
      </trkpt>
      <trkpt lat="48.82875" lon="2.34171">
        <ele>50.599998474121</ele>
        <time>2016-03-21T19:40:19.000Z</time>
      </trkpt>
      <trkpt lat="48.82874" lon="2.34161">
        <ele>50.799999237061</ele>
        <time>2016-03-21T19:40:22.000Z</time>
      </trkpt>
      <trkpt lat="48.82864" lon="2.34152">
        <ele>50.799999237061</ele>
        <time>2016-03-21T19:40:29.000Z</time>
      </trkpt>
      <trkpt lat="48.82846" lon="2.34156">
        <ele>51</ele>
        <time>2016-03-21T19:40:36.000Z</time>
      </trkpt>
      <trkpt lat="48.82826" lon="2.34162">
        <ele>51</ele>
        <time>2016-03-21T19:40:43.000Z</time>
      </trkpt>
      <trkpt lat="48.82817" lon="2.34163">
        <ele>51</ele>
        <time>2016-03-21T19:40:46.000Z</time>
      </trkpt>
      <trkpt lat="48.82798" lon="2.34166">
        <ele>51</ele>
        <time>2016-03-21T19:40:52.000Z</time>
      </trkpt>
      <trkpt lat="48.82777" lon="2.34168">
        <ele>51</ele>
        <time>2016-03-21T19:40:57.000Z</time>
      </trkpt>
      <trkpt lat="48.82758" lon="2.34169">
        <ele>50.799999237061</ele>
        <time>2016-03-21T19:41:01.000Z</time>
      </trkpt>
      <trkpt lat="48.82739" lon="2.34166">
        <ele>51</ele>
        <time>2016-03-21T19:41:05.000Z</time>
      </trkpt>
      <trkpt lat="48.8272" lon="2.34165">
        <ele>51</ele>
        <time>2016-03-21T19:41:09.000Z</time>
      </trkpt>
      <trkpt lat="48.82702" lon="2.34164">
        <ele>51</ele>
        <time>2016-03-21T19:41:13.000Z</time>
      </trkpt>
      <trkpt lat="48.82681" lon="2.34162">
        <ele>51</ele>
        <time>2016-03-21T19:41:17.000Z</time>
      </trkpt>
      <trkpt lat="48.82663" lon="2.34157">
        <ele>51</ele>
        <time>2016-03-21T19:41:23.000Z</time>
      </trkpt>
      <trkpt lat="48.82653" lon="2.34157">
        <ele>50.799999237061</ele>
        <time>2016-03-21T19:41:28.000Z</time>
      </trkpt>
      <trkpt lat="48.82639" lon="2.34175">
        <ele>49.599998474121</ele>
        <time>2016-03-21T19:41:50.000Z</time>
      </trkpt>
      <trkpt lat="48.82626" lon="2.34199">
        <ele>49</ele>
        <time>2016-03-21T19:42:00.000Z</time>
      </trkpt>
      <trkpt lat="48.82605" lon="2.34212">
        <ele>48.400001525879</ele>
        <time>2016-03-21T19:42:06.000Z</time>
      </trkpt>
      <trkpt lat="48.82595" lon="2.34223">
        <ele>48.200000762939</ele>
        <time>2016-03-21T19:42:09.000Z</time>
      </trkpt>
      <trkpt lat="48.82587" lon="2.34238">
        <ele>48</ele>
        <time>2016-03-21T19:42:12.000Z</time>
      </trkpt>
      <trkpt lat="48.82578" lon="2.34268">
        <ele>48.400001525879</ele>
        <time>2016-03-21T19:42:17.000Z</time>
      </trkpt>
      <trkpt lat="48.8257" lon="2.34294">
        <ele>49.200000762939</ele>
        <time>2016-03-21T19:42:22.000Z</time>
      </trkpt>
      <trkpt lat="48.8255" lon="2.34303">
        <ele>49.599998474121</ele>
        <time>2016-03-21T19:42:26.000Z</time>
      </trkpt>
      <trkpt lat="48.82535" lon="2.34324">
        <ele>50.599998474121</ele>
        <time>2016-03-21T19:42:30.000Z</time>
      </trkpt>
      <trkpt lat="48.82522" lon="2.34343">
        <ele>51.400001525879</ele>
        <time>2016-03-21T19:42:35.000Z</time>
      </trkpt>
      <trkpt lat="48.82511" lon="2.3435">
        <ele>51.200000762939</ele>
        <time>2016-03-21T19:42:38.000Z</time>
      </trkpt>
      <trkpt lat="48.82496" lon="2.3436">
        <ele>51.200000762939</ele>
        <time>2016-03-21T19:42:42.000Z</time>
      </trkpt>
      <trkpt lat="48.82484" lon="2.34368">
        <ele>51</ele>
        <time>2016-03-21T19:42:45.000Z</time>
      </trkpt>
      <trkpt lat="48.82469" lon="2.34384">
        <ele>51</ele>
        <time>2016-03-21T19:42:49.000Z</time>
      </trkpt>
      <trkpt lat="48.82451" lon="2.34393">
        <ele>50.599998474121</ele>
        <time>2016-03-21T19:42:53.000Z</time>
      </trkpt>
      <trkpt lat="48.82437" lon="2.34413">
        <ele>51</ele>
        <time>2016-03-21T19:42:57.000Z</time>
      </trkpt>
      <trkpt lat="48.82431" lon="2.3442">
        <ele>50.799999237061</ele>
        <time>2016-03-21T19:42:59.000Z</time>
      </trkpt>
      <trkpt lat="48.82419" lon="2.34427">
        <ele>50.599998474121</ele>
        <time>2016-03-21T19:43:02.000Z</time>
      </trkpt>
      <trkpt lat="48.82409" lon="2.34433">
        <ele>50.200000762939</ele>
        <time>2016-03-21T19:43:05.000Z</time>
      </trkpt>
      <trkpt lat="48.82396" lon="2.34454">
        <ele>50</ele>
        <time>2016-03-21T19:43:10.000Z</time>
      </trkpt>
      <trkpt lat="48.82393" lon="2.34457">
        <ele>50</ele>
        <time>2016-03-21T19:43:11.000Z</time>
      </trkpt>
      <trkpt lat="48.82377" lon="2.34481">
        <ele>50</ele>
        <time>2016-03-21T19:43:16.000Z</time>
      </trkpt>
      <trkpt lat="48.82368" lon="2.34491">
        <ele>50</ele>
        <time>2016-03-21T19:43:19.000Z</time>
      </trkpt>
      <trkpt lat="48.82361" lon="2.34502">
        <ele>50.200000762939</ele>
        <time>2016-03-21T19:43:22.000Z</time>
      </trkpt>
      <trkpt lat="48.8235" lon="2.34525">
        <ele>50.200000762939</ele>
        <time>2016-03-21T19:43:26.000Z</time>
      </trkpt>
      <trkpt lat="48.82343" lon="2.3454">
        <ele>50.400001525879</ele>
        <time>2016-03-21T19:43:29.000Z</time>
      </trkpt>
      <trkpt lat="48.82336" lon="2.34564">
        <ele>50.599998474121</ele>
        <time>2016-03-21T19:43:33.000Z</time>
      </trkpt>
      <trkpt lat="48.82322" lon="2.34583">
        <ele>50.599998474121</ele>
        <time>2016-03-21T19:43:37.000Z</time>
      </trkpt>
      <trkpt lat="48.82304" lon="2.34597">
        <ele>50.400001525879</ele>
        <time>2016-03-21T19:43:41.000Z</time>
      </trkpt>
      <trkpt lat="48.82292" lon="2.34609">
        <ele>50.200000762939</ele>
        <time>2016-03-21T19:43:44.000Z</time>
      </trkpt>
      <trkpt lat="48.82268" lon="2.3462">
        <ele>49.599998474121</ele>
        <time>2016-03-21T19:43:47.000Z</time>
      </trkpt>
      <trkpt lat="48.82264" lon="2.34624">
        <ele>49.799999237061</ele>
        <time>2016-03-21T19:43:48.000Z</time>
      </trkpt>
      <trkpt lat="48.82259" lon="2.34626">
        <ele>50</ele>
        <time>2016-03-21T19:43:50.000Z</time>
      </trkpt>
      <trkpt lat="48.82251" lon="2.34632">
        <ele>50.200000762939</ele>
        <time>2016-03-21T19:43:54.000Z</time>
      </trkpt>
      <trkpt lat="48.82249" lon="2.34635">
        <ele>50.200000762939</ele>
        <time>2016-03-21T19:43:56.000Z</time>
      </trkpt>
      <trkpt lat="48.82236" lon="2.34653">
        <ele>50.200000762939</ele>
        <time>2016-03-21T19:44:03.000Z</time>
      </trkpt>
      <trkpt lat="48.82229" lon="2.34683">
        <ele>50.200000762939</ele>
        <time>2016-03-21T19:44:09.000Z</time>
      </trkpt>
      <trkpt lat="48.8222" lon="2.34711">
        <ele>50.200000762939</ele>
        <time>2016-03-21T19:44:14.000Z</time>
      </trkpt>
      <trkpt lat="48.82215" lon="2.3474">
        <ele>49.599998474121</ele>
        <time>2016-03-21T19:44:18.000Z</time>
      </trkpt>
      <trkpt lat="48.82213" lon="2.34767">
        <ele>49.200000762939</ele>
        <time>2016-03-21T19:44:22.000Z</time>
      </trkpt>
      <trkpt lat="48.82213" lon="2.348">
        <ele>48.599998474121</ele>
        <time>2016-03-21T19:44:26.000Z</time>
      </trkpt>
      <trkpt lat="48.82215" lon="2.34835">
        <ele>48</ele>
        <time>2016-03-21T19:44:30.000Z</time>
      </trkpt>
      <trkpt lat="48.82217" lon="2.3486">
        <ele>48</ele>
        <time>2016-03-21T19:44:33.000Z</time>
      </trkpt>
      <trkpt lat="48.82216" lon="2.3489">
        <ele>47.599998474121</ele>
        <time>2016-03-21T19:44:37.000Z</time>
      </trkpt>
      <trkpt lat="48.82216" lon="2.34919">
        <ele>47.400001525879</ele>
        <time>2016-03-21T19:44:41.000Z</time>
      </trkpt>
      <trkpt lat="48.82216" lon="2.34948">
        <ele>47.799999237061</ele>
        <time>2016-03-21T19:44:45.000Z</time>
      </trkpt>
      <trkpt lat="48.82215" lon="2.34978">
        <ele>47</ele>
        <time>2016-03-21T19:44:49.000Z</time>
      </trkpt>
      <trkpt lat="48.82214" lon="2.35008">
        <ele>45.799999237061</ele>
        <time>2016-03-21T19:44:56.000Z</time>
      </trkpt>
      <trkpt lat="48.82215" lon="2.35023">
        <ele>44.799999237061</ele>
        <time>2016-03-21T19:45:00.000Z</time>
      </trkpt>
      <trkpt lat="48.82216" lon="2.3503">
        <ele>44.599998474121</ele>
        <time>2016-03-21T19:45:02.000Z</time>
      </trkpt>
      <trkpt lat="48.82212" lon="2.35053">
        <ele>44.200000762939</ele>
        <time>2016-03-21T19:45:07.000Z</time>
      </trkpt>
      <trkpt lat="48.82212" lon="2.35067">
        <ele>44</ele>
        <time>2016-03-21T19:45:10.000Z</time>
      </trkpt>
      <trkpt lat="48.82217" lon="2.35097">
        <ele>43.400001525879</ele>
        <time>2016-03-21T19:45:17.000Z</time>
      </trkpt>
      <trkpt lat="48.82216" lon="2.35128">
        <ele>43.200000762939</ele>
        <time>2016-03-21T19:45:22.000Z</time>
      </trkpt>
      <trkpt lat="48.82216" lon="2.35159">
        <ele>43.599998474121</ele>
        <time>2016-03-21T19:45:26.000Z</time>
      </trkpt>
      <trkpt lat="48.82213" lon="2.3519">
        <ele>43.400001525879</ele>
        <time>2016-03-21T19:45:31.000Z</time>
      </trkpt>
      <trkpt lat="48.82211" lon="2.35222">
        <ele>42.200000762939</ele>
        <time>2016-03-21T19:45:36.000Z</time>
      </trkpt>
      <trkpt lat="48.82215" lon="2.35251">
        <ele>41.400001525879</ele>
        <time>2016-03-21T19:45:40.000Z</time>
      </trkpt>
      <trkpt lat="48.82215" lon="2.3528">
        <ele>41.799999237061</ele>
        <time>2016-03-21T19:45:43.000Z</time>
      </trkpt>
      <trkpt lat="48.82214" lon="2.3531">
        <ele>42.400001525879</ele>
        <time>2016-03-21T19:45:47.000Z</time>
      </trkpt>
      <trkpt lat="48.82214" lon="2.3532">
        <ele>42.799999237061</ele>
        <time>2016-03-21T19:45:49.000Z</time>
      </trkpt>
      <trkpt lat="48.82215" lon="2.35353">
        <ele>44.400001525879</ele>
        <time>2016-03-21T19:45:55.000Z</time>
      </trkpt>
      <trkpt lat="48.82214" lon="2.35374">
        <ele>45.799999237061</ele>
        <time>2016-03-21T19:45:59.000Z</time>
      </trkpt>
      <trkpt lat="48.8221" lon="2.35403">
        <ele>48</ele>
        <time>2016-03-21T19:46:06.000Z</time>
      </trkpt>
      <trkpt lat="48.8221" lon="2.35431">
        <ele>50.200000762939</ele>
        <time>2016-03-21T19:46:13.000Z</time>
      </trkpt>
      <trkpt lat="48.8221" lon="2.35459">
        <ele>51.400001525879</ele>
        <time>2016-03-21T19:46:18.000Z</time>
      </trkpt>
      <trkpt lat="48.82212" lon="2.35489">
        <ele>52.599998474121</ele>
        <time>2016-03-21T19:46:24.000Z</time>
      </trkpt>
      <trkpt lat="48.82216" lon="2.35516">
        <ele>53.200000762939</ele>
        <time>2016-03-21T19:46:31.000Z</time>
      </trkpt>
      <trkpt lat="48.82217" lon="2.35518">
        <ele>53.200000762939</ele>
        <time>2016-03-21T19:46:34.000Z</time>
      </trkpt>
      <trkpt lat="48.82222" lon="2.35522">
        <ele>53.599998474121</ele>
        <time>2016-03-21T19:46:50.000Z</time>
      </trkpt>
      <trkpt lat="48.82223" lon="2.35522">
        <ele>53.599998474121</ele>
        <time>2016-03-21T19:46:52.000Z</time>
      </trkpt>
      <trkpt lat="48.82219" lon="2.3553">
        <ele>53.400001525879</ele>
        <time>2016-03-21T19:47:35.000Z</time>
      </trkpt>
      <trkpt lat="48.82215" lon="2.35529">
        <ele>53.400001525879</ele>
        <time>2016-03-21T19:47:36.000Z</time>
      </trkpt>
      <trkpt lat="48.82201" lon="2.35517">
        <ele>52.599998474121</ele>
        <time>2016-03-21T19:47:59.000Z</time>
      </trkpt>
      <trkpt lat="48.82206" lon="2.35542">
        <ele>53.200000762939</ele>
        <time>2016-03-21T19:48:19.000Z</time>
      </trkpt>
      <trkpt lat="48.8221" lon="2.35571">
        <ele>53.599998474121</ele>
        <time>2016-03-21T19:48:27.000Z</time>
      </trkpt>
      <trkpt lat="48.82213" lon="2.35604">
        <ele>53.799999237061</ele>
        <time>2016-03-21T19:48:32.000Z</time>
      </trkpt>
      <trkpt lat="48.82211" lon="2.35633">
        <ele>54.799999237061</ele>
        <time>2016-03-21T19:48:37.000Z</time>
      </trkpt>
      <trkpt lat="48.82215" lon="2.35663">
        <ele>56</ele>
        <time>2016-03-21T19:48:45.000Z</time>
      </trkpt>
      <trkpt lat="48.82216" lon="2.35695">
        <ele>57</ele>
        <time>2016-03-21T19:48:51.000Z</time>
      </trkpt>
      <trkpt lat="48.82221" lon="2.35727">
        <ele>57.599998474121</ele>
        <time>2016-03-21T19:48:56.000Z</time>
      </trkpt>
      <trkpt lat="48.82224" lon="2.3576">
        <ele>58.799999237061</ele>
        <time>2016-03-21T19:49:01.000Z</time>
      </trkpt>
      <trkpt lat="48.82227" lon="2.35792">
        <ele>60.799999237061</ele>
        <time>2016-03-21T19:49:06.000Z</time>
      </trkpt>
      <trkpt lat="48.82231" lon="2.3582">
        <ele>61.799999237061</ele>
        <time>2016-03-21T19:49:14.000Z</time>
      </trkpt>
      <trkpt lat="48.82227" lon="2.35832">
        <ele>61.799999237061</ele>
        <time>2016-03-21T19:49:21.000Z</time>
      </trkpt>
      <trkpt lat="48.82204" lon="2.35838">
        <ele>60</ele>
        <time>2016-03-21T19:49:41.000Z</time>
      </trkpt>
      <trkpt lat="48.82186" lon="2.35843">
        <ele>59.400001525879</ele>
        <time>2016-03-21T19:49:46.000Z</time>
      </trkpt>
      <trkpt lat="48.82165" lon="2.35845">
        <ele>59.400001525879</ele>
        <time>2016-03-21T19:49:51.000Z</time>
      </trkpt>
      <trkpt lat="48.82147" lon="2.35854">
        <ele>59.799999237061</ele>
        <time>2016-03-21T19:49:55.000Z</time>
      </trkpt>
      <trkpt lat="48.82128" lon="2.35865">
        <ele>60</ele>
        <time>2016-03-21T19:49:59.000Z</time>
      </trkpt>
      <trkpt lat="48.82107" lon="2.35873">
        <ele>59.599998474121</ele>
        <time>2016-03-21T19:50:03.000Z</time>
      </trkpt>
      <trkpt lat="48.8209" lon="2.35884">
        <ele>59.200000762939</ele>
        <time>2016-03-21T19:50:06.000Z</time>
      </trkpt>
      <trkpt lat="48.8207" lon="2.35891">
        <ele>59</ele>
        <time>2016-03-21T19:50:09.000Z</time>
      </trkpt>
      <trkpt lat="48.8205" lon="2.35898">
        <ele>59</ele>
        <time>2016-03-21T19:50:12.000Z</time>
      </trkpt>
      <trkpt lat="48.82029" lon="2.35905">
        <ele>58.799999237061</ele>
        <time>2016-03-21T19:50:15.000Z</time>
      </trkpt>
      <trkpt lat="48.82008" lon="2.3591">
        <ele>59.400001525879</ele>
        <time>2016-03-21T19:50:18.000Z</time>
      </trkpt>
      <trkpt lat="48.81993" lon="2.35913">
        <ele>60</ele>
        <time>2016-03-21T19:50:20.000Z</time>
      </trkpt>
      <trkpt lat="48.81972" lon="2.3592">
        <ele>61.200000762939</ele>
        <time>2016-03-21T19:50:23.000Z</time>
      </trkpt>
      <trkpt lat="48.81953" lon="2.35925">
        <ele>62.200000762939</ele>
        <time>2016-03-21T19:50:26.000Z</time>
      </trkpt>
      <trkpt lat="48.81934" lon="2.35932">
        <ele>62.400001525879</ele>
        <time>2016-03-21T19:50:29.000Z</time>
      </trkpt>
      <trkpt lat="48.81916" lon="2.3594">
        <ele>62.799999237061</ele>
        <time>2016-03-21T19:50:33.000Z</time>
      </trkpt>
      <trkpt lat="48.81906" lon="2.35942">
        <ele>63</ele>
        <time>2016-03-21T19:50:37.000Z</time>
      </trkpt>
      <trkpt lat="48.81892" lon="2.35946">
        <ele>63.400001525879</ele>
        <time>2016-03-21T19:51:00.000Z</time>
      </trkpt>
      <trkpt lat="48.81874" lon="2.35951">
        <ele>62.599998474121</ele>
        <time>2016-03-21T19:51:08.000Z</time>
      </trkpt>
      <trkpt lat="48.81855" lon="2.35955">
        <ele>61.599998474121</ele>
        <time>2016-03-21T19:51:15.000Z</time>
      </trkpt>
      <trkpt lat="48.81835" lon="2.35962">
        <ele>61.799999237061</ele>
        <time>2016-03-21T19:51:21.000Z</time>
      </trkpt>
      <trkpt lat="48.81817" lon="2.35969">
        <ele>61.799999237061</ele>
        <time>2016-03-21T19:51:26.000Z</time>
      </trkpt>
      <trkpt lat="48.81796" lon="2.35976">
        <ele>61.799999237061</ele>
        <time>2016-03-21T19:51:31.000Z</time>
      </trkpt>
      <trkpt lat="48.81777" lon="2.35982">
        <ele>61.599998474121</ele>
        <time>2016-03-21T19:51:35.000Z</time>
      </trkpt>
      <trkpt lat="48.81759" lon="2.35989">
        <ele>61.200000762939</ele>
        <time>2016-03-21T19:51:39.000Z</time>
      </trkpt>
      <trkpt lat="48.81741" lon="2.35996">
        <ele>61</ele>
        <time>2016-03-21T19:51:43.000Z</time>
      </trkpt>
      <trkpt lat="48.81718" lon="2.36002">
        <ele>61</ele>
        <time>2016-03-21T19:51:47.000Z</time>
      </trkpt>
      <trkpt lat="48.81697" lon="2.36008">
        <ele>61</ele>
        <time>2016-03-21T19:51:51.000Z</time>
      </trkpt>
      <trkpt lat="48.81681" lon="2.36014">
        <ele>61.200000762939</ele>
        <time>2016-03-21T19:51:54.000Z</time>
      </trkpt>
      <trkpt lat="48.81661" lon="2.36015">
        <ele>62</ele>
        <time>2016-03-21T19:51:59.000Z</time>
      </trkpt>
      <trkpt lat="48.81647" lon="2.36011">
        <ele>62.599998474121</ele>
        <time>2016-03-21T19:52:03.000Z</time>
      </trkpt>
      <trkpt lat="48.81629" lon="2.36007">
        <ele>63.200000762939</ele>
        <time>2016-03-21T19:52:08.000Z</time>
      </trkpt>
      <trkpt lat="48.81622" lon="2.36007">
        <ele>63.400001525879</ele>
        <time>2016-03-21T19:52:10.000Z</time>
      </trkpt>
      <trkpt lat="48.81608" lon="2.36009">
        <ele>63.799999237061</ele>
        <time>2016-03-21T19:52:15.000Z</time>
      </trkpt>
      <trkpt lat="48.81606" lon="2.36009">
        <ele>63.799999237061</ele>
        <time>2016-03-21T19:52:16.000Z</time>
      </trkpt>
      <trkpt lat="48.81598" lon="2.3601">
        <ele>64</ele>
        <time>2016-03-21T19:52:22.000Z</time>
      </trkpt>
      <trkpt lat="48.81597" lon="2.3601">
        <ele>64</ele>
        <time>2016-03-21T19:52:24.000Z</time>
      </trkpt>
      <trkpt lat="48.81581" lon="2.3602">
        <ele>64.400001525879</ele>
        <time>2016-03-21T19:52:39.000Z</time>
      </trkpt>
      <trkpt lat="48.81565" lon="2.36037">
        <ele>64.400001525879</ele>
        <time>2016-03-21T19:52:45.000Z</time>
      </trkpt>
      <trkpt lat="48.81547" lon="2.36042">
        <ele>65</ele>
        <time>2016-03-21T19:52:51.000Z</time>
      </trkpt>
      <trkpt lat="48.81527" lon="2.36049">
        <ele>65.800003051758</ele>
        <time>2016-03-21T19:52:58.000Z</time>
      </trkpt>
      <trkpt lat="48.81509" lon="2.36063">
        <ele>65.800003051758</ele>
        <time>2016-03-21T19:53:05.000Z</time>
      </trkpt>
      <trkpt lat="48.8149" lon="2.36061">
        <ele>65.400001525879</ele>
        <time>2016-03-21T19:53:12.000Z</time>
      </trkpt>
      <trkpt lat="48.81471" lon="2.36071">
        <ele>65</ele>
        <time>2016-03-21T19:53:19.000Z</time>
      </trkpt>
      <trkpt lat="48.81454" lon="2.36082">
        <ele>64.400001525879</ele>
        <time>2016-03-21T19:53:25.000Z</time>
      </trkpt>
      <trkpt lat="48.81436" lon="2.36091">
        <ele>64.199996948242</ele>
        <time>2016-03-21T19:53:30.000Z</time>
      </trkpt>
      <trkpt lat="48.81415" lon="2.36091">
        <ele>65.400001525879</ele>
        <time>2016-03-21T19:53:35.000Z</time>
      </trkpt>
      <trkpt lat="48.81394" lon="2.36099">
        <ele>66.800003051758</ele>
        <time>2016-03-21T19:53:40.000Z</time>
      </trkpt>
      <trkpt lat="48.81373" lon="2.36108">
        <ele>67.599998474121</ele>
        <time>2016-03-21T19:53:44.000Z</time>
      </trkpt>
      <trkpt lat="48.81354" lon="2.36113">
        <ele>67.800003051758</ele>
        <time>2016-03-21T19:53:48.000Z</time>
      </trkpt>
      <trkpt lat="48.81333" lon="2.36122">
        <ele>67.199996948242</ele>
        <time>2016-03-21T19:53:52.000Z</time>
      </trkpt>
      <trkpt lat="48.81313" lon="2.3613">
        <ele>66.800003051758</ele>
        <time>2016-03-21T19:53:56.000Z</time>
      </trkpt>
      <trkpt lat="48.81295" lon="2.36134">
        <ele>66.800003051758</ele>
        <time>2016-03-21T19:54:01.000Z</time>
      </trkpt>
      <trkpt lat="48.81293" lon="2.36135">
        <ele>66.800003051758</ele>
        <time>2016-03-21T19:54:02.000Z</time>
      </trkpt>
      <trkpt lat="48.81289" lon="2.36136">
        <ele>66.599998474121</ele>
        <time>2016-03-21T19:54:05.000Z</time>
      </trkpt>
      <trkpt lat="48.81287" lon="2.36135">
        <ele>66.800003051758</ele>
        <time>2016-03-21T19:54:08.000Z</time>
      </trkpt>
      <trkpt lat="48.81268" lon="2.36142">
        <ele>66.599998474121</ele>
        <time>2016-03-21T19:54:25.000Z</time>
      </trkpt>
      <trkpt lat="48.81249" lon="2.36146">
        <ele>66.800003051758</ele>
        <time>2016-03-21T19:54:31.000Z</time>
      </trkpt>
      <trkpt lat="48.81229" lon="2.36149">
        <ele>67.199996948242</ele>
        <time>2016-03-21T19:54:38.000Z</time>
      </trkpt>
      <trkpt lat="48.81205" lon="2.36154">
        <ele>67.800003051758</ele>
        <time>2016-03-21T19:54:44.000Z</time>
      </trkpt>
      <trkpt lat="48.81187" lon="2.36162">
        <ele>68</ele>
        <time>2016-03-21T19:54:47.000Z</time>
      </trkpt>
      <trkpt lat="48.81166" lon="2.36169">
        <ele>68.400001525879</ele>
        <time>2016-03-21T19:54:51.000Z</time>
      </trkpt>
      <trkpt lat="48.81149" lon="2.36177">
        <ele>68.800003051758</ele>
        <time>2016-03-21T19:54:54.000Z</time>
      </trkpt>
      <trkpt lat="48.81127" lon="2.36182">
        <ele>69.199996948242</ele>
        <time>2016-03-21T19:54:58.000Z</time>
      </trkpt>
      <trkpt lat="48.81104" lon="2.36187">
        <ele>69.599998474121</ele>
        <time>2016-03-21T19:55:02.000Z</time>
      </trkpt>
      <trkpt lat="48.81083" lon="2.36195">
        <ele>70.199996948242</ele>
        <time>2016-03-21T19:55:06.000Z</time>
      </trkpt>
      <trkpt lat="48.81062" lon="2.36203">
        <ele>71</ele>
        <time>2016-03-21T19:55:10.000Z</time>
      </trkpt>
      <trkpt lat="48.81045" lon="2.36209">
        <ele>70.400001525879</ele>
        <time>2016-03-21T19:55:13.000Z</time>
      </trkpt>
      <trkpt lat="48.81024" lon="2.36209">
        <ele>70</ele>
        <time>2016-03-21T19:55:17.000Z</time>
      </trkpt>
      <trkpt lat="48.81003" lon="2.36217">
        <ele>70.599998474121</ele>
        <time>2016-03-21T19:55:21.000Z</time>
      </trkpt>
      <trkpt lat="48.80984" lon="2.36221">
        <ele>71.199996948242</ele>
        <time>2016-03-21T19:55:25.000Z</time>
      </trkpt>
      <trkpt lat="48.80963" lon="2.36222">
        <ele>71.599998474121</ele>
        <time>2016-03-21T19:55:30.000Z</time>
      </trkpt>
      <trkpt lat="48.80961" lon="2.36222">
        <ele>71.800003051758</ele>
        <time>2016-03-21T19:55:31.000Z</time>
      </trkpt>
      <trkpt lat="48.80959" lon="2.3624">
        <ele>70.800003051758</ele>
        <time>2016-03-21T19:55:48.000Z</time>
      </trkpt>
      <trkpt lat="48.80965" lon="2.36255">
        <ele>70</ele>
        <time>2016-03-21T19:55:57.000Z</time>
      </trkpt>
      <trkpt lat="48.80974" lon="2.36262">
        <ele>69.599998474121</ele>
        <time>2016-03-21T19:56:08.000Z</time>
      </trkpt>
      <trkpt lat="48.80992" lon="2.36276">
        <ele>68.800003051758</ele>
        <time>2016-03-21T19:56:15.000Z</time>
      </trkpt>
      <trkpt lat="48.81006" lon="2.36293">
        <ele>67.800003051758</ele>
        <time>2016-03-21T19:56:20.000Z</time>
      </trkpt>
      <trkpt lat="48.81023" lon="2.36311">
        <ele>66.800003051758</ele>
        <time>2016-03-21T19:56:24.000Z</time>
      </trkpt>
      <trkpt lat="48.8104" lon="2.36329">
        <ele>66.599998474121</ele>
        <time>2016-03-21T19:56:28.000Z</time>
      </trkpt>
      <trkpt lat="48.81059" lon="2.36353">
        <ele>65.599998474121</ele>
        <time>2016-03-21T19:56:32.000Z</time>
      </trkpt>
      <trkpt lat="48.81077" lon="2.36377">
        <ele>64.599998474121</ele>
        <time>2016-03-21T19:56:36.000Z</time>
      </trkpt>
      <trkpt lat="48.81092" lon="2.364">
        <ele>63.599998474121</ele>
        <time>2016-03-21T19:56:40.000Z</time>
      </trkpt>
      <trkpt lat="48.81109" lon="2.36421">
        <ele>62.799999237061</ele>
        <time>2016-03-21T19:56:44.000Z</time>
      </trkpt>
      <trkpt lat="48.81117" lon="2.36429">
        <ele>62.400001525879</ele>
        <time>2016-03-21T19:56:46.000Z</time>
      </trkpt>
      <trkpt lat="48.81133" lon="2.36448">
        <ele>61.799999237061</ele>
        <time>2016-03-21T19:56:50.000Z</time>
      </trkpt>
      <trkpt lat="48.81136" lon="2.36453">
        <ele>61.799999237061</ele>
        <time>2016-03-21T19:56:51.000Z</time>
      </trkpt>
      <trkpt lat="48.81143" lon="2.36466">
        <ele>61.400001525879</ele>
        <time>2016-03-21T19:56:53.000Z</time>
      </trkpt>
      <trkpt lat="48.81155" lon="2.36496">
        <ele>60.400001525879</ele>
        <time>2016-03-21T19:56:57.000Z</time>
      </trkpt>
      <trkpt lat="48.8116" lon="2.36514">
        <ele>60.599998474121</ele>
        <time>2016-03-21T19:56:59.000Z</time>
      </trkpt>
      <trkpt lat="48.81167" lon="2.3654">
        <ele>60.799999237061</ele>
        <time>2016-03-21T19:57:02.000Z</time>
      </trkpt>
      <trkpt lat="48.81176" lon="2.36567">
        <ele>61</ele>
        <time>2016-03-21T19:57:05.000Z</time>
      </trkpt>
      <trkpt lat="48.81183" lon="2.36595">
        <ele>61.200000762939</ele>
        <time>2016-03-21T19:57:08.000Z</time>
      </trkpt>
      <trkpt lat="48.81191" lon="2.36622">
        <ele>61.400001525879</ele>
        <time>2016-03-21T19:57:11.000Z</time>
      </trkpt>
      <trkpt lat="48.81198" lon="2.36651">
        <ele>61.599998474121</ele>
        <time>2016-03-21T19:57:14.000Z</time>
      </trkpt>
      <trkpt lat="48.81207" lon="2.36679">
        <ele>61.799999237061</ele>
        <time>2016-03-21T19:57:17.000Z</time>
      </trkpt>
      <trkpt lat="48.81214" lon="2.36707">
        <ele>62.400001525879</ele>
        <time>2016-03-21T19:57:20.000Z</time>
      </trkpt>
      <trkpt lat="48.81222" lon="2.36734">
        <ele>63</ele>
        <time>2016-03-21T19:57:23.000Z</time>
      </trkpt>
      <trkpt lat="48.81229" lon="2.36759">
        <ele>63.400001525879</ele>
        <time>2016-03-21T19:57:26.000Z</time>
      </trkpt>
      <trkpt lat="48.81239" lon="2.36793">
        <ele>64.199996948242</ele>
        <time>2016-03-21T19:57:30.000Z</time>
      </trkpt>
      <trkpt lat="48.81245" lon="2.36815">
        <ele>64.400001525879</ele>
        <time>2016-03-21T19:57:33.000Z</time>
      </trkpt>
      <trkpt lat="48.81253" lon="2.36843">
        <ele>64.400001525879</ele>
        <time>2016-03-21T19:57:37.000Z</time>
      </trkpt>
      <trkpt lat="48.8126" lon="2.36871">
        <ele>64.599998474121</ele>
        <time>2016-03-21T19:57:41.000Z</time>
      </trkpt>
      <trkpt lat="48.81267" lon="2.36898">
        <ele>64.800003051758</ele>
        <time>2016-03-21T19:57:45.000Z</time>
      </trkpt>
      <trkpt lat="48.81275" lon="2.36929">
        <ele>65</ele>
        <time>2016-03-21T19:57:50.000Z</time>
      </trkpt>
      <trkpt lat="48.81282" lon="2.36957">
        <ele>64.800003051758</ele>
        <time>2016-03-21T19:57:55.000Z</time>
      </trkpt>
      <trkpt lat="48.81285" lon="2.36967">
        <ele>64.599998474121</ele>
        <time>2016-03-21T19:57:57.000Z</time>
      </trkpt>
      <trkpt lat="48.81288" lon="2.36981">
        <ele>64.599998474121</ele>
        <time>2016-03-21T19:58:00.000Z</time>
      </trkpt>
      <trkpt lat="48.81291" lon="2.36992">
        <ele>64.599998474121</ele>
        <time>2016-03-21T19:58:03.000Z</time>
      </trkpt>
      <trkpt lat="48.81292" lon="2.37">
        <ele>64.599998474121</ele>
        <time>2016-03-21T19:58:06.000Z</time>
      </trkpt>
      <trkpt lat="48.81295" lon="2.37014">
        <ele>64.400001525879</ele>
        <time>2016-03-21T19:58:09.000Z</time>
      </trkpt>
      <trkpt lat="48.81292" lon="2.37039">
        <ele>64</ele>
        <time>2016-03-21T19:58:41.000Z</time>
      </trkpt>
      <trkpt lat="48.81301" lon="2.37067">
        <ele>63.400001525879</ele>
        <time>2016-03-21T19:58:47.000Z</time>
      </trkpt>
      <trkpt lat="48.8131" lon="2.37091">
        <ele>63</ele>
        <time>2016-03-21T19:58:51.000Z</time>
      </trkpt>
      <trkpt lat="48.81319" lon="2.37115">
        <ele>63</ele>
        <time>2016-03-21T19:58:54.000Z</time>
      </trkpt>
      <trkpt lat="48.81327" lon="2.37129">
        <ele>63</ele>
        <time>2016-03-21T19:58:56.000Z</time>
      </trkpt>
      <trkpt lat="48.81339" lon="2.3715">
        <ele>63</ele>
        <time>2016-03-21T19:58:59.000Z</time>
      </trkpt>
      <trkpt lat="48.81349" lon="2.37174">
        <ele>63.200000762939</ele>
        <time>2016-03-21T19:59:02.000Z</time>
      </trkpt>
      <trkpt lat="48.81359" lon="2.37199">
        <ele>63.799999237061</ele>
        <time>2016-03-21T19:59:05.000Z</time>
      </trkpt>
      <trkpt lat="48.8137" lon="2.37228">
        <ele>64.400001525879</ele>
        <time>2016-03-21T19:59:08.000Z</time>
      </trkpt>
      <trkpt lat="48.81379" lon="2.37246">
        <ele>64.599998474121</ele>
        <time>2016-03-21T19:59:10.000Z</time>
      </trkpt>
      <trkpt lat="48.81392" lon="2.37275">
        <ele>64.800003051758</ele>
        <time>2016-03-21T19:59:13.000Z</time>
      </trkpt>
      <trkpt lat="48.81405" lon="2.37304">
        <ele>65</ele>
        <time>2016-03-21T19:59:16.000Z</time>
      </trkpt>
      <trkpt lat="48.81418" lon="2.37333">
        <ele>65</ele>
        <time>2016-03-21T19:59:19.000Z</time>
      </trkpt>
      <trkpt lat="48.81431" lon="2.37361">
        <ele>65</ele>
        <time>2016-03-21T19:59:22.000Z</time>
      </trkpt>
      <trkpt lat="48.81444" lon="2.37387">
        <ele>64.800003051758</ele>
        <time>2016-03-21T19:59:25.000Z</time>
      </trkpt>
      <trkpt lat="48.81457" lon="2.37415">
        <ele>64.400001525879</ele>
        <time>2016-03-21T19:59:29.000Z</time>
      </trkpt>
      <trkpt lat="48.81471" lon="2.37444">
        <ele>63.799999237061</ele>
        <time>2016-03-21T19:59:33.000Z</time>
      </trkpt>
      <trkpt lat="48.81483" lon="2.37472">
        <ele>63.400001525879</ele>
        <time>2016-03-21T19:59:37.000Z</time>
      </trkpt>
      <trkpt lat="48.81497" lon="2.37499">
        <ele>62.799999237061</ele>
        <time>2016-03-21T19:59:41.000Z</time>
      </trkpt>
      <trkpt lat="48.81507" lon="2.37518">
        <ele>62.400001525879</ele>
        <time>2016-03-21T19:59:44.000Z</time>
      </trkpt>
      <trkpt lat="48.81519" lon="2.37543">
        <ele>61.599998474121</ele>
        <time>2016-03-21T19:59:48.000Z</time>
      </trkpt>
      <trkpt lat="48.81521" lon="2.37548">
        <ele>61.400001525879</ele>
        <time>2016-03-21T19:59:49.000Z</time>
      </trkpt>
      <trkpt lat="48.81523" lon="2.37559">
        <ele>61.200000762939</ele>
        <time>2016-03-21T19:59:53.000Z</time>
      </trkpt>
      <trkpt lat="48.81524" lon="2.37571">
        <ele>61</ele>
        <time>2016-03-21T20:00:36.000Z</time>
      </trkpt>
      <trkpt lat="48.81536" lon="2.37593">
        <ele>60.599998474121</ele>
        <time>2016-03-21T20:00:42.000Z</time>
      </trkpt>
      <trkpt lat="48.81547" lon="2.37615">
        <ele>60.200000762939</ele>
        <time>2016-03-21T20:00:46.000Z</time>
      </trkpt>
      <trkpt lat="48.81558" lon="2.37637">
        <ele>59.799999237061</ele>
        <time>2016-03-21T20:00:50.000Z</time>
      </trkpt>
      <trkpt lat="48.8157" lon="2.37662">
        <ele>59.400001525879</ele>
        <time>2016-03-21T20:00:55.000Z</time>
      </trkpt>
      <trkpt lat="48.81581" lon="2.37688">
        <ele>58.400001525879</ele>
        <time>2016-03-21T20:01:00.000Z</time>
      </trkpt>
      <trkpt lat="48.81591" lon="2.37712">
        <ele>57.400001525879</ele>
        <time>2016-03-21T20:01:06.000Z</time>
      </trkpt>
      <trkpt lat="48.8159" lon="2.37718">
        <ele>57.200000762939</ele>
        <time>2016-03-21T20:01:08.000Z</time>
      </trkpt>
      <trkpt lat="48.81591" lon="2.37741">
        <ele>56.599998474121</ele>
        <time>2016-03-21T20:01:35.000Z</time>
      </trkpt>
      <trkpt lat="48.81608" lon="2.37755">
        <ele>55.400001525879</ele>
        <time>2016-03-21T20:01:54.000Z</time>
      </trkpt>
      <trkpt lat="48.8161" lon="2.37757">
        <ele>55.200000762939</ele>
        <time>2016-03-21T20:01:55.000Z</time>
      </trkpt>
      <trkpt lat="48.81612" lon="2.37759">
        <ele>55</ele>
        <time>2016-03-21T20:01:57.000Z</time>
      </trkpt>
      <trkpt lat="48.81625" lon="2.37762">
        <ele>53.799999237061</ele>
        <time>2016-03-21T20:02:07.000Z</time>
      </trkpt>
      <trkpt lat="48.81625" lon="2.37761">
        <ele>53.799999237061</ele>
        <time>2016-03-21T20:02:08.000Z</time>
      </trkpt>
      <trkpt lat="48.81632" lon="2.37755">
        <ele>54.400001525879</ele>
        <time>2016-03-21T20:02:15.000Z</time>
      </trkpt>
      <trkpt lat="48.8164" lon="2.3775">
        <ele>54.599998474121</ele>
        <time>2016-03-21T20:02:25.000Z</time>
      </trkpt>
      <trkpt lat="48.81651" lon="2.37752">
        <ele>54</ele>
        <time>2016-03-21T20:02:41.000Z</time>
      </trkpt>
      <trkpt lat="48.81656" lon="2.37763">
        <ele>52.599998474121</ele>
        <time>2016-03-21T20:02:53.000Z</time>
      </trkpt>
      <trkpt lat="48.8167" lon="2.37763">
        <ele>52</ele>
        <time>2016-03-21T20:03:32.000Z</time>
      </trkpt>
      <trkpt lat="48.81681" lon="2.37773">
        <ele>50.599998474121</ele>
        <time>2016-03-21T20:03:50.000Z</time>
      </trkpt>
      <trkpt lat="48.81633" lon="2.37814">
        <ele>50.599998474121</ele>
        <time>2016-03-21T20:04:02.000Z</time>
      </trkpt>
      <trkpt lat="48.81617" lon="2.37826">
        <ele>52</ele>
        <time>2016-03-21T20:04:08.000Z</time>
      </trkpt>
      <trkpt lat="48.81614" lon="2.37828">
        <ele>52.200000762939</ele>
        <time>2016-03-21T20:04:10.000Z</time>
      </trkpt>
      <trkpt lat="48.81599" lon="2.37824">
        <ele>53.400001525879</ele>
        <time>2016-03-21T20:04:18.000Z</time>
      </trkpt>
      <trkpt lat="48.8158" lon="2.37829">
        <ele>53.400001525879</ele>
        <time>2016-03-21T20:04:26.000Z</time>
      </trkpt>
      <trkpt lat="48.81565" lon="2.37846">
        <ele>51.599998474121</ele>
        <time>2016-03-21T20:04:32.000Z</time>
      </trkpt>
      <trkpt lat="48.81549" lon="2.37863">
        <ele>49.799999237061</ele>
        <time>2016-03-21T20:04:36.000Z</time>
      </trkpt>
      <trkpt lat="48.81533" lon="2.37876">
        <ele>50</ele>
        <time>2016-03-21T20:04:40.000Z</time>
      </trkpt>
      <trkpt lat="48.81518" lon="2.37899">
        <ele>49.200000762939</ele>
        <time>2016-03-21T20:04:45.000Z</time>
      </trkpt>
      <trkpt lat="48.81502" lon="2.37921">
        <ele>49.200000762939</ele>
        <time>2016-03-21T20:04:50.000Z</time>
      </trkpt>
      <trkpt lat="48.81484" lon="2.37941">
        <ele>49</ele>
        <time>2016-03-21T20:04:55.000Z</time>
      </trkpt>
      <trkpt lat="48.81471" lon="2.37966">
        <ele>47.799999237061</ele>
        <time>2016-03-21T20:05:00.000Z</time>
      </trkpt>
      <trkpt lat="48.81457" lon="2.37988">
        <ele>46.599998474121</ele>
        <time>2016-03-21T20:05:06.000Z</time>
      </trkpt>
      <trkpt lat="48.81442" lon="2.38006">
        <ele>46.200000762939</ele>
        <time>2016-03-21T20:05:12.000Z</time>
      </trkpt>
      <trkpt lat="48.81426" lon="2.38022">
        <ele>45.400001525879</ele>
        <time>2016-03-21T20:05:17.000Z</time>
      </trkpt>
      <trkpt lat="48.81408" lon="2.38035">
        <ele>45.200000762939</ele>
        <time>2016-03-21T20:05:22.000Z</time>
      </trkpt>
      <trkpt lat="48.81389" lon="2.38046">
        <ele>45.400001525879</ele>
        <time>2016-03-21T20:05:29.000Z</time>
      </trkpt>
      <trkpt lat="48.81374" lon="2.3806">
        <ele>45</ele>
        <time>2016-03-21T20:05:35.000Z</time>
      </trkpt>
      <trkpt lat="48.81359" lon="2.3808">
        <ele>43.799999237061</ele>
        <time>2016-03-21T20:05:41.000Z</time>
      </trkpt>
      <trkpt lat="48.81345" lon="2.38097">
        <ele>43.799999237061</ele>
        <time>2016-03-21T20:05:46.000Z</time>
      </trkpt>
      <trkpt lat="48.81331" lon="2.38114">
        <ele>43.599998474121</ele>
        <time>2016-03-21T20:05:53.000Z</time>
      </trkpt>
      <trkpt lat="48.8132" lon="2.38127">
        <ele>43.799999237061</ele>
        <time>2016-03-21T20:06:01.000Z</time>
      </trkpt>
      <trkpt lat="48.81316" lon="2.38134">
        <ele>43.799999237061</ele>
        <time>2016-03-21T20:06:06.000Z</time>
      </trkpt>
      <trkpt lat="48.81302" lon="2.38146">
        <ele>45</ele>
        <time>2016-03-21T20:07:00.000Z</time>
      </trkpt>
      <trkpt lat="48.81314" lon="2.38169">
        <ele>42.799999237061</ele>
        <time>2016-03-21T20:07:20.000Z</time>
      </trkpt>
      <trkpt lat="48.81328" lon="2.38193">
        <ele>40.599998474121</ele>
        <time>2016-03-21T20:07:24.000Z</time>
      </trkpt>
      <trkpt lat="48.81342" lon="2.38222">
        <ele>38.200000762939</ele>
        <time>2016-03-21T20:07:28.000Z</time>
      </trkpt>
      <trkpt lat="48.81354" lon="2.38248">
        <ele>36</ele>
        <time>2016-03-21T20:07:32.000Z</time>
      </trkpt>
      <trkpt lat="48.81367" lon="2.38273">
        <ele>36.400001525879</ele>
        <time>2016-03-21T20:07:37.000Z</time>
      </trkpt>
      <trkpt lat="48.81367" lon="2.38275">
        <ele>36.400001525879</ele>
        <time>2016-03-21T20:07:38.000Z</time>
      </trkpt>
      <trkpt lat="48.81353" lon="2.38292">
        <ele>37.200000762939</ele>
        <time>2016-03-21T20:07:45.000Z</time>
      </trkpt>
      <trkpt lat="48.81351" lon="2.38294">
        <ele>37.200000762939</ele>
        <time>2016-03-21T20:07:46.000Z</time>
      </trkpt>
      <trkpt lat="48.81334" lon="2.38315">
        <ele>38.200000762939</ele>
        <time>2016-03-21T20:07:52.000Z</time>
      </trkpt>
      <trkpt lat="48.81316" lon="2.38338">
        <ele>37.599998474121</ele>
        <time>2016-03-21T20:07:56.000Z</time>
      </trkpt>
      <trkpt lat="48.81299" lon="2.3835">
        <ele>37.400001525879</ele>
        <time>2016-03-21T20:08:00.000Z</time>
      </trkpt>
      <trkpt lat="48.81281" lon="2.38362">
        <ele>37.599998474121</ele>
        <time>2016-03-21T20:08:05.000Z</time>
      </trkpt>
      <trkpt lat="48.81265" lon="2.38374">
        <ele>38.200000762939</ele>
        <time>2016-03-21T20:08:09.000Z</time>
      </trkpt>
      <trkpt lat="48.81248" lon="2.38394">
        <ele>39</ele>
        <time>2016-03-21T20:08:12.000Z</time>
      </trkpt>
      <trkpt lat="48.81229" lon="2.38419">
        <ele>39</ele>
        <time>2016-03-21T20:08:15.000Z</time>
      </trkpt>
      <trkpt lat="48.81213" lon="2.38436">
        <ele>38.799999237061</ele>
        <time>2016-03-21T20:08:18.000Z</time>
      </trkpt>
      <trkpt lat="48.81199" lon="2.38455">
        <ele>39.599998474121</ele>
        <time>2016-03-21T20:08:21.000Z</time>
      </trkpt>
      <trkpt lat="48.8119" lon="2.38466">
        <ele>40.200000762939</ele>
        <time>2016-03-21T20:08:24.000Z</time>
      </trkpt>
      <trkpt lat="48.81185" lon="2.3847">
        <ele>40.400001525879</ele>
        <time>2016-03-21T20:08:28.000Z</time>
      </trkpt>
      <trkpt lat="48.81179" lon="2.38474">
        <ele>40.799999237061</ele>
        <time>2016-03-21T20:08:46.000Z</time>
      </trkpt>
      <trkpt lat="48.81162" lon="2.38487">
        <ele>41.599998474121</ele>
        <time>2016-03-21T20:08:56.000Z</time>
      </trkpt>
      <trkpt lat="48.8114" lon="2.38484">
        <ele>42.400001525879</ele>
        <time>2016-03-21T20:09:01.000Z</time>
      </trkpt>
      <trkpt lat="48.81137" lon="2.3848">
        <ele>42.400001525879</ele>
        <time>2016-03-21T20:09:02.000Z</time>
      </trkpt>
      <trkpt lat="48.8113" lon="2.38459">
        <ele>42.200000762939</ele>
        <time>2016-03-21T20:09:06.000Z</time>
      </trkpt>
      <trkpt lat="48.81124" lon="2.38428">
        <ele>41.599998474121</ele>
        <time>2016-03-21T20:09:11.000Z</time>
      </trkpt>
      <trkpt lat="48.81123" lon="2.38423">
        <ele>41.599998474121</ele>
        <time>2016-03-21T20:09:12.000Z</time>
      </trkpt>
      <trkpt lat="48.81119" lon="2.38408">
        <ele>41.599998474121</ele>
        <time>2016-03-21T20:09:16.000Z</time>
      </trkpt>
      <trkpt lat="48.81105" lon="2.38422">
        <ele>42.200000762939</ele>
        <time>2016-03-21T20:09:26.000Z</time>
      </trkpt>
      <trkpt lat="48.8109" lon="2.38438">
        <ele>43</ele>
        <time>2016-03-21T20:09:30.000Z</time>
      </trkpt>
      <trkpt lat="48.81074" lon="2.38451">
        <ele>44</ele>
        <time>2016-03-21T20:09:34.000Z</time>
      </trkpt>
      <trkpt lat="48.81062" lon="2.38487">
        <ele>43.799999237061</ele>
        <time>2016-03-21T20:09:40.000Z</time>
      </trkpt>
      <trkpt lat="48.8105" lon="2.3851">
        <ele>43.200000762939</ele>
        <time>2016-03-21T20:09:44.000Z</time>
      </trkpt>
      <trkpt lat="48.81026" lon="2.38525">
        <ele>42.200000762939</ele>
        <time>2016-03-21T20:09:48.000Z</time>
      </trkpt>
      <trkpt lat="48.81005" lon="2.38542">
        <ele>43.400001525879</ele>
        <time>2016-03-21T20:09:52.000Z</time>
      </trkpt>
      <trkpt lat="48.80997" lon="2.3855">
        <ele>44.200000762939</ele>
        <time>2016-03-21T20:09:54.000Z</time>
      </trkpt>
      <trkpt lat="48.80982" lon="2.3857">
        <ele>44.599998474121</ele>
        <time>2016-03-21T20:09:58.000Z</time>
      </trkpt>
      <trkpt lat="48.80968" lon="2.38592">
        <ele>45</ele>
        <time>2016-03-21T20:10:02.000Z</time>
      </trkpt>
      <trkpt lat="48.80955" lon="2.38614">
        <ele>44.799999237061</ele>
        <time>2016-03-21T20:10:06.000Z</time>
      </trkpt>
      <trkpt lat="48.8094" lon="2.38633">
        <ele>43.599998474121</ele>
        <time>2016-03-21T20:10:10.000Z</time>
      </trkpt>
      <trkpt lat="48.80924" lon="2.38652">
        <ele>43</ele>
        <time>2016-03-21T20:10:14.000Z</time>
      </trkpt>
      <trkpt lat="48.80909" lon="2.38669">
        <ele>44.799999237061</ele>
        <time>2016-03-21T20:10:18.000Z</time>
      </trkpt>
      <trkpt lat="48.80893" lon="2.38688">
        <ele>45.799999237061</ele>
        <time>2016-03-21T20:10:22.000Z</time>
      </trkpt>
      <trkpt lat="48.80891" lon="2.38694">
        <ele>45.799999237061</ele>
        <time>2016-03-21T20:10:23.000Z</time>
      </trkpt>
      <trkpt lat="48.80878" lon="2.38719">
        <ele>46</ele>
        <time>2016-03-21T20:10:28.000Z</time>
      </trkpt>
      <trkpt lat="48.8087" lon="2.38732">
        <ele>46.200000762939</ele>
        <time>2016-03-21T20:10:31.000Z</time>
      </trkpt>
      <trkpt lat="48.80858" lon="2.38757">
        <ele>46.200000762939</ele>
        <time>2016-03-21T20:10:36.000Z</time>
      </trkpt>
      <trkpt lat="48.80852" lon="2.38766">
        <ele>45.599998474121</ele>
        <time>2016-03-21T20:10:38.000Z</time>
      </trkpt>
      <trkpt lat="48.8084" lon="2.38791">
        <ele>44.200000762939</ele>
        <time>2016-03-21T20:10:43.000Z</time>
      </trkpt>
      <trkpt lat="48.80824" lon="2.3881">
        <ele>44</ele>
        <time>2016-03-21T20:10:47.000Z</time>
      </trkpt>
      <trkpt lat="48.80814" lon="2.38825">
        <ele>44</ele>
        <time>2016-03-21T20:10:50.000Z</time>
      </trkpt>
      <trkpt lat="48.808" lon="2.38852">
        <ele>44.400001525879</ele>
        <time>2016-03-21T20:10:55.000Z</time>
      </trkpt>
      <trkpt lat="48.80786" lon="2.38875">
        <ele>44</ele>
        <time>2016-03-21T20:11:00.000Z</time>
      </trkpt>
      <trkpt lat="48.80782" lon="2.38883">
        <ele>43.799999237061</ele>
        <time>2016-03-21T20:11:02.000Z</time>
      </trkpt>
      <trkpt lat="48.80776" lon="2.38888">
        <ele>43.599998474121</ele>
        <time>2016-03-21T20:11:05.000Z</time>
      </trkpt>
      <trkpt lat="48.80762" lon="2.38908">
        <ele>43.200000762939</ele>
        <time>2016-03-21T20:11:20.000Z</time>
      </trkpt>
      <trkpt lat="48.80744" lon="2.38926">
        <ele>43.599998474121</ele>
        <time>2016-03-21T20:11:27.000Z</time>
      </trkpt>
      <trkpt lat="48.80729" lon="2.38943">
        <ele>43.799999237061</ele>
        <time>2016-03-21T20:11:33.000Z</time>
      </trkpt>
      <trkpt lat="48.80714" lon="2.38959">
        <ele>43.799999237061</ele>
        <time>2016-03-21T20:11:38.000Z</time>
      </trkpt>
      <trkpt lat="48.807" lon="2.38977">
        <ele>43.599998474121</ele>
        <time>2016-03-21T20:11:43.000Z</time>
      </trkpt>
      <trkpt lat="48.80683" lon="2.38992">
        <ele>44</ele>
        <time>2016-03-21T20:11:48.000Z</time>
      </trkpt>
      <trkpt lat="48.80667" lon="2.39006">
        <ele>44.799999237061</ele>
        <time>2016-03-21T20:11:53.000Z</time>
      </trkpt>
      <trkpt lat="48.80654" lon="2.39034">
        <ele>45</ele>
        <time>2016-03-21T20:11:58.000Z</time>
      </trkpt>
      <trkpt lat="48.80638" lon="2.39052">
        <ele>45.400001525879</ele>
        <time>2016-03-21T20:12:04.000Z</time>
      </trkpt>
      <trkpt lat="48.80623" lon="2.39072">
        <ele>45.200000762939</ele>
        <time>2016-03-21T20:12:09.000Z</time>
      </trkpt>
      <trkpt lat="48.8061" lon="2.3909">
        <ele>45.400001525879</ele>
        <time>2016-03-21T20:12:14.000Z</time>
      </trkpt>
      <trkpt lat="48.80597" lon="2.39111">
        <ele>46.799999237061</ele>
        <time>2016-03-21T20:12:20.000Z</time>
      </trkpt>
      <trkpt lat="48.80583" lon="2.39133">
        <ele>48.799999237061</ele>
        <time>2016-03-21T20:12:26.000Z</time>
      </trkpt>
      <trkpt lat="48.80565" lon="2.39141">
        <ele>51.400001525879</ele>
        <time>2016-03-21T20:12:32.000Z</time>
      </trkpt>
      <trkpt lat="48.80547" lon="2.39149">
        <ele>53.799999237061</ele>
        <time>2016-03-21T20:12:38.000Z</time>
      </trkpt>
      <trkpt lat="48.80533" lon="2.3917">
        <ele>55</ele>
        <time>2016-03-21T20:12:44.000Z</time>
      </trkpt>
      <trkpt lat="48.8052" lon="2.3919">
        <ele>54.599998474121</ele>
        <time>2016-03-21T20:12:50.000Z</time>
      </trkpt>
      <trkpt lat="48.80508" lon="2.39212">
        <ele>52.799999237061</ele>
        <time>2016-03-21T20:12:56.000Z</time>
      </trkpt>
      <trkpt lat="48.80496" lon="2.39233">
        <ele>51.599998474121</ele>
        <time>2016-03-21T20:13:02.000Z</time>
      </trkpt>
      <trkpt lat="48.80486" lon="2.39256">
        <ele>51.400001525879</ele>
        <time>2016-03-21T20:13:08.000Z</time>
      </trkpt>
      <trkpt lat="48.80474" lon="2.39282">
        <ele>50.599998474121</ele>
        <time>2016-03-21T20:13:15.000Z</time>
      </trkpt>
      <trkpt lat="48.80464" lon="2.39307">
        <ele>50</ele>
        <time>2016-03-21T20:13:22.000Z</time>
      </trkpt>
      <trkpt lat="48.80452" lon="2.39328">
        <ele>50</ele>
        <time>2016-03-21T20:13:28.000Z</time>
      </trkpt>
      <trkpt lat="48.8044" lon="2.39351">
        <ele>50</ele>
        <time>2016-03-21T20:13:34.000Z</time>
      </trkpt>
      <trkpt lat="48.80425" lon="2.39373">
        <ele>49</ele>
        <time>2016-03-21T20:13:40.000Z</time>
      </trkpt>
      <trkpt lat="48.80412" lon="2.39393">
        <ele>48</ele>
        <time>2016-03-21T20:13:45.000Z</time>
      </trkpt>
      <trkpt lat="48.80401" lon="2.39414">
        <ele>47.400001525879</ele>
        <time>2016-03-21T20:13:50.000Z</time>
      </trkpt>
      <trkpt lat="48.80387" lon="2.39438">
        <ele>46.200000762939</ele>
        <time>2016-03-21T20:13:55.000Z</time>
      </trkpt>
      <trkpt lat="48.80375" lon="2.39459">
        <ele>45.400001525879</ele>
        <time>2016-03-21T20:14:00.000Z</time>
      </trkpt>
      <trkpt lat="48.80361" lon="2.39481">
        <ele>44.599998474121</ele>
        <time>2016-03-21T20:14:06.000Z</time>
      </trkpt>
      <trkpt lat="48.80349" lon="2.39506">
        <ele>43.799999237061</ele>
        <time>2016-03-21T20:14:11.000Z</time>
      </trkpt>
      <trkpt lat="48.80335" lon="2.3953">
        <ele>43</ele>
        <time>2016-03-21T20:14:16.000Z</time>
      </trkpt>
      <trkpt lat="48.80324" lon="2.39552">
        <ele>42.200000762939</ele>
        <time>2016-03-21T20:14:20.000Z</time>
      </trkpt>
      <trkpt lat="48.8031" lon="2.39578">
        <ele>40.200000762939</ele>
        <time>2016-03-21T20:14:25.000Z</time>
      </trkpt>
      <trkpt lat="48.80296" lon="2.39602">
        <ele>39.799999237061</ele>
        <time>2016-03-21T20:14:30.000Z</time>
      </trkpt>
      <trkpt lat="48.80285" lon="2.39623">
        <ele>39.599998474121</ele>
        <time>2016-03-21T20:14:35.000Z</time>
      </trkpt>
      <trkpt lat="48.8027" lon="2.39627">
        <ele>39.400001525879</ele>
        <time>2016-03-21T20:14:41.000Z</time>
      </trkpt>
      <trkpt lat="48.80266" lon="2.39617">
        <ele>39.599998474121</ele>
        <time>2016-03-21T20:15:13.000Z</time>
      </trkpt>
      <trkpt lat="48.80253" lon="2.39634">
        <ele>39.400001525879</ele>
        <time>2016-03-21T20:15:43.000Z</time>
      </trkpt>
      <trkpt lat="48.80244" lon="2.39662">
        <ele>38.400001525879</ele>
        <time>2016-03-21T20:15:49.000Z</time>
      </trkpt>
      <trkpt lat="48.80236" lon="2.39688">
        <ele>37.400001525879</ele>
        <time>2016-03-21T20:15:54.000Z</time>
      </trkpt>
      <trkpt lat="48.80221" lon="2.39696">
        <ele>36.599998474121</ele>
        <time>2016-03-21T20:15:59.000Z</time>
      </trkpt>
      <trkpt lat="48.80202" lon="2.39683">
        <ele>36.599998474121</ele>
        <time>2016-03-21T20:16:05.000Z</time>
      </trkpt>
      <trkpt lat="48.80186" lon="2.39669">
        <ele>36.799999237061</ele>
        <time>2016-03-21T20:16:10.000Z</time>
      </trkpt>
      <trkpt lat="48.80168" lon="2.39654">
        <ele>36.200000762939</ele>
        <time>2016-03-21T20:16:15.000Z</time>
      </trkpt>
      <trkpt lat="48.8015" lon="2.39637">
        <ele>35.799999237061</ele>
        <time>2016-03-21T20:16:20.000Z</time>
      </trkpt>
      <trkpt lat="48.80132" lon="2.39618">
        <ele>35.400001525879</ele>
        <time>2016-03-21T20:16:25.000Z</time>
      </trkpt>
      <trkpt lat="48.80115" lon="2.39602">
        <ele>35</ele>
        <time>2016-03-21T20:16:30.000Z</time>
      </trkpt>
      <trkpt lat="48.80097" lon="2.39581">
        <ele>34.799999237061</ele>
        <time>2016-03-21T20:16:35.000Z</time>
      </trkpt>
      <trkpt lat="48.80081" lon="2.39562">
        <ele>34.799999237061</ele>
        <time>2016-03-21T20:16:39.000Z</time>
      </trkpt>
      <trkpt lat="48.80074" lon="2.39553">
        <ele>35</ele>
        <time>2016-03-21T20:16:41.000Z</time>
      </trkpt>
      <trkpt lat="48.80058" lon="2.39534">
        <ele>35</ele>
        <time>2016-03-21T20:16:45.000Z</time>
      </trkpt>
      <trkpt lat="48.80042" lon="2.39517">
        <ele>35.200000762939</ele>
        <time>2016-03-21T20:16:49.000Z</time>
      </trkpt>
      <trkpt lat="48.8003" lon="2.39506">
        <ele>35.200000762939</ele>
        <time>2016-03-21T20:16:52.000Z</time>
      </trkpt>
      <trkpt lat="48.80015" lon="2.39488">
        <ele>35</ele>
        <time>2016-03-21T20:16:56.000Z</time>
      </trkpt>
      <trkpt lat="48.8" lon="2.39469">
        <ele>35</ele>
        <time>2016-03-21T20:17:00.000Z</time>
      </trkpt>
      <trkpt lat="48.79991" lon="2.39453">
        <ele>35</ele>
        <time>2016-03-21T20:17:03.000Z</time>
      </trkpt>
      <trkpt lat="48.79977" lon="2.39428">
        <ele>35.400001525879</ele>
        <time>2016-03-21T20:17:08.000Z</time>
      </trkpt>
      <trkpt lat="48.79975" lon="2.39424">
        <ele>35.599998474121</ele>
        <time>2016-03-21T20:17:09.000Z</time>
      </trkpt>
      <trkpt lat="48.79967" lon="2.39406">
        <ele>35.599998474121</ele>
        <time>2016-03-21T20:17:13.000Z</time>
      </trkpt>
      <trkpt lat="48.79955" lon="2.3938">
        <ele>35.599998474121</ele>
        <time>2016-03-21T20:17:19.000Z</time>
      </trkpt>
      <trkpt lat="48.79945" lon="2.39356">
        <ele>35.599998474121</ele>
        <time>2016-03-21T20:17:24.000Z</time>
      </trkpt>
      <trkpt lat="48.79936" lon="2.39332">
        <ele>36</ele>
        <time>2016-03-21T20:17:29.000Z</time>
      </trkpt>
      <trkpt lat="48.79926" lon="2.39306">
        <ele>37.599998474121</ele>
        <time>2016-03-21T20:17:35.000Z</time>
      </trkpt>
      <trkpt lat="48.79917" lon="2.39277">
        <ele>39.200000762939</ele>
        <time>2016-03-21T20:17:41.000Z</time>
      </trkpt>
      <trkpt lat="48.79911" lon="2.39251">
        <ele>40.799999237061</ele>
        <time>2016-03-21T20:17:47.000Z</time>
      </trkpt>
      <trkpt lat="48.79906" lon="2.39234">
        <ele>41.799999237061</ele>
        <time>2016-03-21T20:17:54.000Z</time>
      </trkpt>
      <trkpt lat="48.79888" lon="2.39227">
        <ele>42.200000762939</ele>
        <time>2016-03-21T20:18:04.000Z</time>
      </trkpt>
      <trkpt lat="48.7987" lon="2.39222">
        <ele>42.599998474121</ele>
        <time>2016-03-21T20:18:11.000Z</time>
      </trkpt>
      <trkpt lat="48.7985" lon="2.39217">
        <ele>42.799999237061</ele>
        <time>2016-03-21T20:18:17.000Z</time>
      </trkpt>
      <trkpt lat="48.7983" lon="2.39213">
        <ele>42.799999237061</ele>
        <time>2016-03-21T20:18:23.000Z</time>
      </trkpt>
      <trkpt lat="48.79811" lon="2.39207">
        <ele>43</ele>
        <time>2016-03-21T20:18:29.000Z</time>
      </trkpt>
      <trkpt lat="48.7979" lon="2.3921">
        <ele>42.799999237061</ele>
        <time>2016-03-21T20:18:39.000Z</time>
      </trkpt>
      <trkpt lat="48.79771" lon="2.39207">
        <ele>43</ele>
        <time>2016-03-21T20:18:46.000Z</time>
      </trkpt>
      <trkpt lat="48.79751" lon="2.39206">
        <ele>42.200000762939</ele>
        <time>2016-03-21T20:18:53.000Z</time>
      </trkpt>
      <trkpt lat="48.79733" lon="2.39201">
        <ele>41.799999237061</ele>
        <time>2016-03-21T20:18:59.000Z</time>
      </trkpt>
      <trkpt lat="48.79718" lon="2.39194">
        <ele>41.799999237061</ele>
        <time>2016-03-21T20:19:05.000Z</time>
      </trkpt>
      <trkpt lat="48.79711" lon="2.39165">
        <ele>42.799999237061</ele>
        <time>2016-03-21T20:19:13.000Z</time>
      </trkpt>
      <trkpt lat="48.7971" lon="2.39157">
        <ele>42.799999237061</ele>
        <time>2016-03-21T20:19:15.000Z</time>
      </trkpt>
      <trkpt lat="48.79708" lon="2.3913">
        <ele>43.200000762939</ele>
        <time>2016-03-21T20:19:28.000Z</time>
      </trkpt>
      <trkpt lat="48.79708" lon="2.39127">
        <ele>43.200000762939</ele>
        <time>2016-03-21T20:19:31.000Z</time>
      </trkpt>
      <trkpt lat="48.79687" lon="2.39127">
        <ele>42.400001525879</ele>
        <time>2016-03-21T20:19:46.000Z</time>
      </trkpt>
      <trkpt lat="48.79665" lon="2.39129">
        <ele>43</ele>
        <time>2016-03-21T20:19:51.000Z</time>
      </trkpt>
      <trkpt lat="48.79645" lon="2.3913">
        <ele>43.400001525879</ele>
        <time>2016-03-21T20:19:56.000Z</time>
      </trkpt>
      <trkpt lat="48.79626" lon="2.39135">
        <ele>43.400001525879</ele>
        <time>2016-03-21T20:20:00.000Z</time>
      </trkpt>
      <trkpt lat="48.79607" lon="2.39144">
        <ele>43.400001525879</ele>
        <time>2016-03-21T20:20:04.000Z</time>
      </trkpt>
      <trkpt lat="48.79588" lon="2.39151">
        <ele>43.400001525879</ele>
        <time>2016-03-21T20:20:08.000Z</time>
      </trkpt>
      <trkpt lat="48.79564" lon="2.39157">
        <ele>43</ele>
        <time>2016-03-21T20:20:12.000Z</time>
      </trkpt>
      <trkpt lat="48.79545" lon="2.39159">
        <ele>42.599998474121</ele>
        <time>2016-03-21T20:20:15.000Z</time>
      </trkpt>
      <trkpt lat="48.79541" lon="2.3916">
        <ele>42.400001525879</ele>
        <time>2016-03-21T20:20:16.000Z</time>
      </trkpt>
      <trkpt lat="48.79521" lon="2.39172">
        <ele>41.799999237061</ele>
        <time>2016-03-21T20:20:21.000Z</time>
      </trkpt>
      <trkpt lat="48.79501" lon="2.39183">
        <ele>42.599998474121</ele>
        <time>2016-03-21T20:20:26.000Z</time>
      </trkpt>
      <trkpt lat="48.79482" lon="2.39193">
        <ele>43.599998474121</ele>
        <time>2016-03-21T20:20:30.000Z</time>
      </trkpt>
      <trkpt lat="48.79461" lon="2.39205">
        <ele>44</ele>
        <time>2016-03-21T20:20:34.000Z</time>
      </trkpt>
      <trkpt lat="48.79442" lon="2.39216">
        <ele>44.200000762939</ele>
        <time>2016-03-21T20:20:38.000Z</time>
      </trkpt>
      <trkpt lat="48.79422" lon="2.39228">
        <ele>42.799999237061</ele>
        <time>2016-03-21T20:20:42.000Z</time>
      </trkpt>
      <trkpt lat="48.79402" lon="2.3924">
        <ele>42</ele>
        <time>2016-03-21T20:20:46.000Z</time>
      </trkpt>
      <trkpt lat="48.79382" lon="2.39252">
        <ele>41</ele>
        <time>2016-03-21T20:20:50.000Z</time>
      </trkpt>
      <trkpt lat="48.7937" lon="2.3926">
        <ele>40.400001525879</ele>
        <time>2016-03-21T20:20:53.000Z</time>
      </trkpt>
      <trkpt lat="48.79351" lon="2.39268">
        <ele>39.599998474121</ele>
        <time>2016-03-21T20:20:57.000Z</time>
      </trkpt>
      <trkpt lat="48.79329" lon="2.39275">
        <ele>39</ele>
        <time>2016-03-21T20:21:01.000Z</time>
      </trkpt>
      <trkpt lat="48.79308" lon="2.39287">
        <ele>38.200000762939</ele>
        <time>2016-03-21T20:21:05.000Z</time>
      </trkpt>
      <trkpt lat="48.79298" lon="2.39287">
        <ele>38.599998474121</ele>
        <time>2016-03-21T20:21:06.000Z</time>
      </trkpt>
      <trkpt lat="48.79283" lon="2.39278">
        <ele>39.200000762939</ele>
        <time>2016-03-21T20:21:10.000Z</time>
      </trkpt>
      <trkpt lat="48.79281" lon="2.39295">
        <ele>38.599998474121</ele>
        <time>2016-03-21T20:21:32.000Z</time>
      </trkpt>
      <trkpt lat="48.79284" lon="2.39327">
        <ele>37</ele>
        <time>2016-03-21T20:21:38.000Z</time>
      </trkpt>
      <trkpt lat="48.79285" lon="2.39362">
        <ele>36.799999237061</ele>
        <time>2016-03-21T20:21:43.000Z</time>
      </trkpt>
      <trkpt lat="48.79288" lon="2.39393">
        <ele>36.400001525879</ele>
        <time>2016-03-21T20:21:47.000Z</time>
      </trkpt>
      <trkpt lat="48.79289" lon="2.39421">
        <ele>36.200000762939</ele>
        <time>2016-03-21T20:21:50.000Z</time>
      </trkpt>
      <trkpt lat="48.79291" lon="2.39449">
        <ele>36</ele>
        <time>2016-03-21T20:21:53.000Z</time>
      </trkpt>
      <trkpt lat="48.79293" lon="2.39481">
        <ele>36</ele>
        <time>2016-03-21T20:21:57.000Z</time>
      </trkpt>
      <trkpt lat="48.79294" lon="2.39495">
        <ele>36</ele>
        <time>2016-03-21T20:21:59.000Z</time>
      </trkpt>
      <trkpt lat="48.79296" lon="2.39524">
        <ele>35.200000762939</ele>
        <time>2016-03-21T20:22:03.000Z</time>
      </trkpt>
      <trkpt lat="48.79296" lon="2.3953">
        <ele>35.200000762939</ele>
        <time>2016-03-21T20:22:04.000Z</time>
      </trkpt>
      <trkpt lat="48.793" lon="2.39554">
        <ele>35</ele>
        <time>2016-03-21T20:22:10.000Z</time>
      </trkpt>
      <trkpt lat="48.79301" lon="2.39558">
        <ele>35</ele>
        <time>2016-03-21T20:22:11.000Z</time>
      </trkpt>
      <trkpt lat="48.79309" lon="2.39584">
        <ele>34.599998474121</ele>
        <time>2016-03-21T20:22:18.000Z</time>
      </trkpt>
      <trkpt lat="48.7931" lon="2.39588">
        <ele>34.599998474121</ele>
        <time>2016-03-21T20:22:19.000Z</time>
      </trkpt>
      <trkpt lat="48.79316" lon="2.39617">
        <ele>34.400001525879</ele>
        <time>2016-03-21T20:22:25.000Z</time>
      </trkpt>
      <trkpt lat="48.79322" lon="2.39646">
        <ele>33.599998474121</ele>
        <time>2016-03-21T20:22:30.000Z</time>
      </trkpt>
      <trkpt lat="48.79329" lon="2.39677">
        <ele>33.200000762939</ele>
        <time>2016-03-21T20:22:35.000Z</time>
      </trkpt>
      <trkpt lat="48.79335" lon="2.39704">
        <ele>33.400001525879</ele>
        <time>2016-03-21T20:22:39.000Z</time>
      </trkpt>
      <trkpt lat="48.79341" lon="2.39734">
        <ele>33.799999237061</ele>
        <time>2016-03-21T20:22:44.000Z</time>
      </trkpt>
      <trkpt lat="48.79347" lon="2.39761">
        <ele>34</ele>
        <time>2016-03-21T20:22:48.000Z</time>
      </trkpt>
      <trkpt lat="48.79352" lon="2.39781">
        <ele>34</ele>
        <time>2016-03-21T20:22:51.000Z</time>
      </trkpt>
      <trkpt lat="48.79356" lon="2.39807">
        <ele>34</ele>
        <time>2016-03-21T20:22:55.000Z</time>
      </trkpt>
      <trkpt lat="48.79359" lon="2.39821">
        <ele>34</ele>
        <time>2016-03-21T20:22:57.000Z</time>
      </trkpt>
      <trkpt lat="48.79364" lon="2.3985">
        <ele>34.200000762939</ele>
        <time>2016-03-21T20:23:01.000Z</time>
      </trkpt>
      <trkpt lat="48.79368" lon="2.39879">
        <ele>34.200000762939</ele>
        <time>2016-03-21T20:23:05.000Z</time>
      </trkpt>
      <trkpt lat="48.79373" lon="2.39908">
        <ele>34.200000762939</ele>
        <time>2016-03-21T20:23:09.000Z</time>
      </trkpt>
      <trkpt lat="48.79374" lon="2.39915">
        <ele>34.200000762939</ele>
        <time>2016-03-21T20:23:10.000Z</time>
      </trkpt>
      <trkpt lat="48.79382" lon="2.39941">
        <ele>34.400001525879</ele>
        <time>2016-03-21T20:23:14.000Z</time>
      </trkpt>
      <trkpt lat="48.79383" lon="2.39948">
        <ele>34.200000762939</ele>
        <time>2016-03-21T20:23:15.000Z</time>
      </trkpt>
      <trkpt lat="48.79387" lon="2.39968">
        <ele>34.200000762939</ele>
        <time>2016-03-21T20:23:18.000Z</time>
      </trkpt>
      <trkpt lat="48.79389" lon="2.39981">
        <ele>34</ele>
        <time>2016-03-21T20:23:20.000Z</time>
      </trkpt>
      <trkpt lat="48.79394" lon="2.40013">
        <ele>33.799999237061</ele>
        <time>2016-03-21T20:23:25.000Z</time>
      </trkpt>
      <trkpt lat="48.79399" lon="2.40045">
        <ele>33.599998474121</ele>
        <time>2016-03-21T20:23:30.000Z</time>
      </trkpt>
      <trkpt lat="48.79404" lon="2.40071">
        <ele>33.200000762939</ele>
        <time>2016-03-21T20:23:34.000Z</time>
      </trkpt>
      <trkpt lat="48.79411" lon="2.40097">
        <ele>33.200000762939</ele>
        <time>2016-03-21T20:23:38.000Z</time>
      </trkpt>
      <trkpt lat="48.79413" lon="2.4011">
        <ele>33</ele>
        <time>2016-03-21T20:23:40.000Z</time>
      </trkpt>
      <trkpt lat="48.79415" lon="2.40139">
        <ele>32.799999237061</ele>
        <time>2016-03-21T20:23:44.000Z</time>
      </trkpt>
      <trkpt lat="48.79421" lon="2.40169">
        <ele>32.799999237061</ele>
        <time>2016-03-21T20:23:49.000Z</time>
      </trkpt>
      <trkpt lat="48.79429" lon="2.40199">
        <ele>32.400001525879</ele>
        <time>2016-03-21T20:23:54.000Z</time>
      </trkpt>
      <trkpt lat="48.79436" lon="2.40225">
        <ele>32.200000762939</ele>
        <time>2016-03-21T20:23:59.000Z</time>
      </trkpt>
      <trkpt lat="48.7944" lon="2.40238">
        <ele>32.200000762939</ele>
        <time>2016-03-21T20:24:02.000Z</time>
      </trkpt>
      <trkpt lat="48.79445" lon="2.40256">
        <ele>32</ele>
        <time>2016-03-21T20:24:07.000Z</time>
      </trkpt>
      <trkpt lat="48.79449" lon="2.40267">
        <ele>32.200000762939</ele>
        <time>2016-03-21T20:24:10.000Z</time>
      </trkpt>
      <trkpt lat="48.79458" lon="2.40296">
        <ele>32.200000762939</ele>
        <time>2016-03-21T20:24:17.000Z</time>
      </trkpt>
      <trkpt lat="48.79464" lon="2.40322">
        <ele>32.400001525879</ele>
        <time>2016-03-21T20:24:23.000Z</time>
      </trkpt>
      <trkpt lat="48.79471" lon="2.40348">
        <ele>32.400001525879</ele>
        <time>2016-03-21T20:24:28.000Z</time>
      </trkpt>
      <trkpt lat="48.7948" lon="2.40381">
        <ele>32.799999237061</ele>
        <time>2016-03-21T20:24:33.000Z</time>
      </trkpt>
      <trkpt lat="48.7949" lon="2.40408">
        <ele>33.599998474121</ele>
        <time>2016-03-21T20:24:37.000Z</time>
      </trkpt>
      <trkpt lat="48.79497" lon="2.40438">
        <ele>34.200000762939</ele>
        <time>2016-03-21T20:24:42.000Z</time>
      </trkpt>
      <trkpt lat="48.79505" lon="2.40466">
        <ele>34.599998474121</ele>
        <time>2016-03-21T20:24:47.000Z</time>
      </trkpt>
      <trkpt lat="48.79511" lon="2.40492">
        <ele>35</ele>
        <time>2016-03-21T20:24:52.000Z</time>
      </trkpt>
      <trkpt lat="48.79517" lon="2.4052">
        <ele>35</ele>
        <time>2016-03-21T20:24:57.000Z</time>
      </trkpt>
      <trkpt lat="48.79524" lon="2.40548">
        <ele>35</ele>
        <time>2016-03-21T20:25:03.000Z</time>
      </trkpt>
      <trkpt lat="48.7953" lon="2.40577">
        <ele>34.799999237061</ele>
        <time>2016-03-21T20:25:09.000Z</time>
      </trkpt>
      <trkpt lat="48.79536" lon="2.40608">
        <ele>34.200000762939</ele>
        <time>2016-03-21T20:25:15.000Z</time>
      </trkpt>
      <trkpt lat="48.79541" lon="2.40636">
        <ele>33</ele>
        <time>2016-03-21T20:25:20.000Z</time>
      </trkpt>
      <trkpt lat="48.79544" lon="2.4067">
        <ele>31.799999237061</ele>
        <time>2016-03-21T20:25:25.000Z</time>
      </trkpt>
      <trkpt lat="48.79546" lon="2.40701">
        <ele>32.400001525879</ele>
        <time>2016-03-21T20:25:29.000Z</time>
      </trkpt>
      <trkpt lat="48.79548" lon="2.40735">
        <ele>33.400001525879</ele>
        <time>2016-03-21T20:25:33.000Z</time>
      </trkpt>
      <trkpt lat="48.79551" lon="2.40768">
        <ele>33.799999237061</ele>
        <time>2016-03-21T20:25:37.000Z</time>
      </trkpt>
      <trkpt lat="48.79553" lon="2.40802">
        <ele>34</ele>
        <time>2016-03-21T20:25:41.000Z</time>
      </trkpt>
      <trkpt lat="48.79556" lon="2.40833">
        <ele>34.400001525879</ele>
        <time>2016-03-21T20:25:44.000Z</time>
      </trkpt>
      <trkpt lat="48.79557" lon="2.40842">
        <ele>34.400001525879</ele>
        <time>2016-03-21T20:25:45.000Z</time>
      </trkpt>
      <trkpt lat="48.79559" lon="2.40869">
        <ele>34</ele>
        <time>2016-03-21T20:25:48.000Z</time>
      </trkpt>
      <trkpt lat="48.79561" lon="2.40897">
        <ele>34.400001525879</ele>
        <time>2016-03-21T20:25:51.000Z</time>
      </trkpt>
      <trkpt lat="48.79565" lon="2.40935">
        <ele>34.200000762939</ele>
        <time>2016-03-21T20:25:55.000Z</time>
      </trkpt>
      <trkpt lat="48.79569" lon="2.40966">
        <ele>33.799999237061</ele>
        <time>2016-03-21T20:25:58.000Z</time>
      </trkpt>
      <trkpt lat="48.79573" lon="2.40996">
        <ele>33.400001525879</ele>
        <time>2016-03-21T20:26:02.000Z</time>
      </trkpt>
      <trkpt lat="48.79573" lon="2.41003">
        <ele>33.400001525879</ele>
        <time>2016-03-21T20:26:03.000Z</time>
      </trkpt>
      <trkpt lat="48.79575" lon="2.41032">
        <ele>33</ele>
        <time>2016-03-21T20:26:07.000Z</time>
      </trkpt>
      <trkpt lat="48.79575" lon="2.41039">
        <ele>32.799999237061</ele>
        <time>2016-03-21T20:26:08.000Z</time>
      </trkpt>
      <trkpt lat="48.79576" lon="2.4106">
        <ele>32.799999237061</ele>
        <time>2016-03-21T20:26:11.000Z</time>
      </trkpt>
      <trkpt lat="48.79577" lon="2.41089">
        <ele>33.200000762939</ele>
        <time>2016-03-21T20:26:15.000Z</time>
      </trkpt>
      <trkpt lat="48.79579" lon="2.4112">
        <ele>33.799999237061</ele>
        <time>2016-03-21T20:26:19.000Z</time>
      </trkpt>
      <trkpt lat="48.79582" lon="2.41151">
        <ele>34.400001525879</ele>
        <time>2016-03-21T20:26:24.000Z</time>
      </trkpt>
      <trkpt lat="48.79584" lon="2.4118">
        <ele>35.200000762939</ele>
        <time>2016-03-21T20:26:29.000Z</time>
      </trkpt>
      <trkpt lat="48.79584" lon="2.41209">
        <ele>35.799999237061</ele>
        <time>2016-03-21T20:26:34.000Z</time>
      </trkpt>
      <trkpt lat="48.79585" lon="2.41239">
        <ele>36.200000762939</ele>
        <time>2016-03-21T20:26:40.000Z</time>
      </trkpt>
      <trkpt lat="48.79582" lon="2.41254">
        <ele>36</ele>
        <time>2016-03-21T20:26:44.000Z</time>
      </trkpt>
      <trkpt lat="48.79581" lon="2.41257">
        <ele>35.799999237061</ele>
        <time>2016-03-21T20:26:45.000Z</time>
      </trkpt>
      <trkpt lat="48.79579" lon="2.41263">
        <ele>35.799999237061</ele>
        <time>2016-03-21T20:26:47.000Z</time>
      </trkpt>
      <trkpt lat="48.79579" lon="2.4127">
        <ele>35.799999237061</ele>
        <time>2016-03-21T20:26:55.000Z</time>
      </trkpt>
      <trkpt lat="48.79584" lon="2.41278">
        <ele>35.599998474121</ele>
        <time>2016-03-21T20:28:08.000Z</time>
      </trkpt>
      <trkpt lat="48.79579" lon="2.41277">
        <ele>35.599998474121</ele>
        <time>2016-03-21T20:28:11.000Z</time>
      </trkpt>
      <trkpt lat="48.79561" lon="2.41285">
        <ele>35.599998474121</ele>
        <time>2016-03-21T20:28:18.000Z</time>
      </trkpt>
      <trkpt lat="48.79541" lon="2.41294">
        <ele>35.400001525879</ele>
        <time>2016-03-21T20:28:24.000Z</time>
      </trkpt>
      <trkpt lat="48.7952" lon="2.41301">
        <ele>35.400001525879</ele>
        <time>2016-03-21T20:28:29.000Z</time>
      </trkpt>
      <trkpt lat="48.79499" lon="2.41311">
        <ele>34.799999237061</ele>
        <time>2016-03-21T20:28:34.000Z</time>
      </trkpt>
      <trkpt lat="48.79479" lon="2.4132">
        <ele>34.799999237061</ele>
        <time>2016-03-21T20:28:39.000Z</time>
      </trkpt>
      <trkpt lat="48.79458" lon="2.41328">
        <ele>35</ele>
        <time>2016-03-21T20:28:44.000Z</time>
      </trkpt>
      <trkpt lat="48.79436" lon="2.41332">
        <ele>35</ele>
        <time>2016-03-21T20:28:50.000Z</time>
      </trkpt>
      <trkpt lat="48.79416" lon="2.41339">
        <ele>34.400001525879</ele>
        <time>2016-03-21T20:28:55.000Z</time>
      </trkpt>
      <trkpt lat="48.79395" lon="2.41348">
        <ele>34</ele>
        <time>2016-03-21T20:29:00.000Z</time>
      </trkpt>
      <trkpt lat="48.7938" lon="2.41363">
        <ele>33.799999237061</ele>
        <time>2016-03-21T20:29:05.000Z</time>
      </trkpt>
      <trkpt lat="48.79379" lon="2.4139">
        <ele>34.400001525879</ele>
        <time>2016-03-21T20:29:11.000Z</time>
      </trkpt>
      <trkpt lat="48.79382" lon="2.41418">
        <ele>35</ele>
        <time>2016-03-21T20:29:16.000Z</time>
      </trkpt>
      <trkpt lat="48.79387" lon="2.41448">
        <ele>35</ele>
        <time>2016-03-21T20:29:21.000Z</time>
      </trkpt>
      <trkpt lat="48.79393" lon="2.41478">
        <ele>35</ele>
        <time>2016-03-21T20:29:26.000Z</time>
      </trkpt>
      <trkpt lat="48.79398" lon="2.41508">
        <ele>35.200000762939</ele>
        <time>2016-03-21T20:29:31.000Z</time>
      </trkpt>
      <trkpt lat="48.79399" lon="2.41538">
        <ele>35.400001525879</ele>
        <time>2016-03-21T20:29:37.000Z</time>
      </trkpt>
      <trkpt lat="48.79404" lon="2.41563">
        <ele>35.599998474121</ele>
        <time>2016-03-21T20:29:43.000Z</time>
      </trkpt>
      <trkpt lat="48.7941" lon="2.41589">
        <ele>35.599998474121</ele>
        <time>2016-03-21T20:29:50.000Z</time>
      </trkpt>
      <trkpt lat="48.79414" lon="2.41618">
        <ele>35.799999237061</ele>
        <time>2016-03-21T20:29:56.000Z</time>
      </trkpt>
      <trkpt lat="48.79419" lon="2.41648">
        <ele>35.799999237061</ele>
        <time>2016-03-21T20:30:01.000Z</time>
      </trkpt>
      <trkpt lat="48.79424" lon="2.41682">
        <ele>36.400001525879</ele>
        <time>2016-03-21T20:30:06.000Z</time>
      </trkpt>
      <trkpt lat="48.79429" lon="2.41704">
        <ele>36.599998474121</ele>
        <time>2016-03-21T20:30:11.000Z</time>
      </trkpt>
      <trkpt lat="48.79444" lon="2.41691">
        <ele>36.400001525879</ele>
        <time>2016-03-21T20:30:21.000Z</time>
      </trkpt>
      <trkpt lat="48.79448" lon="2.41693">
        <ele>36.400001525879</ele>
        <time>2016-03-21T20:30:23.000Z</time>
      </trkpt>
      <trkpt lat="48.79459" lon="2.41693">
        <ele>36.400001525879</ele>
        <time>2016-03-21T20:30:31.000Z</time>
      </trkpt>
      <trkpt lat="48.79454" lon="2.41672">
        <ele>36.400001525879</ele>
        <time>2016-03-21T20:30:45.000Z</time>
      </trkpt>
      <trkpt lat="48.79446" lon="2.41643">
        <ele>36.200000762939</ele>
        <time>2016-03-21T20:30:52.000Z</time>
      </trkpt>
      <trkpt lat="48.79438" lon="2.41616">
        <ele>36</ele>
        <time>2016-03-21T20:30:58.000Z</time>
      </trkpt>
      <trkpt lat="48.7944" lon="2.41597">
        <ele>36</ele>
        <time>2016-03-21T20:31:03.000Z</time>
      </trkpt>
      <trkpt lat="48.79458" lon="2.41591">
        <ele>36.400001525879</ele>
        <time>2016-03-21T20:31:11.000Z</time>
      </trkpt>
      <trkpt lat="48.79477" lon="2.41583">
        <ele>36.400001525879</ele>
        <time>2016-03-21T20:31:17.000Z</time>
      </trkpt>
      <trkpt lat="48.79491" lon="2.41566">
        <ele>36.400001525879</ele>
        <time>2016-03-21T20:31:23.000Z</time>
      </trkpt>
      <trkpt lat="48.79467" lon="2.41591">
        <ele>36.599998474121</ele>
        <time>2016-03-21T20:33:19.000Z</time>
      </trkpt>
      <trkpt lat="48.79448" lon="2.41599">
        <ele>36.400001525879</ele>
        <time>2016-03-21T20:33:27.000Z</time>
      </trkpt>
      <trkpt lat="48.79441" lon="2.41602">
        <ele>36</ele>
        <time>2016-03-21T20:33:32.000Z</time>
      </trkpt>
      <trkpt lat="48.79432" lon="2.41579">
        <ele>36</ele>
        <time>2016-03-21T20:33:47.000Z</time>
      </trkpt>
      <trkpt lat="48.7943" lon="2.41552">
        <ele>35.599998474121</ele>
        <time>2016-03-21T20:33:55.000Z</time>
      </trkpt>
      <trkpt lat="48.79424" lon="2.4153">
        <ele>35.400001525879</ele>
        <time>2016-03-21T20:34:04.000Z</time>
      </trkpt>
      <trkpt lat="48.79409" lon="2.41532">
        <ele>35.400001525879</ele>
        <time>2016-03-21T20:34:16.000Z</time>
      </trkpt>
      <trkpt lat="48.79408" lon="2.41534">
        <ele>35.400001525879</ele>
        <time>2016-03-21T20:34:18.000Z</time>
      </trkpt>
      <trkpt lat="48.79412" lon="2.41525">
        <ele>35.400001525879</ele>
        <time>2016-03-21T20:34:42.000Z</time>
      </trkpt>
      <trkpt lat="48.79408" lon="2.41538">
        <ele>35.400001525879</ele>
        <time>2016-03-21T20:35:57.000Z</time>
      </trkpt>
      <trkpt lat="48.79408" lon="2.41555">
        <ele>35.599998474121</ele>
        <time>2016-03-21T20:36:03.000Z</time>
      </trkpt>
      <trkpt lat="48.79415" lon="2.41583">
        <ele>35.799999237061</ele>
        <time>2016-03-21T20:36:11.000Z</time>
      </trkpt>
      <trkpt lat="48.79418" lon="2.41611">
        <ele>35.799999237061</ele>
        <time>2016-03-21T20:36:17.000Z</time>
      </trkpt>
      <trkpt lat="48.79424" lon="2.41639">
        <ele>35.799999237061</ele>
        <time>2016-03-21T20:36:22.000Z</time>
      </trkpt>
      <trkpt lat="48.79427" lon="2.41669">
        <ele>36.200000762939</ele>
        <time>2016-03-21T20:36:27.000Z</time>
      </trkpt>
      <trkpt lat="48.79433" lon="2.41698">
        <ele>36.400001525879</ele>
        <time>2016-03-21T20:36:32.000Z</time>
      </trkpt>
      <trkpt lat="48.79443" lon="2.41726">
        <ele>36.799999237061</ele>
        <time>2016-03-21T20:36:37.000Z</time>
      </trkpt>
      <trkpt lat="48.79454" lon="2.41754">
        <ele>37</ele>
        <time>2016-03-21T20:36:42.000Z</time>
      </trkpt>
      <trkpt lat="48.79464" lon="2.41781">
        <ele>37.200000762939</ele>
        <time>2016-03-21T20:36:47.000Z</time>
      </trkpt>
      <trkpt lat="48.79475" lon="2.41804">
        <ele>37.200000762939</ele>
        <time>2016-03-21T20:36:52.000Z</time>
      </trkpt>
      <trkpt lat="48.79488" lon="2.41823">
        <ele>37.400001525879</ele>
        <time>2016-03-21T20:36:58.000Z</time>
      </trkpt>
      <trkpt lat="48.79508" lon="2.41822">
        <ele>37.799999237061</ele>
        <time>2016-03-21T20:37:05.000Z</time>
      </trkpt>
      <trkpt lat="48.79528" lon="2.41806">
        <ele>37.599998474121</ele>
        <time>2016-03-21T20:37:11.000Z</time>
      </trkpt>
      <trkpt lat="48.79546" lon="2.41788">
        <ele>37.200000762939</ele>
        <time>2016-03-21T20:37:16.000Z</time>
      </trkpt>
      <trkpt lat="48.79562" lon="2.4177">
        <ele>37</ele>
        <time>2016-03-21T20:37:20.000Z</time>
      </trkpt>
      <trkpt lat="48.79578" lon="2.41752">
        <ele>37</ele>
        <time>2016-03-21T20:37:24.000Z</time>
      </trkpt>
      <trkpt lat="48.79594" lon="2.41733">
        <ele>37.400001525879</ele>
        <time>2016-03-21T20:37:28.000Z</time>
      </trkpt>
      <trkpt lat="48.79609" lon="2.41715">
        <ele>37.200000762939</ele>
        <time>2016-03-21T20:37:32.000Z</time>
      </trkpt>
      <trkpt lat="48.79611" lon="2.41711">
        <ele>37</ele>
        <time>2016-03-21T20:37:33.000Z</time>
      </trkpt>
      <trkpt lat="48.79623" lon="2.41693">
        <ele>36.200000762939</ele>
        <time>2016-03-21T20:37:39.000Z</time>
      </trkpt>
      <trkpt lat="48.79628" lon="2.41715">
        <ele>35.400001525879</ele>
        <time>2016-03-21T20:37:48.000Z</time>
      </trkpt>
      <trkpt lat="48.79633" lon="2.4172">
        <ele>35</ele>
        <time>2016-03-21T20:37:51.000Z</time>
      </trkpt>
      <trkpt lat="48.79648" lon="2.41736">
        <ele>33.599998474121</ele>
        <time>2016-03-21T20:37:59.000Z</time>
      </trkpt>
      <trkpt lat="48.7966" lon="2.41757">
        <ele>32.400001525879</ele>
        <time>2016-03-21T20:38:05.000Z</time>
      </trkpt>
      <trkpt lat="48.79673" lon="2.4178">
        <ele>31.39999961853</ele>
        <time>2016-03-21T20:38:10.000Z</time>
      </trkpt>
      <trkpt lat="48.79686" lon="2.41805">
        <ele>30.200000762939</ele>
        <time>2016-03-21T20:38:16.000Z</time>
      </trkpt>
      <trkpt lat="48.797" lon="2.41826">
        <ele>30</ele>
        <time>2016-03-21T20:38:23.000Z</time>
      </trkpt>
      <trkpt lat="48.79713" lon="2.41851">
        <ele>30</ele>
        <time>2016-03-21T20:38:29.000Z</time>
      </trkpt>
      <trkpt lat="48.79725" lon="2.41874">
        <ele>30</ele>
        <time>2016-03-21T20:38:34.000Z</time>
      </trkpt>
      <trkpt lat="48.79737" lon="2.41897">
        <ele>30</ele>
        <time>2016-03-21T20:38:39.000Z</time>
      </trkpt>
      <trkpt lat="48.79751" lon="2.4192">
        <ele>30</ele>
        <time>2016-03-21T20:38:44.000Z</time>
      </trkpt>
      <trkpt lat="48.79763" lon="2.4194">
        <ele>29.799999237061</ele>
        <time>2016-03-21T20:38:49.000Z</time>
      </trkpt>
      <trkpt lat="48.79776" lon="2.41963">
        <ele>29.60000038147</ele>
        <time>2016-03-21T20:38:55.000Z</time>
      </trkpt>
      <trkpt lat="48.79789" lon="2.41984">
        <ele>30</ele>
        <time>2016-03-21T20:39:00.000Z</time>
      </trkpt>
      <trkpt lat="48.79801" lon="2.42007">
        <ele>30.60000038147</ele>
        <time>2016-03-21T20:39:05.000Z</time>
      </trkpt>
      <trkpt lat="48.79811" lon="2.4203">
        <ele>31.60000038147</ele>
        <time>2016-03-21T20:39:10.000Z</time>
      </trkpt>
      <trkpt lat="48.79813" lon="2.42052">
        <ele>32.599998474121</ele>
        <time>2016-03-21T20:39:16.000Z</time>
      </trkpt>
      <trkpt lat="48.79823" lon="2.42057">
        <ele>33</ele>
        <time>2016-03-21T20:40:30.000Z</time>
      </trkpt>
      <trkpt lat="48.79837" lon="2.4206">
        <ele>33.599998474121</ele>
        <time>2016-03-21T20:40:55.000Z</time>
      </trkpt>
      <trkpt lat="48.79847" lon="2.42083">
        <ele>34.799999237061</ele>
        <time>2016-03-21T20:41:01.000Z</time>
      </trkpt>
      <trkpt lat="48.79858" lon="2.42105">
        <ele>34.400001525879</ele>
        <time>2016-03-21T20:41:05.000Z</time>
      </trkpt>
      <trkpt lat="48.79871" lon="2.42133">
        <ele>33.799999237061</ele>
        <time>2016-03-21T20:41:09.000Z</time>
      </trkpt>
      <trkpt lat="48.79884" lon="2.42156">
        <ele>33.200000762939</ele>
        <time>2016-03-21T20:41:12.000Z</time>
      </trkpt>
      <trkpt lat="48.79897" lon="2.42178">
        <ele>33</ele>
        <time>2016-03-21T20:41:15.000Z</time>
      </trkpt>
      <trkpt lat="48.79909" lon="2.422">
        <ele>33</ele>
        <time>2016-03-21T20:41:18.000Z</time>
      </trkpt>
      <trkpt lat="48.79916" lon="2.42215">
        <ele>33</ele>
        <time>2016-03-21T20:41:20.000Z</time>
      </trkpt>
      <trkpt lat="48.79931" lon="2.42241">
        <ele>33</ele>
        <time>2016-03-21T20:41:24.000Z</time>
      </trkpt>
      <trkpt lat="48.79941" lon="2.42259">
        <ele>33</ele>
        <time>2016-03-21T20:41:27.000Z</time>
      </trkpt>
      <trkpt lat="48.7995" lon="2.42275">
        <ele>33.200000762939</ele>
        <time>2016-03-21T20:41:31.000Z</time>
      </trkpt>
      <trkpt lat="48.79952" lon="2.42281">
        <ele>33.400001525879</ele>
        <time>2016-03-21T20:41:33.000Z</time>
      </trkpt>
      <trkpt lat="48.79965" lon="2.42286">
        <ele>33.599998474121</ele>
        <time>2016-03-21T20:41:44.000Z</time>
      </trkpt>
      <trkpt lat="48.79972" lon="2.42311">
        <ele>33.799999237061</ele>
        <time>2016-03-21T20:41:51.000Z</time>
      </trkpt>
      <trkpt lat="48.79978" lon="2.42342">
        <ele>34</ele>
        <time>2016-03-21T20:41:56.000Z</time>
      </trkpt>
      <trkpt lat="48.79988" lon="2.42369">
        <ele>34.200000762939</ele>
        <time>2016-03-21T20:42:00.000Z</time>
      </trkpt>
      <trkpt lat="48.79999" lon="2.42391">
        <ele>34.400001525879</ele>
        <time>2016-03-21T20:42:05.000Z</time>
      </trkpt>
      <trkpt lat="48.80013" lon="2.42416">
        <ele>34.799999237061</ele>
        <time>2016-03-21T20:42:11.000Z</time>
      </trkpt>
      <trkpt lat="48.80024" lon="2.42441">
        <ele>35</ele>
        <time>2016-03-21T20:42:17.000Z</time>
      </trkpt>
      <trkpt lat="48.80035" lon="2.42464">
        <ele>35.200000762939</ele>
        <time>2016-03-21T20:42:22.000Z</time>
      </trkpt>
      <trkpt lat="48.80045" lon="2.42488">
        <ele>35.200000762939</ele>
        <time>2016-03-21T20:42:27.000Z</time>
      </trkpt>
      <trkpt lat="48.80057" lon="2.42512">
        <ele>35.599998474121</ele>
        <time>2016-03-21T20:42:32.000Z</time>
      </trkpt>
      <trkpt lat="48.80068" lon="2.42534">
        <ele>36</ele>
        <time>2016-03-21T20:42:37.000Z</time>
      </trkpt>
      <trkpt lat="48.80079" lon="2.42561">
        <ele>36.400001525879</ele>
        <time>2016-03-21T20:42:44.000Z</time>
      </trkpt>
      <trkpt lat="48.80091" lon="2.42585">
        <ele>36.599998474121</ele>
        <time>2016-03-21T20:42:50.000Z</time>
      </trkpt>
      <trkpt lat="48.80101" lon="2.42609">
        <ele>36.799999237061</ele>
        <time>2016-03-21T20:42:56.000Z</time>
      </trkpt>
      <trkpt lat="48.80104" lon="2.42616">
        <ele>37</ele>
        <time>2016-03-21T20:42:58.000Z</time>
      </trkpt>
      <trkpt lat="48.80117" lon="2.42636">
        <ele>36.799999237061</ele>
        <time>2016-03-21T20:43:07.000Z</time>
      </trkpt>
      <trkpt lat="48.80118" lon="2.42639">
        <ele>36.599998474121</ele>
        <time>2016-03-21T20:43:09.000Z</time>
      </trkpt>
      <trkpt lat="48.80104" lon="2.42653">
        <ele>37</ele>
        <time>2016-03-21T20:43:19.000Z</time>
      </trkpt>
      <trkpt lat="48.80086" lon="2.42665">
        <ele>36.599998474121</ele>
        <time>2016-03-21T20:43:24.000Z</time>
      </trkpt>
      <trkpt lat="48.80067" lon="2.42676">
        <ele>35.799999237061</ele>
        <time>2016-03-21T20:43:29.000Z</time>
      </trkpt>
      <trkpt lat="48.80048" lon="2.42686">
        <ele>35</ele>
        <time>2016-03-21T20:43:33.000Z</time>
      </trkpt>
      <trkpt lat="48.80031" lon="2.42696">
        <ele>34.599998474121</ele>
        <time>2016-03-21T20:43:37.000Z</time>
      </trkpt>
      <trkpt lat="48.80012" lon="2.4271">
        <ele>34.400001525879</ele>
        <time>2016-03-21T20:43:42.000Z</time>
      </trkpt>
      <trkpt lat="48.79997" lon="2.42728">
        <ele>34.200000762939</ele>
        <time>2016-03-21T20:43:47.000Z</time>
      </trkpt>
      <trkpt lat="48.79997" lon="2.42759">
        <ele>33.599998474121</ele>
        <time>2016-03-21T20:43:53.000Z</time>
      </trkpt>
      <trkpt lat="48.8" lon="2.42788">
        <ele>33.799999237061</ele>
        <time>2016-03-21T20:43:58.000Z</time>
      </trkpt>
      <trkpt lat="48.80004" lon="2.42816">
        <ele>33.799999237061</ele>
        <time>2016-03-21T20:44:02.000Z</time>
      </trkpt>
      <trkpt lat="48.80009" lon="2.42846">
        <ele>34</ele>
        <time>2016-03-21T20:44:06.000Z</time>
      </trkpt>
      <trkpt lat="48.80015" lon="2.42881">
        <ele>34</ele>
        <time>2016-03-21T20:44:10.000Z</time>
      </trkpt>
      <trkpt lat="48.80021" lon="2.42907">
        <ele>34</ele>
        <time>2016-03-21T20:44:13.000Z</time>
      </trkpt>
      <trkpt lat="48.80029" lon="2.42932">
        <ele>34.200000762939</ele>
        <time>2016-03-21T20:44:16.000Z</time>
      </trkpt>
      <trkpt lat="48.80036" lon="2.42958">
        <ele>34.400001525879</ele>
        <time>2016-03-21T20:44:19.000Z</time>
      </trkpt>
      <trkpt lat="48.80043" lon="2.42986">
        <ele>34.599998474121</ele>
        <time>2016-03-21T20:44:22.000Z</time>
      </trkpt>
      <trkpt lat="48.80048" lon="2.43015">
        <ele>34.799999237061</ele>
        <time>2016-03-21T20:44:25.000Z</time>
      </trkpt>
      <trkpt lat="48.80055" lon="2.43047">
        <ele>34.799999237061</ele>
        <time>2016-03-21T20:44:28.000Z</time>
      </trkpt>
      <trkpt lat="48.80065" lon="2.43078">
        <ele>34.599998474121</ele>
        <time>2016-03-21T20:44:31.000Z</time>
      </trkpt>
      <trkpt lat="48.80071" lon="2.43096">
        <ele>35</ele>
        <time>2016-03-21T20:44:33.000Z</time>
      </trkpt>
      <trkpt lat="48.8008" lon="2.43116">
        <ele>36</ele>
        <time>2016-03-21T20:44:36.000Z</time>
      </trkpt>
      <trkpt lat="48.8009" lon="2.43133">
        <ele>36.599998474121</ele>
        <time>2016-03-21T20:44:39.000Z</time>
      </trkpt>
      <trkpt lat="48.801" lon="2.43147">
        <ele>37.200000762939</ele>
        <time>2016-03-21T20:44:42.000Z</time>
      </trkpt>
      <trkpt lat="48.80107" lon="2.43157">
        <ele>37.799999237061</ele>
        <time>2016-03-21T20:44:45.000Z</time>
      </trkpt>
      <trkpt lat="48.80115" lon="2.43168">
        <ele>38.200000762939</ele>
        <time>2016-03-21T20:45:00.000Z</time>
      </trkpt>
      <trkpt lat="48.80116" lon="2.43168">
        <ele>38.400001525879</ele>
        <time>2016-03-21T20:45:01.000Z</time>
      </trkpt>
      <trkpt lat="48.80127" lon="2.43178">
        <ele>38.799999237061</ele>
        <time>2016-03-21T20:45:05.000Z</time>
      </trkpt>
      <trkpt lat="48.80144" lon="2.43192">
        <ele>39.599998474121</ele>
        <time>2016-03-21T20:45:10.000Z</time>
      </trkpt>
      <trkpt lat="48.80162" lon="2.43206">
        <ele>40.400001525879</ele>
        <time>2016-03-21T20:45:15.000Z</time>
      </trkpt>
      <trkpt lat="48.80179" lon="2.43228">
        <ele>41.200000762939</ele>
        <time>2016-03-21T20:45:20.000Z</time>
      </trkpt>
      <trkpt lat="48.80195" lon="2.43249">
        <ele>42</ele>
        <time>2016-03-21T20:45:25.000Z</time>
      </trkpt>
      <trkpt lat="48.80208" lon="2.43272">
        <ele>41.799999237061</ele>
        <time>2016-03-21T20:45:30.000Z</time>
      </trkpt>
      <trkpt lat="48.80221" lon="2.43296">
        <ele>41.799999237061</ele>
        <time>2016-03-21T20:45:35.000Z</time>
      </trkpt>
      <trkpt lat="48.80235" lon="2.43318">
        <ele>41.799999237061</ele>
        <time>2016-03-21T20:45:40.000Z</time>
      </trkpt>
      <trkpt lat="48.80249" lon="2.43342">
        <ele>41.799999237061</ele>
        <time>2016-03-21T20:45:45.000Z</time>
      </trkpt>
      <trkpt lat="48.8026" lon="2.43367">
        <ele>42.200000762939</ele>
        <time>2016-03-21T20:45:50.000Z</time>
      </trkpt>
      <trkpt lat="48.80265" lon="2.43379">
        <ele>42.200000762939</ele>
        <time>2016-03-21T20:45:53.000Z</time>
      </trkpt>
      <trkpt lat="48.80277" lon="2.43399">
        <ele>42.400001525879</ele>
        <time>2016-03-21T20:46:02.000Z</time>
      </trkpt>
      <trkpt lat="48.80289" lon="2.43422">
        <ele>42</ele>
        <time>2016-03-21T20:46:17.000Z</time>
      </trkpt>
      <trkpt lat="48.80301" lon="2.43447">
        <ele>41.200000762939</ele>
        <time>2016-03-21T20:46:23.000Z</time>
      </trkpt>
      <trkpt lat="48.80312" lon="2.43475">
        <ele>40.599998474121</ele>
        <time>2016-03-21T20:46:28.000Z</time>
      </trkpt>
      <trkpt lat="48.80322" lon="2.43501">
        <ele>40</ele>
        <time>2016-03-21T20:46:32.000Z</time>
      </trkpt>
      <trkpt lat="48.80333" lon="2.43528">
        <ele>39.599998474121</ele>
        <time>2016-03-21T20:46:36.000Z</time>
      </trkpt>
      <trkpt lat="48.80345" lon="2.43557">
        <ele>39.200000762939</ele>
        <time>2016-03-21T20:46:40.000Z</time>
      </trkpt>
      <trkpt lat="48.80357" lon="2.43585">
        <ele>39</ele>
        <time>2016-03-21T20:46:44.000Z</time>
      </trkpt>
      <trkpt lat="48.8037" lon="2.43612">
        <ele>39</ele>
        <time>2016-03-21T20:46:48.000Z</time>
      </trkpt>
      <trkpt lat="48.80383" lon="2.43641">
        <ele>39</ele>
        <time>2016-03-21T20:46:52.000Z</time>
      </trkpt>
      <trkpt lat="48.80394" lon="2.43667">
        <ele>39</ele>
        <time>2016-03-21T20:46:56.000Z</time>
      </trkpt>
      <trkpt lat="48.80407" lon="2.43694">
        <ele>38.599998474121</ele>
        <time>2016-03-21T20:47:00.000Z</time>
      </trkpt>
      <trkpt lat="48.80419" lon="2.43721">
        <ele>38.400001525879</ele>
        <time>2016-03-21T20:47:04.000Z</time>
      </trkpt>
      <trkpt lat="48.8043" lon="2.43747">
        <ele>38</ele>
        <time>2016-03-21T20:47:08.000Z</time>
      </trkpt>
      <trkpt lat="48.80441" lon="2.43774">
        <ele>38.400001525879</ele>
        <time>2016-03-21T20:47:12.000Z</time>
      </trkpt>
      <trkpt lat="48.80453" lon="2.43798">
        <ele>38.799999237061</ele>
        <time>2016-03-21T20:47:16.000Z</time>
      </trkpt>
      <trkpt lat="48.80464" lon="2.43823">
        <ele>39.200000762939</ele>
        <time>2016-03-21T20:47:20.000Z</time>
      </trkpt>
      <trkpt lat="48.80474" lon="2.43851">
        <ele>39.799999237061</ele>
        <time>2016-03-21T20:47:24.000Z</time>
      </trkpt>
      <trkpt lat="48.80477" lon="2.43858">
        <ele>40</ele>
        <time>2016-03-21T20:47:25.000Z</time>
      </trkpt>
      <trkpt lat="48.80487" lon="2.43885">
        <ele>40.799999237061</ele>
        <time>2016-03-21T20:47:29.000Z</time>
      </trkpt>
      <trkpt lat="48.805" lon="2.43912">
        <ele>41.799999237061</ele>
        <time>2016-03-21T20:47:33.000Z</time>
      </trkpt>
      <trkpt lat="48.80511" lon="2.43937">
        <ele>42</ele>
        <time>2016-03-21T20:47:37.000Z</time>
      </trkpt>
      <trkpt lat="48.80523" lon="2.43965">
        <ele>42</ele>
        <time>2016-03-21T20:47:41.000Z</time>
      </trkpt>
      <trkpt lat="48.80526" lon="2.43972">
        <ele>42</ele>
        <time>2016-03-21T20:47:42.000Z</time>
      </trkpt>
      <trkpt lat="48.80531" lon="2.43986">
        <ele>41.799999237061</ele>
        <time>2016-03-21T20:47:44.000Z</time>
      </trkpt>
      <trkpt lat="48.80542" lon="2.44012">
        <ele>42</ele>
        <time>2016-03-21T20:47:48.000Z</time>
      </trkpt>
      <trkpt lat="48.8055" lon="2.44032">
        <ele>42.200000762939</ele>
        <time>2016-03-21T20:47:51.000Z</time>
      </trkpt>
      <trkpt lat="48.80561" lon="2.44058">
        <ele>42.799999237061</ele>
        <time>2016-03-21T20:47:55.000Z</time>
      </trkpt>
      <trkpt lat="48.80565" lon="2.44069">
        <ele>43</ele>
        <time>2016-03-21T20:47:57.000Z</time>
      </trkpt>
      <trkpt lat="48.80572" lon="2.44094">
        <ele>43</ele>
        <time>2016-03-21T20:48:03.000Z</time>
      </trkpt>
      <trkpt lat="48.80575" lon="2.44103">
        <ele>42.799999237061</ele>
        <time>2016-03-21T20:48:06.000Z</time>
      </trkpt>
      <trkpt lat="48.80577" lon="2.44112">
        <ele>42.599998474121</ele>
        <time>2016-03-21T20:48:09.000Z</time>
      </trkpt>
      <trkpt lat="48.80583" lon="2.44121">
        <ele>42.400001525879</ele>
        <time>2016-03-21T20:49:21.000Z</time>
      </trkpt>
      <trkpt lat="48.80587" lon="2.44123">
        <ele>42.200000762939</ele>
        <time>2016-03-21T20:51:09.000Z</time>
      </trkpt>
      <trkpt lat="48.80589" lon="2.44139">
        <ele>42</ele>
        <time>2016-03-21T20:52:13.000Z</time>
      </trkpt>
      <trkpt lat="48.80599" lon="2.44162">
        <ele>41.200000762939</ele>
        <time>2016-03-21T20:52:21.000Z</time>
      </trkpt>
      <trkpt lat="48.80608" lon="2.44191">
        <ele>41.400001525879</ele>
        <time>2016-03-21T20:52:27.000Z</time>
      </trkpt>
      <trkpt lat="48.80617" lon="2.44219">
        <ele>41.599998474121</ele>
        <time>2016-03-21T20:52:32.000Z</time>
      </trkpt>
      <trkpt lat="48.80623" lon="2.44247">
        <ele>42</ele>
        <time>2016-03-21T20:52:37.000Z</time>
      </trkpt>
      <trkpt lat="48.80629" lon="2.44274">
        <ele>42.200000762939</ele>
        <time>2016-03-21T20:52:42.000Z</time>
      </trkpt>
      <trkpt lat="48.80638" lon="2.44299">
        <ele>42.599998474121</ele>
        <time>2016-03-21T20:52:46.000Z</time>
      </trkpt>
      <trkpt lat="48.80645" lon="2.44327">
        <ele>43</ele>
        <time>2016-03-21T20:52:51.000Z</time>
      </trkpt>
      <trkpt lat="48.80653" lon="2.44356">
        <ele>42.799999237061</ele>
        <time>2016-03-21T20:52:56.000Z</time>
      </trkpt>
      <trkpt lat="48.80661" lon="2.44384">
        <ele>42.400001525879</ele>
        <time>2016-03-21T20:53:01.000Z</time>
      </trkpt>
      <trkpt lat="48.80668" lon="2.44412">
        <ele>42</ele>
        <time>2016-03-21T20:53:06.000Z</time>
      </trkpt>
      <trkpt lat="48.80677" lon="2.44442">
        <ele>41.599998474121</ele>
        <time>2016-03-21T20:53:11.000Z</time>
      </trkpt>
      <trkpt lat="48.80685" lon="2.44468">
        <ele>41.400001525879</ele>
        <time>2016-03-21T20:53:15.000Z</time>
      </trkpt>
      <trkpt lat="48.80693" lon="2.44496">
        <ele>41</ele>
        <time>2016-03-21T20:53:19.000Z</time>
      </trkpt>
      <trkpt lat="48.80699" lon="2.44517">
        <ele>40.799999237061</ele>
        <time>2016-03-21T20:53:22.000Z</time>
      </trkpt>
      <trkpt lat="48.80705" lon="2.44546">
        <ele>40.599998474121</ele>
        <time>2016-03-21T20:53:26.000Z</time>
      </trkpt>
      <trkpt lat="48.80708" lon="2.44559">
        <ele>40.599998474121</ele>
        <time>2016-03-21T20:53:28.000Z</time>
      </trkpt>
      <trkpt lat="48.80713" lon="2.44575">
        <ele>40.400001525879</ele>
        <time>2016-03-21T20:53:30.000Z</time>
      </trkpt>
      <trkpt lat="48.80722" lon="2.44605">
        <ele>40.200000762939</ele>
        <time>2016-03-21T20:53:34.000Z</time>
      </trkpt>
      <trkpt lat="48.80729" lon="2.44633">
        <ele>40</ele>
        <time>2016-03-21T20:53:38.000Z</time>
      </trkpt>
      <trkpt lat="48.80738" lon="2.44662">
        <ele>39.400001525879</ele>
        <time>2016-03-21T20:53:42.000Z</time>
      </trkpt>
      <trkpt lat="48.80747" lon="2.44691">
        <ele>39.599998474121</ele>
        <time>2016-03-21T20:53:46.000Z</time>
      </trkpt>
      <trkpt lat="48.80754" lon="2.44719">
        <ele>39.799999237061</ele>
        <time>2016-03-21T20:53:50.000Z</time>
      </trkpt>
      <trkpt lat="48.80762" lon="2.4475">
        <ele>39.799999237061</ele>
        <time>2016-03-21T20:53:54.000Z</time>
      </trkpt>
      <trkpt lat="48.80771" lon="2.44781">
        <ele>40</ele>
        <time>2016-03-21T20:53:58.000Z</time>
      </trkpt>
      <trkpt lat="48.80779" lon="2.44812">
        <ele>40</ele>
        <time>2016-03-21T20:54:02.000Z</time>
      </trkpt>
      <trkpt lat="48.80786" lon="2.44834">
        <ele>40.200000762939</ele>
        <time>2016-03-21T20:54:05.000Z</time>
      </trkpt>
      <trkpt lat="48.80794" lon="2.44863">
        <ele>40.400001525879</ele>
        <time>2016-03-21T20:54:09.000Z</time>
      </trkpt>
      <trkpt lat="48.80802" lon="2.4489">
        <ele>40.599998474121</ele>
        <time>2016-03-21T20:54:13.000Z</time>
      </trkpt>
      <trkpt lat="48.80812" lon="2.44917">
        <ele>41</ele>
        <time>2016-03-21T20:54:16.000Z</time>
      </trkpt>
      <trkpt lat="48.80815" lon="2.44933">
        <ele>40.599998474121</ele>
        <time>2016-03-21T20:54:18.000Z</time>
      </trkpt>
      <trkpt lat="48.80822" lon="2.44965">
        <ele>39.799999237061</ele>
        <time>2016-03-21T20:54:22.000Z</time>
      </trkpt>
      <trkpt lat="48.8083" lon="2.44995">
        <ele>39.200000762939</ele>
        <time>2016-03-21T20:54:26.000Z</time>
      </trkpt>
      <trkpt lat="48.80837" lon="2.45021">
        <ele>38.799999237061</ele>
        <time>2016-03-21T20:54:30.000Z</time>
      </trkpt>
      <trkpt lat="48.80844" lon="2.45052">
        <ele>38.400001525879</ele>
        <time>2016-03-21T20:54:34.000Z</time>
      </trkpt>
      <trkpt lat="48.80852" lon="2.45084">
        <ele>38</ele>
        <time>2016-03-21T20:54:38.000Z</time>
      </trkpt>
      <trkpt lat="48.8086" lon="2.45118">
        <ele>38.200000762939</ele>
        <time>2016-03-21T20:54:42.000Z</time>
      </trkpt>
      <trkpt lat="48.80865" lon="2.45135">
        <ele>38.200000762939</ele>
        <time>2016-03-21T20:54:44.000Z</time>
      </trkpt>
      <trkpt lat="48.80873" lon="2.45162">
        <ele>38.400001525879</ele>
        <time>2016-03-21T20:54:47.000Z</time>
      </trkpt>
      <trkpt lat="48.80883" lon="2.45195">
        <ele>37.599998474121</ele>
        <time>2016-03-21T20:54:51.000Z</time>
      </trkpt>
      <trkpt lat="48.80887" lon="2.45204">
        <ele>37.400001525879</ele>
        <time>2016-03-21T20:54:52.000Z</time>
      </trkpt>
      <trkpt lat="48.80894" lon="2.45231">
        <ele>36.599998474121</ele>
        <time>2016-03-21T20:54:55.000Z</time>
      </trkpt>
      <trkpt lat="48.80902" lon="2.45257">
        <ele>35.799999237061</ele>
        <time>2016-03-21T20:54:58.000Z</time>
      </trkpt>
      <trkpt lat="48.80908" lon="2.45284">
        <ele>35.799999237061</ele>
        <time>2016-03-21T20:55:01.000Z</time>
      </trkpt>
      <trkpt lat="48.80915" lon="2.45311">
        <ele>35.599998474121</ele>
        <time>2016-03-21T20:55:04.000Z</time>
      </trkpt>
      <trkpt lat="48.80923" lon="2.45338">
        <ele>35.400001525879</ele>
        <time>2016-03-21T20:55:07.000Z</time>
      </trkpt>
      <trkpt lat="48.8093" lon="2.45364">
        <ele>35.599998474121</ele>
        <time>2016-03-21T20:55:10.000Z</time>
      </trkpt>
      <trkpt lat="48.80939" lon="2.45392">
        <ele>35.799999237061</ele>
        <time>2016-03-21T20:55:13.000Z</time>
      </trkpt>
      <trkpt lat="48.80948" lon="2.45417">
        <ele>35.799999237061</ele>
        <time>2016-03-21T20:55:16.000Z</time>
      </trkpt>
      <trkpt lat="48.8096" lon="2.45446">
        <ele>36.200000762939</ele>
        <time>2016-03-21T20:55:20.000Z</time>
      </trkpt>
      <trkpt lat="48.80963" lon="2.45453">
        <ele>36.200000762939</ele>
        <time>2016-03-21T20:55:21.000Z</time>
      </trkpt>
      <trkpt lat="48.80973" lon="2.4548">
        <ele>36.400001525879</ele>
        <time>2016-03-21T20:55:25.000Z</time>
      </trkpt>
      <trkpt lat="48.80985" lon="2.45509">
        <ele>36.400001525879</ele>
        <time>2016-03-21T20:55:29.000Z</time>
      </trkpt>
      <trkpt lat="48.80997" lon="2.45538">
        <ele>35.799999237061</ele>
        <time>2016-03-21T20:55:33.000Z</time>
      </trkpt>
      <trkpt lat="48.81002" lon="2.45553">
        <ele>35.599998474121</ele>
        <time>2016-03-21T20:55:35.000Z</time>
      </trkpt>
      <trkpt lat="48.81013" lon="2.45583">
        <ele>35.200000762939</ele>
        <time>2016-03-21T20:55:39.000Z</time>
      </trkpt>
      <trkpt lat="48.81025" lon="2.45608">
        <ele>34.599998474121</ele>
        <time>2016-03-21T20:55:43.000Z</time>
      </trkpt>
      <trkpt lat="48.81031" lon="2.45619">
        <ele>34.200000762939</ele>
        <time>2016-03-21T20:55:45.000Z</time>
      </trkpt>
      <trkpt lat="48.81041" lon="2.45642">
        <ele>33.400001525879</ele>
        <time>2016-03-21T20:55:49.000Z</time>
      </trkpt>
      <trkpt lat="48.81048" lon="2.45659">
        <ele>32.799999237061</ele>
        <time>2016-03-21T20:55:53.000Z</time>
      </trkpt>
      <trkpt lat="48.81063" lon="2.45667">
        <ele>32</ele>
        <time>2016-03-21T20:56:19.000Z</time>
      </trkpt>
      <trkpt lat="48.81078" lon="2.45691">
        <ele>31.39999961853</ele>
        <time>2016-03-21T20:56:26.000Z</time>
      </trkpt>
      <trkpt lat="48.8109" lon="2.45711">
        <ele>30.799999237061</ele>
        <time>2016-03-21T20:56:31.000Z</time>
      </trkpt>
      <trkpt lat="48.81104" lon="2.45735">
        <ele>30</ele>
        <time>2016-03-21T20:56:36.000Z</time>
      </trkpt>
      <trkpt lat="48.81116" lon="2.45756">
        <ele>30.39999961853</ele>
        <time>2016-03-21T20:56:40.000Z</time>
      </trkpt>
      <trkpt lat="48.81131" lon="2.45779">
        <ele>31.200000762939</ele>
        <time>2016-03-21T20:56:44.000Z</time>
      </trkpt>
      <trkpt lat="48.81147" lon="2.45806">
        <ele>32.200000762939</ele>
        <time>2016-03-21T20:56:48.000Z</time>
      </trkpt>
      <trkpt lat="48.8116" lon="2.45827">
        <ele>33</ele>
        <time>2016-03-21T20:56:51.000Z</time>
      </trkpt>
      <trkpt lat="48.81174" lon="2.45849">
        <ele>33.599998474121</ele>
        <time>2016-03-21T20:56:54.000Z</time>
      </trkpt>
      <trkpt lat="48.81186" lon="2.45871">
        <ele>34.400001525879</ele>
        <time>2016-03-21T20:56:57.000Z</time>
      </trkpt>
      <trkpt lat="48.81201" lon="2.45898">
        <ele>34.400001525879</ele>
        <time>2016-03-21T20:57:01.000Z</time>
      </trkpt>
      <trkpt lat="48.81217" lon="2.45924">
        <ele>34.400001525879</ele>
        <time>2016-03-21T20:57:05.000Z</time>
      </trkpt>
      <trkpt lat="48.81227" lon="2.45943">
        <ele>34.400001525879</ele>
        <time>2016-03-21T20:57:08.000Z</time>
      </trkpt>
      <trkpt lat="48.81235" lon="2.45954">
        <ele>34.400001525879</ele>
        <time>2016-03-21T20:57:10.000Z</time>
      </trkpt>
      <trkpt lat="48.81249" lon="2.45976">
        <ele>34.200000762939</ele>
        <time>2016-03-21T20:57:14.000Z</time>
      </trkpt>
      <trkpt lat="48.81263" lon="2.45998">
        <ele>34</ele>
        <time>2016-03-21T20:57:18.000Z</time>
      </trkpt>
      <trkpt lat="48.81276" lon="2.46018">
        <ele>34.400001525879</ele>
        <time>2016-03-21T20:57:21.000Z</time>
      </trkpt>
      <trkpt lat="48.81289" lon="2.4604">
        <ele>35.200000762939</ele>
        <time>2016-03-21T20:57:24.000Z</time>
      </trkpt>
      <trkpt lat="48.81306" lon="2.46067">
        <ele>36</ele>
        <time>2016-03-21T20:57:27.000Z</time>
      </trkpt>
      <trkpt lat="48.81322" lon="2.46095">
        <ele>36.599998474121</ele>
        <time>2016-03-21T20:57:30.000Z</time>
      </trkpt>
      <trkpt lat="48.81336" lon="2.46122">
        <ele>36.400001525879</ele>
        <time>2016-03-21T20:57:33.000Z</time>
      </trkpt>
      <trkpt lat="48.8135" lon="2.46146">
        <ele>36.400001525879</ele>
        <time>2016-03-21T20:57:36.000Z</time>
      </trkpt>
      <trkpt lat="48.81362" lon="2.46168">
        <ele>36.400001525879</ele>
        <time>2016-03-21T20:57:39.000Z</time>
      </trkpt>
      <trkpt lat="48.81374" lon="2.46189">
        <ele>37.400001525879</ele>
        <time>2016-03-21T20:57:42.000Z</time>
      </trkpt>
      <trkpt lat="48.81388" lon="2.46216">
        <ele>38.400001525879</ele>
        <time>2016-03-21T20:57:46.000Z</time>
      </trkpt>
      <trkpt lat="48.81401" lon="2.46238">
        <ele>39.200000762939</ele>
        <time>2016-03-21T20:57:50.000Z</time>
      </trkpt>
      <trkpt lat="48.8141" lon="2.46253">
        <ele>40</ele>
        <time>2016-03-21T20:57:54.000Z</time>
      </trkpt>
      <trkpt lat="48.81418" lon="2.46261">
        <ele>40.799999237061</ele>
        <time>2016-03-21T20:57:59.000Z</time>
      </trkpt>
      <trkpt lat="48.81436" lon="2.46258">
        <ele>42.799999237061</ele>
        <time>2016-03-21T20:58:14.000Z</time>
      </trkpt>
      <trkpt lat="48.81443" lon="2.46264">
        <ele>43.400001525879</ele>
        <time>2016-03-21T20:58:18.000Z</time>
      </trkpt>
      <trkpt lat="48.81461" lon="2.46278">
        <ele>45</ele>
        <time>2016-03-21T20:58:25.000Z</time>
      </trkpt>
      <trkpt lat="48.81474" lon="2.46297">
        <ele>46.200000762939</ele>
        <time>2016-03-21T20:58:32.000Z</time>
      </trkpt>
      <trkpt lat="48.81487" lon="2.4632">
        <ele>47.400001525879</ele>
        <time>2016-03-21T20:58:39.000Z</time>
      </trkpt>
      <trkpt lat="48.81502" lon="2.4634">
        <ele>48.599998474121</ele>
        <time>2016-03-21T20:58:45.000Z</time>
      </trkpt>
      <trkpt lat="48.81517" lon="2.46362">
        <ele>49.599998474121</ele>
        <time>2016-03-21T20:58:51.000Z</time>
      </trkpt>
      <trkpt lat="48.8153" lon="2.46385">
        <ele>50.599998474121</ele>
        <time>2016-03-21T20:58:57.000Z</time>
      </trkpt>
      <trkpt lat="48.81546" lon="2.46409">
        <ele>51.799999237061</ele>
        <time>2016-03-21T20:59:03.000Z</time>
      </trkpt>
      <trkpt lat="48.8156" lon="2.4643">
        <ele>52.599998474121</ele>
        <time>2016-03-21T20:59:06.000Z</time>
      </trkpt>
      <trkpt lat="48.81572" lon="2.46452">
        <ele>53.200000762939</ele>
        <time>2016-03-21T20:59:09.000Z</time>
      </trkpt>
      <trkpt lat="48.81585" lon="2.46474">
        <ele>53.799999237061</ele>
        <time>2016-03-21T20:59:12.000Z</time>
      </trkpt>
      <trkpt lat="48.81601" lon="2.46502">
        <ele>55</ele>
        <time>2016-03-21T20:59:15.000Z</time>
      </trkpt>
      <trkpt lat="48.81618" lon="2.46527">
        <ele>55.599998474121</ele>
        <time>2016-03-21T20:59:18.000Z</time>
      </trkpt>
      <trkpt lat="48.81636" lon="2.46552">
        <ele>56.200000762939</ele>
        <time>2016-03-21T20:59:21.000Z</time>
      </trkpt>
      <trkpt lat="48.8165" lon="2.46575">
        <ele>56.799999237061</ele>
        <time>2016-03-21T20:59:24.000Z</time>
      </trkpt>
      <trkpt lat="48.81654" lon="2.46583">
        <ele>57</ele>
        <time>2016-03-21T20:59:25.000Z</time>
      </trkpt>
      <trkpt lat="48.81668" lon="2.46607">
        <ele>55.799999237061</ele>
        <time>2016-03-21T20:59:28.000Z</time>
      </trkpt>
      <trkpt lat="48.81681" lon="2.4663">
        <ele>54.799999237061</ele>
        <time>2016-03-21T20:59:31.000Z</time>
      </trkpt>
      <trkpt lat="48.81693" lon="2.46653">
        <ele>53.799999237061</ele>
        <time>2016-03-21T20:59:34.000Z</time>
      </trkpt>
      <trkpt lat="48.81705" lon="2.46674">
        <ele>53.200000762939</ele>
        <time>2016-03-21T20:59:37.000Z</time>
      </trkpt>
      <trkpt lat="48.81718" lon="2.46697">
        <ele>53</ele>
        <time>2016-03-21T20:59:42.000Z</time>
      </trkpt>
      <trkpt lat="48.81719" lon="2.46701">
        <ele>53</ele>
        <time>2016-03-21T20:59:43.000Z</time>
      </trkpt>
      <trkpt lat="48.81727" lon="2.46711">
        <ele>53</ele>
        <time>2016-03-21T21:00:59.000Z</time>
      </trkpt>
      <trkpt lat="48.81731" lon="2.46713">
        <ele>53</ele>
        <time>2016-03-21T21:01:02.000Z</time>
      </trkpt>
      <trkpt lat="48.81745" lon="2.46709">
        <ele>53.200000762939</ele>
        <time>2016-03-21T21:01:07.000Z</time>
      </trkpt>
      <trkpt lat="48.8176" lon="2.46694">
        <ele>53.599998474121</ele>
        <time>2016-03-21T21:01:12.000Z</time>
      </trkpt>
      <trkpt lat="48.81778" lon="2.46678">
        <ele>53.799999237061</ele>
        <time>2016-03-21T21:01:17.000Z</time>
      </trkpt>
      <trkpt lat="48.81797" lon="2.46664">
        <ele>54</ele>
        <time>2016-03-21T21:01:22.000Z</time>
      </trkpt>
      <trkpt lat="48.81813" lon="2.4664">
        <ele>54.599998474121</ele>
        <time>2016-03-21T21:01:27.000Z</time>
      </trkpt>
      <trkpt lat="48.81829" lon="2.46623">
        <ele>54.799999237061</ele>
        <time>2016-03-21T21:01:32.000Z</time>
      </trkpt>
      <trkpt lat="48.81844" lon="2.46605">
        <ele>54.799999237061</ele>
        <time>2016-03-21T21:01:37.000Z</time>
      </trkpt>
      <trkpt lat="48.81859" lon="2.46589">
        <ele>54.799999237061</ele>
        <time>2016-03-21T21:01:41.000Z</time>
      </trkpt>
      <trkpt lat="48.81874" lon="2.46573">
        <ele>54.400001525879</ele>
        <time>2016-03-21T21:01:45.000Z</time>
      </trkpt>
      <trkpt lat="48.81889" lon="2.46557">
        <ele>53.799999237061</ele>
        <time>2016-03-21T21:01:49.000Z</time>
      </trkpt>
      <trkpt lat="48.81907" lon="2.46535">
        <ele>53.599998474121</ele>
        <time>2016-03-21T21:01:54.000Z</time>
      </trkpt>
      <trkpt lat="48.81922" lon="2.4652">
        <ele>53.799999237061</ele>
        <time>2016-03-21T21:01:58.000Z</time>
      </trkpt>
      <trkpt lat="48.81938" lon="2.46506">
        <ele>54</ele>
        <time>2016-03-21T21:02:02.000Z</time>
      </trkpt>
      <trkpt lat="48.81954" lon="2.46486">
        <ele>54.200000762939</ele>
        <time>2016-03-21T21:02:06.000Z</time>
      </trkpt>
      <trkpt lat="48.81968" lon="2.46466">
        <ele>54.400001525879</ele>
        <time>2016-03-21T21:02:10.000Z</time>
      </trkpt>
      <trkpt lat="48.81972" lon="2.46462">
        <ele>54.400001525879</ele>
        <time>2016-03-21T21:02:11.000Z</time>
      </trkpt>
      <trkpt lat="48.81983" lon="2.46457">
        <ele>54.599998474121</ele>
        <time>2016-03-21T21:02:15.000Z</time>
      </trkpt>
      <trkpt lat="48.81999" lon="2.46448">
        <ele>54.599998474121</ele>
        <time>2016-03-21T21:02:22.000Z</time>
      </trkpt>
      <trkpt lat="48.82005" lon="2.46427">
        <ele>54</ele>
        <time>2016-03-21T21:02:46.000Z</time>
      </trkpt>
      <trkpt lat="48.82023" lon="2.46414">
        <ele>54</ele>
        <time>2016-03-21T21:02:54.000Z</time>
      </trkpt>
      <trkpt lat="48.82043" lon="2.46415">
        <ele>54.400001525879</ele>
        <time>2016-03-21T21:03:00.000Z</time>
      </trkpt>
      <trkpt lat="48.82064" lon="2.46418">
        <ele>55</ele>
        <time>2016-03-21T21:03:06.000Z</time>
      </trkpt>
      <trkpt lat="48.82084" lon="2.46426">
        <ele>55.200000762939</ele>
        <time>2016-03-21T21:03:11.000Z</time>
      </trkpt>
      <trkpt lat="48.82102" lon="2.46434">
        <ele>55.400001525879</ele>
        <time>2016-03-21T21:03:15.000Z</time>
      </trkpt>
      <trkpt lat="48.82123" lon="2.46441">
        <ele>55.200000762939</ele>
        <time>2016-03-21T21:03:19.000Z</time>
      </trkpt>
      <trkpt lat="48.82145" lon="2.46448">
        <ele>54.799999237061</ele>
        <time>2016-03-21T21:03:23.000Z</time>
      </trkpt>
      <trkpt lat="48.82167" lon="2.46456">
        <ele>54.599998474121</ele>
        <time>2016-03-21T21:03:27.000Z</time>
      </trkpt>
      <trkpt lat="48.82185" lon="2.46466">
        <ele>54.200000762939</ele>
        <time>2016-03-21T21:03:30.000Z</time>
      </trkpt>
      <trkpt lat="48.82205" lon="2.46478">
        <ele>53.400001525879</ele>
        <time>2016-03-21T21:03:33.000Z</time>
      </trkpt>
      <trkpt lat="48.82222" lon="2.46489">
        <ele>52.599998474121</ele>
        <time>2016-03-21T21:03:36.000Z</time>
      </trkpt>
      <trkpt lat="48.8224" lon="2.46501">
        <ele>51.799999237061</ele>
        <time>2016-03-21T21:03:39.000Z</time>
      </trkpt>
      <trkpt lat="48.82258" lon="2.46513">
        <ele>51</ele>
        <time>2016-03-21T21:03:42.000Z</time>
      </trkpt>
      <trkpt lat="48.82277" lon="2.46524">
        <ele>50.200000762939</ele>
        <time>2016-03-21T21:03:45.000Z</time>
      </trkpt>
      <trkpt lat="48.82297" lon="2.46528">
        <ele>49.400001525879</ele>
        <time>2016-03-21T21:03:48.000Z</time>
      </trkpt>
      <trkpt lat="48.82316" lon="2.46529">
        <ele>49.599998474121</ele>
        <time>2016-03-21T21:03:51.000Z</time>
      </trkpt>
      <trkpt lat="48.82334" lon="2.46529">
        <ele>50</ele>
        <time>2016-03-21T21:03:54.000Z</time>
      </trkpt>
      <trkpt lat="48.82358" lon="2.46526">
        <ele>50.599998474121</ele>
        <time>2016-03-21T21:03:58.000Z</time>
      </trkpt>
      <trkpt lat="48.82365" lon="2.46525">
        <ele>50.599998474121</ele>
        <time>2016-03-21T21:03:59.000Z</time>
      </trkpt>
      <trkpt lat="48.82383" lon="2.4652">
        <ele>50.400001525879</ele>
        <time>2016-03-21T21:04:02.000Z</time>
      </trkpt>
      <trkpt lat="48.82406" lon="2.46515">
        <ele>49.799999237061</ele>
        <time>2016-03-21T21:04:06.000Z</time>
      </trkpt>
      <trkpt lat="48.82425" lon="2.46509">
        <ele>49.799999237061</ele>
        <time>2016-03-21T21:04:09.000Z</time>
      </trkpt>
      <trkpt lat="48.82445" lon="2.46505">
        <ele>49.599998474121</ele>
        <time>2016-03-21T21:04:12.000Z</time>
      </trkpt>
      <trkpt lat="48.82468" lon="2.46501">
        <ele>49.599998474121</ele>
        <time>2016-03-21T21:04:16.000Z</time>
      </trkpt>
      <trkpt lat="48.8249" lon="2.46497">
        <ele>49.400001525879</ele>
        <time>2016-03-21T21:04:20.000Z</time>
      </trkpt>
      <trkpt lat="48.82509" lon="2.46492">
        <ele>49.200000762939</ele>
        <time>2016-03-21T21:04:24.000Z</time>
      </trkpt>
      <trkpt lat="48.82527" lon="2.46486">
        <ele>49</ele>
        <time>2016-03-21T21:04:28.000Z</time>
      </trkpt>
      <trkpt lat="48.82546" lon="2.4648">
        <ele>49.200000762939</ele>
        <time>2016-03-21T21:04:32.000Z</time>
      </trkpt>
      <trkpt lat="48.82565" lon="2.46475">
        <ele>49.599998474121</ele>
        <time>2016-03-21T21:04:36.000Z</time>
      </trkpt>
      <trkpt lat="48.82573" lon="2.46473">
        <ele>49.599998474121</ele>
        <time>2016-03-21T21:04:38.000Z</time>
      </trkpt>
      <trkpt lat="48.82595" lon="2.4647">
        <ele>50.200000762939</ele>
        <time>2016-03-21T21:04:43.000Z</time>
      </trkpt>
      <trkpt lat="48.82617" lon="2.46467">
        <ele>51.400001525879</ele>
        <time>2016-03-21T21:04:48.000Z</time>
      </trkpt>
      <trkpt lat="48.82637" lon="2.46463">
        <ele>53.200000762939</ele>
        <time>2016-03-21T21:04:53.000Z</time>
      </trkpt>
      <trkpt lat="48.82658" lon="2.46459">
        <ele>54.799999237061</ele>
        <time>2016-03-21T21:04:58.000Z</time>
      </trkpt>
      <trkpt lat="48.82676" lon="2.46455">
        <ele>56.400001525879</ele>
        <time>2016-03-21T21:05:03.000Z</time>
      </trkpt>
      <trkpt lat="48.82694" lon="2.46448">
        <ele>57.799999237061</ele>
        <time>2016-03-21T21:05:10.000Z</time>
      </trkpt>
      <trkpt lat="48.82693" lon="2.46443">
        <ele>58</ele>
        <time>2016-03-21T21:05:14.000Z</time>
      </trkpt>
      <trkpt lat="48.82694" lon="2.4644">
        <ele>58</ele>
        <time>2016-03-21T21:05:15.000Z</time>
      </trkpt>
      <trkpt lat="48.82697" lon="2.46429">
        <ele>58.400001525879</ele>
        <time>2016-03-21T21:05:22.000Z</time>
      </trkpt>
      <trkpt lat="48.82701" lon="2.4643">
        <ele>58.599998474121</ele>
        <time>2016-03-21T21:06:16.000Z</time>
      </trkpt>
      <trkpt lat="48.82707" lon="2.46443">
        <ele>58.799999237061</ele>
        <time>2016-03-21T21:06:20.000Z</time>
      </trkpt>
      <trkpt lat="48.82721" lon="2.46462">
        <ele>59.400001525879</ele>
        <time>2016-03-21T21:06:27.000Z</time>
      </trkpt>
      <trkpt lat="48.82739" lon="2.46475">
        <ele>60.200000762939</ele>
        <time>2016-03-21T21:06:33.000Z</time>
      </trkpt>
      <trkpt lat="48.82754" lon="2.46492">
        <ele>61</ele>
        <time>2016-03-21T21:06:39.000Z</time>
      </trkpt>
      <trkpt lat="48.82769" lon="2.4651">
        <ele>62</ele>
        <time>2016-03-21T21:06:45.000Z</time>
      </trkpt>
      <trkpt lat="48.82784" lon="2.46527">
        <ele>61.799999237061</ele>
        <time>2016-03-21T21:06:51.000Z</time>
      </trkpt>
      <trkpt lat="48.82799" lon="2.46544">
        <ele>61.200000762939</ele>
        <time>2016-03-21T21:06:56.000Z</time>
      </trkpt>
      <trkpt lat="48.82814" lon="2.46561">
        <ele>60.799999237061</ele>
        <time>2016-03-21T21:07:00.000Z</time>
      </trkpt>
      <trkpt lat="48.82831" lon="2.4658">
        <ele>60.200000762939</ele>
        <time>2016-03-21T21:07:05.000Z</time>
      </trkpt>
      <trkpt lat="48.82848" lon="2.466">
        <ele>59</ele>
        <time>2016-03-21T21:07:10.000Z</time>
      </trkpt>
      <trkpt lat="48.82866" lon="2.46619">
        <ele>58.400001525879</ele>
        <time>2016-03-21T21:07:15.000Z</time>
      </trkpt>
      <trkpt lat="48.82881" lon="2.46638">
        <ele>58.200000762939</ele>
        <time>2016-03-21T21:07:19.000Z</time>
      </trkpt>
      <trkpt lat="48.82897" lon="2.46655">
        <ele>58.200000762939</ele>
        <time>2016-03-21T21:07:23.000Z</time>
      </trkpt>
      <trkpt lat="48.82916" lon="2.46672">
        <ele>58</ele>
        <time>2016-03-21T21:07:27.000Z</time>
      </trkpt>
      <trkpt lat="48.82931" lon="2.46688">
        <ele>57.400001525879</ele>
        <time>2016-03-21T21:07:31.000Z</time>
      </trkpt>
      <trkpt lat="48.82934" lon="2.46694">
        <ele>57.200000762939</ele>
        <time>2016-03-21T21:07:32.000Z</time>
      </trkpt>
      <trkpt lat="48.82952" lon="2.46717">
        <ele>57</ele>
        <time>2016-03-21T21:07:36.000Z</time>
      </trkpt>
      <trkpt lat="48.82967" lon="2.46734">
        <ele>57.200000762939</ele>
        <time>2016-03-21T21:07:39.000Z</time>
      </trkpt>
      <trkpt lat="48.82984" lon="2.46755">
        <ele>57.400001525879</ele>
        <time>2016-03-21T21:07:43.000Z</time>
      </trkpt>
      <trkpt lat="48.82999" lon="2.46774">
        <ele>57.599998474121</ele>
        <time>2016-03-21T21:07:47.000Z</time>
      </trkpt>
      <trkpt lat="48.83015" lon="2.46793">
        <ele>57.799999237061</ele>
        <time>2016-03-21T21:07:51.000Z</time>
      </trkpt>
      <trkpt lat="48.8303" lon="2.46808">
        <ele>57.799999237061</ele>
        <time>2016-03-21T21:07:55.000Z</time>
      </trkpt>
      <trkpt lat="48.83047" lon="2.46824">
        <ele>57.799999237061</ele>
        <time>2016-03-21T21:08:00.000Z</time>
      </trkpt>
      <trkpt lat="48.83064" lon="2.46839">
        <ele>57.799999237061</ele>
        <time>2016-03-21T21:08:05.000Z</time>
      </trkpt>
      <trkpt lat="48.83079" lon="2.46862">
        <ele>57.599998474121</ele>
        <time>2016-03-21T21:08:09.000Z</time>
      </trkpt>
      <trkpt lat="48.83091" lon="2.46879">
        <ele>57.599998474121</ele>
        <time>2016-03-21T21:08:11.000Z</time>
      </trkpt>
      <trkpt lat="48.83105" lon="2.46899">
        <ele>57.599998474121</ele>
        <time>2016-03-21T21:08:15.000Z</time>
      </trkpt>
      <trkpt lat="48.83108" lon="2.46902">
        <ele>57.599998474121</ele>
        <time>2016-03-21T21:08:16.000Z</time>
      </trkpt>
      <trkpt lat="48.83119" lon="2.46913">
        <ele>57.400001525879</ele>
        <time>2016-03-21T21:08:20.000Z</time>
      </trkpt>
      <trkpt lat="48.83136" lon="2.46932">
        <ele>57.799999237061</ele>
        <time>2016-03-21T21:08:25.000Z</time>
      </trkpt>
      <trkpt lat="48.83154" lon="2.46951">
        <ele>58.200000762939</ele>
        <time>2016-03-21T21:08:29.000Z</time>
      </trkpt>
      <trkpt lat="48.83166" lon="2.46964">
        <ele>58.400001525879</ele>
        <time>2016-03-21T21:08:31.000Z</time>
      </trkpt>
      <trkpt lat="48.83184" lon="2.46984">
        <ele>58.799999237061</ele>
        <time>2016-03-21T21:08:34.000Z</time>
      </trkpt>
      <trkpt lat="48.83202" lon="2.47009">
        <ele>59.200000762939</ele>
        <time>2016-03-21T21:08:37.000Z</time>
      </trkpt>
      <trkpt lat="48.8322" lon="2.47028">
        <ele>59.400001525879</ele>
        <time>2016-03-21T21:08:40.000Z</time>
      </trkpt>
      <trkpt lat="48.83239" lon="2.47046">
        <ele>59.599998474121</ele>
        <time>2016-03-21T21:08:43.000Z</time>
      </trkpt>
      <trkpt lat="48.83261" lon="2.47071">
        <ele>59.799999237061</ele>
        <time>2016-03-21T21:08:46.000Z</time>
      </trkpt>
      <trkpt lat="48.83279" lon="2.47094">
        <ele>60</ele>
        <time>2016-03-21T21:08:49.000Z</time>
      </trkpt>
      <trkpt lat="48.83295" lon="2.47113">
        <ele>60.200000762939</ele>
        <time>2016-03-21T21:08:52.000Z</time>
      </trkpt>
      <trkpt lat="48.83311" lon="2.47131">
        <ele>60.400001525879</ele>
        <time>2016-03-21T21:08:56.000Z</time>
      </trkpt>
      <trkpt lat="48.83318" lon="2.47136">
        <ele>60.599998474121</ele>
        <time>2016-03-21T21:08:58.000Z</time>
      </trkpt>
      <trkpt lat="48.83331" lon="2.47123">
        <ele>60.400001525879</ele>
        <time>2016-03-21T21:09:06.000Z</time>
      </trkpt>
      <trkpt lat="48.83339" lon="2.47124">
        <ele>60.400001525879</ele>
        <time>2016-03-21T21:09:09.000Z</time>
      </trkpt>
      <trkpt lat="48.8336" lon="2.47128">
        <ele>60.799999237061</ele>
        <time>2016-03-21T21:09:16.000Z</time>
      </trkpt>
      <trkpt lat="48.8338" lon="2.47133">
        <ele>61.799999237061</ele>
        <time>2016-03-21T21:09:22.000Z</time>
      </trkpt>
      <trkpt lat="48.83387" lon="2.47134">
        <ele>62.200000762939</ele>
        <time>2016-03-21T21:09:24.000Z</time>
      </trkpt>
      <trkpt lat="48.83407" lon="2.47134">
        <ele>63</ele>
        <time>2016-03-21T21:09:30.000Z</time>
      </trkpt>
      <trkpt lat="48.83409" lon="2.47133">
        <ele>63.200000762939</ele>
        <time>2016-03-21T21:09:31.000Z</time>
      </trkpt>
      <trkpt lat="48.83429" lon="2.47134">
        <ele>63.799999237061</ele>
        <time>2016-03-21T21:09:37.000Z</time>
      </trkpt>
      <trkpt lat="48.83433" lon="2.47134">
        <ele>64</ele>
        <time>2016-03-21T21:09:38.000Z</time>
      </trkpt>
      <trkpt lat="48.83448" lon="2.47136">
        <ele>64.199996948242</ele>
        <time>2016-03-21T21:09:41.000Z</time>
      </trkpt>
      <trkpt lat="48.83462" lon="2.47137">
        <ele>64.400001525879</ele>
        <time>2016-03-21T21:09:44.000Z</time>
      </trkpt>
      <trkpt lat="48.83483" lon="2.47139">
        <ele>64.400001525879</ele>
        <time>2016-03-21T21:09:48.000Z</time>
      </trkpt>
      <trkpt lat="48.83502" lon="2.47142">
        <ele>64.400001525879</ele>
        <time>2016-03-21T21:09:52.000Z</time>
      </trkpt>
      <trkpt lat="48.8352" lon="2.47143">
        <ele>64.599998474121</ele>
        <time>2016-03-21T21:09:56.000Z</time>
      </trkpt>
      <trkpt lat="48.83531" lon="2.47143">
        <ele>64.599998474121</ele>
        <time>2016-03-21T21:09:58.000Z</time>
      </trkpt>
      <trkpt lat="48.83549" lon="2.47141">
        <ele>64</ele>
        <time>2016-03-21T21:10:02.000Z</time>
      </trkpt>
      <trkpt lat="48.83558" lon="2.4714">
        <ele>63.799999237061</ele>
        <time>2016-03-21T21:10:04.000Z</time>
      </trkpt>
      <trkpt lat="48.83575" lon="2.47152">
        <ele>63.599998474121</ele>
        <time>2016-03-21T21:10:10.000Z</time>
      </trkpt>
      <trkpt lat="48.83584" lon="2.47158">
        <ele>63.400001525879</ele>
        <time>2016-03-21T21:10:15.000Z</time>
      </trkpt>
      <trkpt lat="48.83585" lon="2.47157">
        <ele>63.400001525879</ele>
        <time>2016-03-21T21:10:16.000Z</time>
      </trkpt>
      <trkpt lat="48.83601" lon="2.47154">
        <ele>63.200000762939</ele>
        <time>2016-03-21T21:10:44.000Z</time>
      </trkpt>
      <trkpt lat="48.83614" lon="2.47142">
        <ele>63.200000762939</ele>
        <time>2016-03-21T21:11:04.000Z</time>
      </trkpt>
      <trkpt lat="48.83633" lon="2.47134">
        <ele>63</ele>
        <time>2016-03-21T21:11:09.000Z</time>
      </trkpt>
      <trkpt lat="48.83653" lon="2.47129">
        <ele>62.799999237061</ele>
        <time>2016-03-21T21:11:13.000Z</time>
      </trkpt>
      <trkpt lat="48.83674" lon="2.47126">
        <ele>62.599998474121</ele>
        <time>2016-03-21T21:11:17.000Z</time>
      </trkpt>
      <trkpt lat="48.83692" lon="2.4712">
        <ele>62.599998474121</ele>
        <time>2016-03-21T21:11:20.000Z</time>
      </trkpt>
      <trkpt lat="48.83712" lon="2.4711">
        <ele>63.400001525879</ele>
        <time>2016-03-21T21:11:23.000Z</time>
      </trkpt>
      <trkpt lat="48.83734" lon="2.471">
        <ele>63.400001525879</ele>
        <time>2016-03-21T21:11:27.000Z</time>
      </trkpt>
      <trkpt lat="48.8374" lon="2.47098">
        <ele>63.400001525879</ele>
        <time>2016-03-21T21:11:28.000Z</time>
      </trkpt>
      <trkpt lat="48.83758" lon="2.4709">
        <ele>63.200000762939</ele>
        <time>2016-03-21T21:11:31.000Z</time>
      </trkpt>
      <trkpt lat="48.83764" lon="2.47087">
        <ele>63.200000762939</ele>
        <time>2016-03-21T21:11:32.000Z</time>
      </trkpt>
      <trkpt lat="48.83776" lon="2.47082">
        <ele>63</ele>
        <time>2016-03-21T21:11:34.000Z</time>
      </trkpt>
      <trkpt lat="48.83793" lon="2.47072">
        <ele>62.799999237061</ele>
        <time>2016-03-21T21:11:37.000Z</time>
      </trkpt>
      <trkpt lat="48.83813" lon="2.4706">
        <ele>62.799999237061</ele>
        <time>2016-03-21T21:11:40.000Z</time>
      </trkpt>
      <trkpt lat="48.83833" lon="2.47045">
        <ele>63</ele>
        <time>2016-03-21T21:11:43.000Z</time>
      </trkpt>
      <trkpt lat="48.83852" lon="2.47031">
        <ele>63.599998474121</ele>
        <time>2016-03-21T21:11:46.000Z</time>
      </trkpt>
      <trkpt lat="48.8387" lon="2.47016">
        <ele>64.199996948242</ele>
        <time>2016-03-21T21:11:49.000Z</time>
      </trkpt>
      <trkpt lat="48.83888" lon="2.47002">
        <ele>63.400001525879</ele>
        <time>2016-03-21T21:11:52.000Z</time>
      </trkpt>
      <trkpt lat="48.83905" lon="2.46987">
        <ele>62.599998474121</ele>
        <time>2016-03-21T21:11:55.000Z</time>
      </trkpt>
      <trkpt lat="48.83921" lon="2.46971">
        <ele>62.200000762939</ele>
        <time>2016-03-21T21:11:58.000Z</time>
      </trkpt>
      <trkpt lat="48.83939" lon="2.46955">
        <ele>62.599998474121</ele>
        <time>2016-03-21T21:12:01.000Z</time>
      </trkpt>
      <trkpt lat="48.83956" lon="2.46939">
        <ele>63.599998474121</ele>
        <time>2016-03-21T21:12:04.000Z</time>
      </trkpt>
      <trkpt lat="48.83974" lon="2.46921">
        <ele>62.799999237061</ele>
        <time>2016-03-21T21:12:07.000Z</time>
      </trkpt>
      <trkpt lat="48.83991" lon="2.46905">
        <ele>62.400001525879</ele>
        <time>2016-03-21T21:12:10.000Z</time>
      </trkpt>
      <trkpt lat="48.83997" lon="2.469">
        <ele>62.400001525879</ele>
        <time>2016-03-21T21:12:11.000Z</time>
      </trkpt>
      <trkpt lat="48.84014" lon="2.46886">
        <ele>62.200000762939</ele>
        <time>2016-03-21T21:12:14.000Z</time>
      </trkpt>
      <trkpt lat="48.84029" lon="2.4687">
        <ele>62.200000762939</ele>
        <time>2016-03-21T21:12:17.000Z</time>
      </trkpt>
      <trkpt lat="48.84034" lon="2.46866">
        <ele>62.200000762939</ele>
        <time>2016-03-21T21:12:18.000Z</time>
      </trkpt>
      <trkpt lat="48.8405" lon="2.46851">
        <ele>62.599998474121</ele>
        <time>2016-03-21T21:12:21.000Z</time>
      </trkpt>
      <trkpt lat="48.84066" lon="2.46834">
        <ele>62.599998474121</ele>
        <time>2016-03-21T21:12:24.000Z</time>
      </trkpt>
      <trkpt lat="48.84083" lon="2.46818">
        <ele>62.799999237061</ele>
        <time>2016-03-21T21:12:27.000Z</time>
      </trkpt>
      <trkpt lat="48.84102" lon="2.46796">
        <ele>63.400001525879</ele>
        <time>2016-03-21T21:12:31.000Z</time>
      </trkpt>
      <trkpt lat="48.84117" lon="2.46778">
        <ele>64</ele>
        <time>2016-03-21T21:12:34.000Z</time>
      </trkpt>
      <trkpt lat="48.84127" lon="2.46768">
        <ele>64.199996948242</ele>
        <time>2016-03-21T21:12:36.000Z</time>
      </trkpt>
      <trkpt lat="48.84145" lon="2.46748">
        <ele>64</ele>
        <time>2016-03-21T21:12:40.000Z</time>
      </trkpt>
      <trkpt lat="48.84163" lon="2.46726">
        <ele>63.799999237061</ele>
        <time>2016-03-21T21:12:44.000Z</time>
      </trkpt>
      <trkpt lat="48.8418" lon="2.46703">
        <ele>64.800003051758</ele>
        <time>2016-03-21T21:12:48.000Z</time>
      </trkpt>
      <trkpt lat="48.84196" lon="2.4668">
        <ele>65.800003051758</ele>
        <time>2016-03-21T21:12:52.000Z</time>
      </trkpt>
      <trkpt lat="48.84213" lon="2.46657">
        <ele>65.199996948242</ele>
        <time>2016-03-21T21:12:56.000Z</time>
      </trkpt>
      <trkpt lat="48.84221" lon="2.46645">
        <ele>64.800003051758</ele>
        <time>2016-03-21T21:12:58.000Z</time>
      </trkpt>
      <trkpt lat="48.84232" lon="2.46625">
        <ele>64</ele>
        <time>2016-03-21T21:13:01.000Z</time>
      </trkpt>
      <trkpt lat="48.8424" lon="2.46612">
        <ele>63.799999237061</ele>
        <time>2016-03-21T21:13:03.000Z</time>
      </trkpt>
      <trkpt lat="48.84251" lon="2.46591">
        <ele>63.400001525879</ele>
        <time>2016-03-21T21:13:06.000Z</time>
      </trkpt>
      <trkpt lat="48.84263" lon="2.4657">
        <ele>63</ele>
        <time>2016-03-21T21:13:09.000Z</time>
      </trkpt>
      <trkpt lat="48.84271" lon="2.46556">
        <ele>62.599998474121</ele>
        <time>2016-03-21T21:13:11.000Z</time>
      </trkpt>
      <trkpt lat="48.84284" lon="2.46529">
        <ele>62.599998474121</ele>
        <time>2016-03-21T21:13:15.000Z</time>
      </trkpt>
      <trkpt lat="48.84293" lon="2.4651">
        <ele>62.599998474121</ele>
        <time>2016-03-21T21:13:18.000Z</time>
      </trkpt>
      <trkpt lat="48.843" lon="2.46488">
        <ele>62.400001525879</ele>
        <time>2016-03-21T21:13:23.000Z</time>
      </trkpt>
      <trkpt lat="48.84301" lon="2.46494">
        <ele>62.400001525879</ele>
        <time>2016-03-21T21:14:32.000Z</time>
      </trkpt>
      <trkpt lat="48.84306" lon="2.46473">
        <ele>62.799999237061</ele>
        <time>2016-03-21T21:14:56.000Z</time>
      </trkpt>
      <trkpt lat="48.84319" lon="2.46452">
        <ele>62.799999237061</ele>
        <time>2016-03-21T21:15:02.000Z</time>
      </trkpt>
      <trkpt lat="48.84332" lon="2.46428">
        <ele>61.799999237061</ele>
        <time>2016-03-21T21:15:07.000Z</time>
      </trkpt>
      <trkpt lat="48.84338" lon="2.46418">
        <ele>61.400001525879</ele>
        <time>2016-03-21T21:15:09.000Z</time>
      </trkpt>
      <trkpt lat="48.84351" lon="2.46392">
        <ele>61</ele>
        <time>2016-03-21T21:15:13.000Z</time>
      </trkpt>
      <trkpt lat="48.8436" lon="2.46365">
        <ele>61</ele>
        <time>2016-03-21T21:15:17.000Z</time>
      </trkpt>
      <trkpt lat="48.84368" lon="2.46338">
        <ele>61</ele>
        <time>2016-03-21T21:15:21.000Z</time>
      </trkpt>
      <trkpt lat="48.84378" lon="2.46312">
        <ele>61</ele>
        <time>2016-03-21T21:15:25.000Z</time>
      </trkpt>
      <trkpt lat="48.84387" lon="2.46286">
        <ele>61</ele>
        <time>2016-03-21T21:15:29.000Z</time>
      </trkpt>
      <trkpt lat="48.84396" lon="2.46263">
        <ele>60.599998474121</ele>
        <time>2016-03-21T21:15:33.000Z</time>
      </trkpt>
      <trkpt lat="48.84406" lon="2.46238">
        <ele>60.200000762939</ele>
        <time>2016-03-21T21:15:37.000Z</time>
      </trkpt>
      <trkpt lat="48.84414" lon="2.46211">
        <ele>59.599998474121</ele>
        <time>2016-03-21T21:15:41.000Z</time>
      </trkpt>
      <trkpt lat="48.84421" lon="2.46182">
        <ele>58.799999237061</ele>
        <time>2016-03-21T21:15:45.000Z</time>
      </trkpt>
      <trkpt lat="48.84426" lon="2.4616">
        <ele>58</ele>
        <time>2016-03-21T21:15:48.000Z</time>
      </trkpt>
      <trkpt lat="48.84434" lon="2.4613">
        <ele>57.599998474121</ele>
        <time>2016-03-21T21:15:52.000Z</time>
      </trkpt>
      <trkpt lat="48.84441" lon="2.46097">
        <ele>57.200000762939</ele>
        <time>2016-03-21T21:15:56.000Z</time>
      </trkpt>
      <trkpt lat="48.84446" lon="2.46072">
        <ele>57.200000762939</ele>
        <time>2016-03-21T21:15:59.000Z</time>
      </trkpt>
      <trkpt lat="48.84452" lon="2.46039">
        <ele>57.400001525879</ele>
        <time>2016-03-21T21:16:03.000Z</time>
      </trkpt>
      <trkpt lat="48.84458" lon="2.46005">
        <ele>57.200000762939</ele>
        <time>2016-03-21T21:16:07.000Z</time>
      </trkpt>
      <trkpt lat="48.84462" lon="2.45977">
        <ele>56.799999237061</ele>
        <time>2016-03-21T21:16:10.000Z</time>
      </trkpt>
      <trkpt lat="48.84466" lon="2.4595">
        <ele>56.400001525879</ele>
        <time>2016-03-21T21:16:13.000Z</time>
      </trkpt>
      <trkpt lat="48.84473" lon="2.45917">
        <ele>56</ele>
        <time>2016-03-21T21:16:17.000Z</time>
      </trkpt>
      <trkpt lat="48.84477" lon="2.4589">
        <ele>56.599998474121</ele>
        <time>2016-03-21T21:16:20.000Z</time>
      </trkpt>
      <trkpt lat="48.84483" lon="2.45864">
        <ele>56.799999237061</ele>
        <time>2016-03-21T21:16:23.000Z</time>
      </trkpt>
      <trkpt lat="48.84487" lon="2.45837">
        <ele>56.400001525879</ele>
        <time>2016-03-21T21:16:26.000Z</time>
      </trkpt>
      <trkpt lat="48.84492" lon="2.45802">
        <ele>55.400001525879</ele>
        <time>2016-03-21T21:16:30.000Z</time>
      </trkpt>
      <trkpt lat="48.84497" lon="2.45776">
        <ele>55</ele>
        <time>2016-03-21T21:16:33.000Z</time>
      </trkpt>
      <trkpt lat="48.84502" lon="2.45749">
        <ele>54.400001525879</ele>
        <time>2016-03-21T21:16:36.000Z</time>
      </trkpt>
      <trkpt lat="48.84505" lon="2.45722">
        <ele>54.200000762939</ele>
        <time>2016-03-21T21:16:39.000Z</time>
      </trkpt>
      <trkpt lat="48.84511" lon="2.45687">
        <ele>53.599998474121</ele>
        <time>2016-03-21T21:16:43.000Z</time>
      </trkpt>
      <trkpt lat="48.84517" lon="2.4566">
        <ele>53.200000762939</ele>
        <time>2016-03-21T21:16:46.000Z</time>
      </trkpt>
      <trkpt lat="48.84524" lon="2.45625">
        <ele>54</ele>
        <time>2016-03-21T21:16:50.000Z</time>
      </trkpt>
      <trkpt lat="48.8453" lon="2.45598">
        <ele>54.599998474121</ele>
        <time>2016-03-21T21:16:53.000Z</time>
      </trkpt>
      <trkpt lat="48.84535" lon="2.45571">
        <ele>54.200000762939</ele>
        <time>2016-03-21T21:16:56.000Z</time>
      </trkpt>
      <trkpt lat="48.84541" lon="2.4554">
        <ele>53.599998474121</ele>
        <time>2016-03-21T21:17:00.000Z</time>
      </trkpt>
      <trkpt lat="48.84547" lon="2.45508">
        <ele>53.400001525879</ele>
        <time>2016-03-21T21:17:04.000Z</time>
      </trkpt>
      <trkpt lat="48.84552" lon="2.45474">
        <ele>53.200000762939</ele>
        <time>2016-03-21T21:17:08.000Z</time>
      </trkpt>
      <trkpt lat="48.84558" lon="2.4544">
        <ele>53</ele>
        <time>2016-03-21T21:17:12.000Z</time>
      </trkpt>
      <trkpt lat="48.84564" lon="2.45406">
        <ele>52.799999237061</ele>
        <time>2016-03-21T21:17:16.000Z</time>
      </trkpt>
      <trkpt lat="48.84567" lon="2.45373">
        <ele>53.400001525879</ele>
        <time>2016-03-21T21:17:20.000Z</time>
      </trkpt>
      <trkpt lat="48.84571" lon="2.45356">
        <ele>53.799999237061</ele>
        <time>2016-03-21T21:17:22.000Z</time>
      </trkpt>
      <trkpt lat="48.84577" lon="2.45322">
        <ele>54.200000762939</ele>
        <time>2016-03-21T21:17:26.000Z</time>
      </trkpt>
      <trkpt lat="48.84583" lon="2.45289">
        <ele>54.400001525879</ele>
        <time>2016-03-21T21:17:30.000Z</time>
      </trkpt>
      <trkpt lat="48.84588" lon="2.45257">
        <ele>54.599998474121</ele>
        <time>2016-03-21T21:17:34.000Z</time>
      </trkpt>
      <trkpt lat="48.84595" lon="2.45222">
        <ele>54.200000762939</ele>
        <time>2016-03-21T21:17:38.000Z</time>
      </trkpt>
      <trkpt lat="48.84601" lon="2.45191">
        <ele>53.599998474121</ele>
        <time>2016-03-21T21:17:42.000Z</time>
      </trkpt>
      <trkpt lat="48.84605" lon="2.45161">
        <ele>53.200000762939</ele>
        <time>2016-03-21T21:17:47.000Z</time>
      </trkpt>
      <trkpt lat="48.84605" lon="2.45157">
        <ele>53.200000762939</ele>
        <time>2016-03-21T21:17:48.000Z</time>
      </trkpt>
      <trkpt lat="48.84607" lon="2.45147">
        <ele>53.200000762939</ele>
        <time>2016-03-21T21:17:51.000Z</time>
      </trkpt>
      <trkpt lat="48.84612" lon="2.45122">
        <ele>53.799999237061</ele>
        <time>2016-03-21T21:18:35.000Z</time>
      </trkpt>
      <trkpt lat="48.84617" lon="2.45095">
        <ele>54.200000762939</ele>
        <time>2016-03-21T21:18:41.000Z</time>
      </trkpt>
      <trkpt lat="48.8462" lon="2.45066">
        <ele>54.599998474121</ele>
        <time>2016-03-21T21:18:46.000Z</time>
      </trkpt>
      <trkpt lat="48.84621" lon="2.45038">
        <ele>54.799999237061</ele>
        <time>2016-03-21T21:18:50.000Z</time>
      </trkpt>
      <trkpt lat="48.84621" lon="2.45014">
        <ele>54.799999237061</ele>
        <time>2016-03-21T21:18:53.000Z</time>
      </trkpt>
      <trkpt lat="48.84625" lon="2.44981">
        <ele>55</ele>
        <time>2016-03-21T21:18:57.000Z</time>
      </trkpt>
      <trkpt lat="48.84629" lon="2.44947">
        <ele>54.799999237061</ele>
        <time>2016-03-21T21:19:01.000Z</time>
      </trkpt>
      <trkpt lat="48.84631" lon="2.4492">
        <ele>54.799999237061</ele>
        <time>2016-03-21T21:19:04.000Z</time>
      </trkpt>
      <trkpt lat="48.84633" lon="2.44891">
        <ele>55.200000762939</ele>
        <time>2016-03-21T21:19:07.000Z</time>
      </trkpt>
      <trkpt lat="48.84638" lon="2.44862">
        <ele>55.799999237061</ele>
        <time>2016-03-21T21:19:10.000Z</time>
      </trkpt>
      <trkpt lat="48.84644" lon="2.44832">
        <ele>55.400001525879</ele>
        <time>2016-03-21T21:19:13.000Z</time>
      </trkpt>
      <trkpt lat="48.84649" lon="2.44805">
        <ele>55.599998474121</ele>
        <time>2016-03-21T21:19:16.000Z</time>
      </trkpt>
      <trkpt lat="48.84655" lon="2.4477">
        <ele>55.799999237061</ele>
        <time>2016-03-21T21:19:20.000Z</time>
      </trkpt>
      <trkpt lat="48.84657" lon="2.44737">
        <ele>55.599998474121</ele>
        <time>2016-03-21T21:19:24.000Z</time>
      </trkpt>
      <trkpt lat="48.8466" lon="2.4471">
        <ele>54.799999237061</ele>
        <time>2016-03-21T21:19:27.000Z</time>
      </trkpt>
      <trkpt lat="48.84664" lon="2.44676">
        <ele>53.200000762939</ele>
        <time>2016-03-21T21:19:31.000Z</time>
      </trkpt>
      <trkpt lat="48.84664" lon="2.44642">
        <ele>53.200000762939</ele>
        <time>2016-03-21T21:19:35.000Z</time>
      </trkpt>
      <trkpt lat="48.84667" lon="2.44608">
        <ele>53.200000762939</ele>
        <time>2016-03-21T21:19:39.000Z</time>
      </trkpt>
      <trkpt lat="48.84669" lon="2.44574">
        <ele>53.599998474121</ele>
        <time>2016-03-21T21:19:43.000Z</time>
      </trkpt>
      <trkpt lat="48.84667" lon="2.44542">
        <ele>54</ele>
        <time>2016-03-21T21:19:47.000Z</time>
      </trkpt>
      <trkpt lat="48.84667" lon="2.4451">
        <ele>54</ele>
        <time>2016-03-21T21:19:51.000Z</time>
      </trkpt>
      <trkpt lat="48.84668" lon="2.44477">
        <ele>53.599998474121</ele>
        <time>2016-03-21T21:19:55.000Z</time>
      </trkpt>
      <trkpt lat="48.84669" lon="2.44444">
        <ele>53.400001525879</ele>
        <time>2016-03-21T21:19:59.000Z</time>
      </trkpt>
      <trkpt lat="48.84671" lon="2.4441">
        <ele>53.400001525879</ele>
        <time>2016-03-21T21:20:03.000Z</time>
      </trkpt>
      <trkpt lat="48.84671" lon="2.44394">
        <ele>53.200000762939</ele>
        <time>2016-03-21T21:20:05.000Z</time>
      </trkpt>
      <trkpt lat="48.84676" lon="2.44362">
        <ele>53.599998474121</ele>
        <time>2016-03-21T21:20:09.000Z</time>
      </trkpt>
      <trkpt lat="48.84676" lon="2.44331">
        <ele>54</ele>
        <time>2016-03-21T21:20:13.000Z</time>
      </trkpt>
      <trkpt lat="48.84678" lon="2.44298">
        <ele>54.200000762939</ele>
        <time>2016-03-21T21:20:17.000Z</time>
      </trkpt>
      <trkpt lat="48.84678" lon="2.44267">
        <ele>54.200000762939</ele>
        <time>2016-03-21T21:20:21.000Z</time>
      </trkpt>
      <trkpt lat="48.84679" lon="2.44259">
        <ele>54.200000762939</ele>
        <time>2016-03-21T21:20:22.000Z</time>
      </trkpt>
      <trkpt lat="48.84679" lon="2.44227">
        <ele>54</ele>
        <time>2016-03-21T21:20:26.000Z</time>
      </trkpt>
      <trkpt lat="48.84681" lon="2.44218">
        <ele>53.799999237061</ele>
        <time>2016-03-21T21:20:27.000Z</time>
      </trkpt>
      <trkpt lat="48.84682" lon="2.44183">
        <ele>53.400001525879</ele>
        <time>2016-03-21T21:20:31.000Z</time>
      </trkpt>
      <trkpt lat="48.84684" lon="2.4415">
        <ele>52.799999237061</ele>
        <time>2016-03-21T21:20:35.000Z</time>
      </trkpt>
      <trkpt lat="48.84685" lon="2.44118">
        <ele>52.400001525879</ele>
        <time>2016-03-21T21:20:39.000Z</time>
      </trkpt>
      <trkpt lat="48.84685" lon="2.44086">
        <ele>52</ele>
        <time>2016-03-21T21:20:43.000Z</time>
      </trkpt>
      <trkpt lat="48.84687" lon="2.44056">
        <ele>52</ele>
        <time>2016-03-21T21:20:47.000Z</time>
      </trkpt>
      <trkpt lat="48.8469" lon="2.44028">
        <ele>52</ele>
        <time>2016-03-21T21:20:51.000Z</time>
      </trkpt>
      <trkpt lat="48.84693" lon="2.43999">
        <ele>52</ele>
        <time>2016-03-21T21:20:56.000Z</time>
      </trkpt>
      <trkpt lat="48.84688" lon="2.43968">
        <ele>52.799999237061</ele>
        <time>2016-03-21T21:21:02.000Z</time>
      </trkpt>
      <trkpt lat="48.84689" lon="2.43963">
        <ele>52.799999237061</ele>
        <time>2016-03-21T21:21:03.000Z</time>
      </trkpt>
      <trkpt lat="48.84692" lon="2.43952">
        <ele>53.200000762939</ele>
        <time>2016-03-21T21:21:05.000Z</time>
      </trkpt>
      <trkpt lat="48.84694" lon="2.43944">
        <ele>53.400001525879</ele>
        <time>2016-03-21T21:21:07.000Z</time>
      </trkpt>
      <trkpt lat="48.84694" lon="2.43935">
        <ele>53.599998474121</ele>
        <time>2016-03-21T21:21:10.000Z</time>
      </trkpt>
      <trkpt lat="48.84705" lon="2.4392">
        <ele>54.400001525879</ele>
        <time>2016-03-21T21:21:17.000Z</time>
      </trkpt>
      <trkpt lat="48.84706" lon="2.43917">
        <ele>54.599998474121</ele>
        <time>2016-03-21T21:21:18.000Z</time>
      </trkpt>
      <trkpt lat="48.84709" lon="2.43901">
        <ele>55.200000762939</ele>
        <time>2016-03-21T21:21:23.000Z</time>
      </trkpt>
      <trkpt lat="48.8471" lon="2.43895">
        <ele>55.599998474121</ele>
        <time>2016-03-21T21:21:25.000Z</time>
      </trkpt>
      <trkpt lat="48.84714" lon="2.43867">
        <ele>56.599998474121</ele>
        <time>2016-03-21T21:21:32.000Z</time>
      </trkpt>
      <trkpt lat="48.84713" lon="2.43837">
        <ele>57</ele>
        <time>2016-03-21T21:21:39.000Z</time>
      </trkpt>
      <trkpt lat="48.84713" lon="2.4381">
        <ele>57</ele>
        <time>2016-03-21T21:21:46.000Z</time>
      </trkpt>
      <trkpt lat="48.84715" lon="2.43781">
        <ele>57</ele>
        <time>2016-03-21T21:21:52.000Z</time>
      </trkpt>
      <trkpt lat="48.84721" lon="2.43754">
        <ele>57.400001525879</ele>
        <time>2016-03-21T21:21:58.000Z</time>
      </trkpt>
      <trkpt lat="48.84721" lon="2.43724">
        <ele>56.799999237061</ele>
        <time>2016-03-21T21:22:05.000Z</time>
      </trkpt>
      <trkpt lat="48.8472" lon="2.43696">
        <ele>56</ele>
        <time>2016-03-21T21:22:11.000Z</time>
      </trkpt>
      <trkpt lat="48.84721" lon="2.43689">
        <ele>56</ele>
        <time>2016-03-21T21:22:13.000Z</time>
      </trkpt>
      <trkpt lat="48.84724" lon="2.43662">
        <ele>55.400001525879</ele>
        <time>2016-03-21T21:22:19.000Z</time>
      </trkpt>
      <trkpt lat="48.84724" lon="2.43633">
        <ele>55.400001525879</ele>
        <time>2016-03-21T21:22:24.000Z</time>
      </trkpt>
      <trkpt lat="48.84721" lon="2.43604">
        <ele>55.599998474121</ele>
        <time>2016-03-21T21:22:29.000Z</time>
      </trkpt>
      <trkpt lat="48.84721" lon="2.43576">
        <ele>56.400001525879</ele>
        <time>2016-03-21T21:22:34.000Z</time>
      </trkpt>
      <trkpt lat="48.84724" lon="2.43548">
        <ele>57.799999237061</ele>
        <time>2016-03-21T21:22:39.000Z</time>
      </trkpt>
      <trkpt lat="48.84734" lon="2.4352">
        <ele>58.400001525879</ele>
        <time>2016-03-21T21:22:44.000Z</time>
      </trkpt>
      <trkpt lat="48.84732" lon="2.4349">
        <ele>58.400001525879</ele>
        <time>2016-03-21T21:22:49.000Z</time>
      </trkpt>
      <trkpt lat="48.84734" lon="2.43463">
        <ele>58.400001525879</ele>
        <time>2016-03-21T21:22:54.000Z</time>
      </trkpt>
      <trkpt lat="48.84739" lon="2.43435">
        <ele>58.799999237061</ele>
        <time>2016-03-21T21:23:00.000Z</time>
      </trkpt>
      <trkpt lat="48.84751" lon="2.43408">
        <ele>59</ele>
        <time>2016-03-21T21:23:07.000Z</time>
      </trkpt>
      <trkpt lat="48.84755" lon="2.43381">
        <ele>58.599998474121</ele>
        <time>2016-03-21T21:23:15.000Z</time>
      </trkpt>
      <trkpt lat="48.84754" lon="2.43351">
        <ele>58.200000762939</ele>
        <time>2016-03-21T21:23:25.000Z</time>
      </trkpt>
      <trkpt lat="48.84756" lon="2.43324">
        <ele>57.599998474121</ele>
        <time>2016-03-21T21:23:33.000Z</time>
      </trkpt>
      <trkpt lat="48.84761" lon="2.43294">
        <ele>56.599998474121</ele>
        <time>2016-03-21T21:23:42.000Z</time>
      </trkpt>
      <trkpt lat="48.8476" lon="2.43261">
        <ele>55.400001525879</ele>
        <time>2016-03-21T21:23:49.000Z</time>
      </trkpt>
      <trkpt lat="48.84761" lon="2.43229">
        <ele>54.599998474121</ele>
        <time>2016-03-21T21:23:54.000Z</time>
      </trkpt>
      <trkpt lat="48.84761" lon="2.432">
        <ele>54.200000762939</ele>
        <time>2016-03-21T21:23:58.000Z</time>
      </trkpt>
      <trkpt lat="48.8476" lon="2.43171">
        <ele>54</ele>
        <time>2016-03-21T21:24:02.000Z</time>
      </trkpt>
      <trkpt lat="48.8476" lon="2.43139">
        <ele>53.799999237061</ele>
        <time>2016-03-21T21:24:07.000Z</time>
      </trkpt>
      <trkpt lat="48.84763" lon="2.43112">
        <ele>53.400001525879</ele>
        <time>2016-03-21T21:24:12.000Z</time>
      </trkpt>
      <trkpt lat="48.84763" lon="2.4308">
        <ele>53.200000762939</ele>
        <time>2016-03-21T21:24:17.000Z</time>
      </trkpt>
      <trkpt lat="48.84764" lon="2.4305">
        <ele>53.400001525879</ele>
        <time>2016-03-21T21:24:21.000Z</time>
      </trkpt>
      <trkpt lat="48.84764" lon="2.4302">
        <ele>53.799999237061</ele>
        <time>2016-03-21T21:24:25.000Z</time>
      </trkpt>
      <trkpt lat="48.8476" lon="2.42984">
        <ele>53.799999237061</ele>
        <time>2016-03-21T21:24:29.000Z</time>
      </trkpt>
      <trkpt lat="48.84753" lon="2.42951">
        <ele>53.400001525879</ele>
        <time>2016-03-21T21:24:33.000Z</time>
      </trkpt>
      <trkpt lat="48.8475" lon="2.42918">
        <ele>53</ele>
        <time>2016-03-21T21:24:37.000Z</time>
      </trkpt>
      <trkpt lat="48.84743" lon="2.42891">
        <ele>52.799999237061</ele>
        <time>2016-03-21T21:24:40.000Z</time>
      </trkpt>
      <trkpt lat="48.8474" lon="2.42856">
        <ele>52</ele>
        <time>2016-03-21T21:24:44.000Z</time>
      </trkpt>
      <trkpt lat="48.84738" lon="2.42823">
        <ele>51.400001525879</ele>
        <time>2016-03-21T21:24:48.000Z</time>
      </trkpt>
      <trkpt lat="48.84737" lon="2.42791">
        <ele>51.599998474121</ele>
        <time>2016-03-21T21:24:52.000Z</time>
      </trkpt>
      <trkpt lat="48.84735" lon="2.42761">
        <ele>52.200000762939</ele>
        <time>2016-03-21T21:24:56.000Z</time>
      </trkpt>
      <trkpt lat="48.8473" lon="2.42733">
        <ele>52.599998474121</ele>
        <time>2016-03-21T21:25:00.000Z</time>
      </trkpt>
      <trkpt lat="48.84723" lon="2.42705">
        <ele>53</ele>
        <time>2016-03-21T21:25:04.000Z</time>
      </trkpt>
      <trkpt lat="48.84718" lon="2.42684">
        <ele>53.200000762939</ele>
        <time>2016-03-21T21:25:07.000Z</time>
      </trkpt>
      <trkpt lat="48.84712" lon="2.42658">
        <ele>53.599998474121</ele>
        <time>2016-03-21T21:25:11.000Z</time>
      </trkpt>
      <trkpt lat="48.84704" lon="2.42627">
        <ele>53.400001525879</ele>
        <time>2016-03-21T21:25:16.000Z</time>
      </trkpt>
      <trkpt lat="48.84697" lon="2.42596">
        <ele>53.200000762939</ele>
        <time>2016-03-21T21:25:21.000Z</time>
      </trkpt>
      <trkpt lat="48.8469" lon="2.42569">
        <ele>52.799999237061</ele>
        <time>2016-03-21T21:25:25.000Z</time>
      </trkpt>
      <trkpt lat="48.84682" lon="2.42544">
        <ele>52.599998474121</ele>
        <time>2016-03-21T21:25:29.000Z</time>
      </trkpt>
      <trkpt lat="48.84674" lon="2.42519">
        <ele>52.400001525879</ele>
        <time>2016-03-21T21:25:33.000Z</time>
      </trkpt>
      <trkpt lat="48.84665" lon="2.42494">
        <ele>52.200000762939</ele>
        <time>2016-03-21T21:25:36.000Z</time>
      </trkpt>
      <trkpt lat="48.84653" lon="2.42464">
        <ele>52.400001525879</ele>
        <time>2016-03-21T21:25:40.000Z</time>
      </trkpt>
      <trkpt lat="48.84644" lon="2.42435">
        <ele>52.799999237061</ele>
        <time>2016-03-21T21:25:44.000Z</time>
      </trkpt>
      <trkpt lat="48.84635" lon="2.42411">
        <ele>53</ele>
        <time>2016-03-21T21:25:48.000Z</time>
      </trkpt>
      <trkpt lat="48.84619" lon="2.42394">
        <ele>53.200000762939</ele>
        <time>2016-03-21T21:25:52.000Z</time>
      </trkpt>
      <trkpt lat="48.84604" lon="2.42378">
        <ele>53.599998474121</ele>
        <time>2016-03-21T21:25:57.000Z</time>
      </trkpt>
      <trkpt lat="48.84604" lon="2.42357">
        <ele>53.799999237061</ele>
        <time>2016-03-21T21:26:04.000Z</time>
      </trkpt>
      <trkpt lat="48.84604" lon="2.42353">
        <ele>53.799999237061</ele>
        <time>2016-03-21T21:26:05.000Z</time>
      </trkpt>
      <trkpt lat="48.84604" lon="2.42337">
        <ele>54</ele>
        <time>2016-03-21T21:26:10.000Z</time>
      </trkpt>
      <trkpt lat="48.84598" lon="2.42311">
        <ele>54.200000762939</ele>
        <time>2016-03-21T21:26:27.000Z</time>
      </trkpt>
      <trkpt lat="48.84585" lon="2.42288">
        <ele>54.400001525879</ele>
        <time>2016-03-21T21:26:33.000Z</time>
      </trkpt>
      <trkpt lat="48.84573" lon="2.42267">
        <ele>54.799999237061</ele>
        <time>2016-03-21T21:26:38.000Z</time>
      </trkpt>
      <trkpt lat="48.84558" lon="2.42242">
        <ele>55</ele>
        <time>2016-03-21T21:26:43.000Z</time>
      </trkpt>
      <trkpt lat="48.84544" lon="2.42216">
        <ele>54.799999237061</ele>
        <time>2016-03-21T21:26:48.000Z</time>
      </trkpt>
      <trkpt lat="48.84532" lon="2.42194">
        <ele>54.400001525879</ele>
        <time>2016-03-21T21:26:52.000Z</time>
      </trkpt>
      <trkpt lat="48.84521" lon="2.4217">
        <ele>54.200000762939</ele>
        <time>2016-03-21T21:26:56.000Z</time>
      </trkpt>
      <trkpt lat="48.84507" lon="2.42148">
        <ele>54.200000762939</ele>
        <time>2016-03-21T21:27:00.000Z</time>
      </trkpt>
      <trkpt lat="48.84496" lon="2.42125">
        <ele>54.400001525879</ele>
        <time>2016-03-21T21:27:03.000Z</time>
      </trkpt>
      <trkpt lat="48.84485" lon="2.42099">
        <ele>54.400001525879</ele>
        <time>2016-03-21T21:27:07.000Z</time>
      </trkpt>
      <trkpt lat="48.84474" lon="2.42077">
        <ele>54.400001525879</ele>
        <time>2016-03-21T21:27:11.000Z</time>
      </trkpt>
      <trkpt lat="48.84463" lon="2.42054">
        <ele>54</ele>
        <time>2016-03-21T21:27:15.000Z</time>
      </trkpt>
      <trkpt lat="48.84452" lon="2.4203">
        <ele>53.599998474121</ele>
        <time>2016-03-21T21:27:19.000Z</time>
      </trkpt>
      <trkpt lat="48.84439" lon="2.42003">
        <ele>53.200000762939</ele>
        <time>2016-03-21T21:27:23.000Z</time>
      </trkpt>
      <trkpt lat="48.84425" lon="2.41976">
        <ele>53.599998474121</ele>
        <time>2016-03-21T21:27:27.000Z</time>
      </trkpt>
      <trkpt lat="48.84412" lon="2.41949">
        <ele>54.200000762939</ele>
        <time>2016-03-21T21:27:31.000Z</time>
      </trkpt>
      <trkpt lat="48.84398" lon="2.4192">
        <ele>55</ele>
        <time>2016-03-21T21:27:35.000Z</time>
      </trkpt>
      <trkpt lat="48.84387" lon="2.41898">
        <ele>54.599998474121</ele>
        <time>2016-03-21T21:27:38.000Z</time>
      </trkpt>
      <trkpt lat="48.84384" lon="2.41891">
        <ele>54.400001525879</ele>
        <time>2016-03-21T21:27:39.000Z</time>
      </trkpt>
      <trkpt lat="48.8437" lon="2.41863">
        <ele>53.799999237061</ele>
        <time>2016-03-21T21:27:43.000Z</time>
      </trkpt>
      <trkpt lat="48.84368" lon="2.41855">
        <ele>53.599998474121</ele>
        <time>2016-03-21T21:27:44.000Z</time>
      </trkpt>
      <trkpt lat="48.84366" lon="2.41821">
        <ele>53.200000762939</ele>
        <time>2016-03-21T21:27:48.000Z</time>
      </trkpt>
      <trkpt lat="48.84367" lon="2.41811">
        <ele>52.799999237061</ele>
        <time>2016-03-21T21:27:49.000Z</time>
      </trkpt>
      <trkpt lat="48.8437" lon="2.41784">
        <ele>52.400001525879</ele>
        <time>2016-03-21T21:27:52.000Z</time>
      </trkpt>
      <trkpt lat="48.84373" lon="2.4175">
        <ele>51.599998474121</ele>
        <time>2016-03-21T21:27:56.000Z</time>
      </trkpt>
      <trkpt lat="48.84376" lon="2.41719">
        <ele>52.799999237061</ele>
        <time>2016-03-21T21:28:00.000Z</time>
      </trkpt>
      <trkpt lat="48.84377" lon="2.41711">
        <ele>53.200000762939</ele>
        <time>2016-03-21T21:28:01.000Z</time>
      </trkpt>
      <trkpt lat="48.8438" lon="2.4168">
        <ele>54.200000762939</ele>
        <time>2016-03-21T21:28:05.000Z</time>
      </trkpt>
      <trkpt lat="48.84384" lon="2.4165">
        <ele>55.200000762939</ele>
        <time>2016-03-21T21:28:09.000Z</time>
      </trkpt>
      <trkpt lat="48.84384" lon="2.41635">
        <ele>56.200000762939</ele>
        <time>2016-03-21T21:28:11.000Z</time>
      </trkpt>
      <trkpt lat="48.84386" lon="2.416">
        <ele>57.799999237061</ele>
        <time>2016-03-21T21:28:15.000Z</time>
      </trkpt>
      <trkpt lat="48.84386" lon="2.41565">
        <ele>57.200000762939</ele>
        <time>2016-03-21T21:28:19.000Z</time>
      </trkpt>
      <trkpt lat="48.84389" lon="2.41531">
        <ele>55.200000762939</ele>
        <time>2016-03-21T21:28:23.000Z</time>
      </trkpt>
      <trkpt lat="48.8439" lon="2.41507">
        <ele>53.799999237061</ele>
        <time>2016-03-21T21:28:27.000Z</time>
      </trkpt>
      <trkpt lat="48.84389" lon="2.41514">
        <ele>54.200000762939</ele>
        <time>2016-03-21T21:28:32.000Z</time>
      </trkpt>
      <trkpt lat="48.8439" lon="2.4152">
        <ele>54.400001525879</ele>
        <time>2016-03-21T21:28:35.000Z</time>
      </trkpt>
      <trkpt lat="48.84393" lon="2.4151">
        <ele>53.799999237061</ele>
        <time>2016-03-21T21:28:40.000Z</time>
      </trkpt>
      <trkpt lat="48.84398" lon="2.41484">
        <ele>52</ele>
        <time>2016-03-21T21:28:47.000Z</time>
      </trkpt>
      <trkpt lat="48.84403" lon="2.41456">
        <ele>50</ele>
        <time>2016-03-21T21:28:54.000Z</time>
      </trkpt>
      <trkpt lat="48.84408" lon="2.41432">
        <ele>48.799999237061</ele>
        <time>2016-03-21T21:29:06.000Z</time>
      </trkpt>
      <trkpt lat="48.84406" lon="2.41405">
        <ele>48.200000762939</ele>
        <time>2016-03-21T21:29:18.000Z</time>
      </trkpt>
      <trkpt lat="48.84407" lon="2.41375">
        <ele>48.599998474121</ele>
        <time>2016-03-21T21:29:24.000Z</time>
      </trkpt>
      <trkpt lat="48.8441" lon="2.41348">
        <ele>49.799999237061</ele>
        <time>2016-03-21T21:29:29.000Z</time>
      </trkpt>
      <trkpt lat="48.84412" lon="2.41318">
        <ele>50.599998474121</ele>
        <time>2016-03-21T21:29:35.000Z</time>
      </trkpt>
      <trkpt lat="48.84415" lon="2.41288">
        <ele>51.200000762939</ele>
        <time>2016-03-21T21:29:43.000Z</time>
      </trkpt>
      <trkpt lat="48.84416" lon="2.41257">
        <ele>51.599998474121</ele>
        <time>2016-03-21T21:29:51.000Z</time>
      </trkpt>
      <trkpt lat="48.84417" lon="2.41226">
        <ele>52.200000762939</ele>
        <time>2016-03-21T21:29:57.000Z</time>
      </trkpt>
      <trkpt lat="48.8442" lon="2.41194">
        <ele>52.200000762939</ele>
        <time>2016-03-21T21:30:02.000Z</time>
      </trkpt>
      <trkpt lat="48.84422" lon="2.41164">
        <ele>52.200000762939</ele>
        <time>2016-03-21T21:30:06.000Z</time>
      </trkpt>
      <trkpt lat="48.84424" lon="2.41133">
        <ele>53.400001525879</ele>
        <time>2016-03-21T21:30:10.000Z</time>
      </trkpt>
      <trkpt lat="48.84426" lon="2.41102">
        <ele>54.200000762939</ele>
        <time>2016-03-21T21:30:15.000Z</time>
      </trkpt>
      <trkpt lat="48.84427" lon="2.41072">
        <ele>54.599998474121</ele>
        <time>2016-03-21T21:30:20.000Z</time>
      </trkpt>
      <trkpt lat="48.84426" lon="2.41046">
        <ele>54.799999237061</ele>
        <time>2016-03-21T21:30:30.000Z</time>
      </trkpt>
      <trkpt lat="48.84429" lon="2.41016">
        <ele>55.200000762939</ele>
        <time>2016-03-21T21:30:47.000Z</time>
      </trkpt>
      <trkpt lat="48.84432" lon="2.40988">
        <ele>55.200000762939</ele>
        <time>2016-03-21T21:30:52.000Z</time>
      </trkpt>
      <trkpt lat="48.84438" lon="2.40957">
        <ele>55.599998474121</ele>
        <time>2016-03-21T21:30:56.000Z</time>
      </trkpt>
      <trkpt lat="48.84443" lon="2.40926">
        <ele>56</ele>
        <time>2016-03-21T21:31:00.000Z</time>
      </trkpt>
      <trkpt lat="48.84447" lon="2.40895">
        <ele>56.400001525879</ele>
        <time>2016-03-21T21:31:04.000Z</time>
      </trkpt>
      <trkpt lat="48.8445" lon="2.40865">
        <ele>56.599998474121</ele>
        <time>2016-03-21T21:31:08.000Z</time>
      </trkpt>
      <trkpt lat="48.84454" lon="2.40832">
        <ele>56</ele>
        <time>2016-03-21T21:31:12.000Z</time>
      </trkpt>
      <trkpt lat="48.84461" lon="2.40798">
        <ele>55.599998474121</ele>
        <time>2016-03-21T21:31:16.000Z</time>
      </trkpt>
      <trkpt lat="48.84468" lon="2.40772">
        <ele>55.200000762939</ele>
        <time>2016-03-21T21:31:19.000Z</time>
      </trkpt>
      <trkpt lat="48.84472" lon="2.40742">
        <ele>53.799999237061</ele>
        <time>2016-03-21T21:31:22.000Z</time>
      </trkpt>
      <trkpt lat="48.84476" lon="2.40715">
        <ele>52</ele>
        <time>2016-03-21T21:31:25.000Z</time>
      </trkpt>
      <trkpt lat="48.84476" lon="2.40705">
        <ele>51.599998474121</ele>
        <time>2016-03-21T21:31:26.000Z</time>
      </trkpt>
      <trkpt lat="48.84475" lon="2.40671">
        <ele>51</ele>
        <time>2016-03-21T21:31:30.000Z</time>
      </trkpt>
      <trkpt lat="48.84477" lon="2.40654">
        <ele>51</ele>
        <time>2016-03-21T21:31:32.000Z</time>
      </trkpt>
      <trkpt lat="48.8448" lon="2.40637">
        <ele>51.400001525879</ele>
        <time>2016-03-21T21:31:34.000Z</time>
      </trkpt>
      <trkpt lat="48.84484" lon="2.40608">
        <ele>51.400001525879</ele>
        <time>2016-03-21T21:31:37.000Z</time>
      </trkpt>
      <trkpt lat="48.84485" lon="2.40598">
        <ele>51.200000762939</ele>
        <time>2016-03-21T21:31:38.000Z</time>
      </trkpt>
      <trkpt lat="48.8448" lon="2.40567">
        <ele>51</ele>
        <time>2016-03-21T21:31:41.000Z</time>
      </trkpt>
      <trkpt lat="48.8448" lon="2.40548">
        <ele>51</ele>
        <time>2016-03-21T21:31:43.000Z</time>
      </trkpt>
      <trkpt lat="48.84482" lon="2.40519">
        <ele>51</ele>
        <time>2016-03-21T21:31:46.000Z</time>
      </trkpt>
      <trkpt lat="48.84483" lon="2.40493">
        <ele>51</ele>
        <time>2016-03-21T21:31:49.000Z</time>
      </trkpt>
      <trkpt lat="48.84484" lon="2.40468">
        <ele>51.400001525879</ele>
        <time>2016-03-21T21:31:52.000Z</time>
      </trkpt>
      <trkpt lat="48.84486" lon="2.40438">
        <ele>50.599998474121</ele>
        <time>2016-03-21T21:31:56.000Z</time>
      </trkpt>
      <trkpt lat="48.84487" lon="2.40424">
        <ele>50</ele>
        <time>2016-03-21T21:31:58.000Z</time>
      </trkpt>
      <trkpt lat="48.84488" lon="2.40412">
        <ele>49.799999237061</ele>
        <time>2016-03-21T21:32:00.000Z</time>
      </trkpt>
      <trkpt lat="48.84493" lon="2.40382">
        <ele>50.599998474121</ele>
        <time>2016-03-21T21:32:05.000Z</time>
      </trkpt>
      <trkpt lat="48.84501" lon="2.40354">
        <ele>51.200000762939</ele>
        <time>2016-03-21T21:32:10.000Z</time>
      </trkpt>
      <trkpt lat="48.84507" lon="2.40328">
        <ele>51.599998474121</ele>
        <time>2016-03-21T21:32:14.000Z</time>
      </trkpt>
      <trkpt lat="48.84513" lon="2.40298">
        <ele>52.200000762939</ele>
        <time>2016-03-21T21:32:19.000Z</time>
      </trkpt>
      <trkpt lat="48.84517" lon="2.40283">
        <ele>52.799999237061</ele>
        <time>2016-03-21T21:32:22.000Z</time>
      </trkpt>
      <trkpt lat="48.84523" lon="2.40253">
        <ele>53.799999237061</ele>
        <time>2016-03-21T21:32:27.000Z</time>
      </trkpt>
      <trkpt lat="48.84523" lon="2.40238">
        <ele>54</ele>
        <time>2016-03-21T21:32:30.000Z</time>
      </trkpt>
      <trkpt lat="48.84516" lon="2.40211">
        <ele>53.599998474121</ele>
        <time>2016-03-21T21:32:36.000Z</time>
      </trkpt>
      <trkpt lat="48.84515" lon="2.40208">
        <ele>53.599998474121</ele>
        <time>2016-03-21T21:32:37.000Z</time>
      </trkpt>
      <trkpt lat="48.84513" lon="2.40196">
        <ele>53.599998474121</ele>
        <time>2016-03-21T21:32:40.000Z</time>
      </trkpt>
      <trkpt lat="48.84515" lon="2.40167">
        <ele>53.599998474121</ele>
        <time>2016-03-21T21:32:46.000Z</time>
      </trkpt>
      <trkpt lat="48.8452" lon="2.40137">
        <ele>54.200000762939</ele>
        <time>2016-03-21T21:32:52.000Z</time>
      </trkpt>
      <trkpt lat="48.84522" lon="2.40109">
        <ele>54.599998474121</ele>
        <time>2016-03-21T21:32:57.000Z</time>
      </trkpt>
      <trkpt lat="48.84527" lon="2.40081">
        <ele>55</ele>
        <time>2016-03-21T21:33:02.000Z</time>
      </trkpt>
      <trkpt lat="48.8453" lon="2.40051">
        <ele>55.400001525879</ele>
        <time>2016-03-21T21:33:06.000Z</time>
      </trkpt>
      <trkpt lat="48.8453" lon="2.40024">
        <ele>55.799999237061</ele>
        <time>2016-03-21T21:33:10.000Z</time>
      </trkpt>
      <trkpt lat="48.84528" lon="2.39995">
        <ele>56</ele>
        <time>2016-03-21T21:33:14.000Z</time>
      </trkpt>
      <trkpt lat="48.84528" lon="2.39961">
        <ele>55.599998474121</ele>
        <time>2016-03-21T21:33:19.000Z</time>
      </trkpt>
      <trkpt lat="48.84527" lon="2.39939">
        <ele>55.200000762939</ele>
        <time>2016-03-21T21:33:22.000Z</time>
      </trkpt>
      <trkpt lat="48.84535" lon="2.39913">
        <ele>55</ele>
        <time>2016-03-21T21:33:26.000Z</time>
      </trkpt>
      <trkpt lat="48.84538" lon="2.3988">
        <ele>55.400001525879</ele>
        <time>2016-03-21T21:33:31.000Z</time>
      </trkpt>
      <trkpt lat="48.84539" lon="2.39859">
        <ele>55.599998474121</ele>
        <time>2016-03-21T21:33:34.000Z</time>
      </trkpt>
      <trkpt lat="48.8454" lon="2.3984">
        <ele>56</ele>
        <time>2016-03-21T21:33:37.000Z</time>
      </trkpt>
      <trkpt lat="48.84543" lon="2.39822">
        <ele>55.599998474121</ele>
        <time>2016-03-21T21:33:40.000Z</time>
      </trkpt>
      <trkpt lat="48.84545" lon="2.39789">
        <ele>54</ele>
        <time>2016-03-21T21:33:44.000Z</time>
      </trkpt>
      <trkpt lat="48.84547" lon="2.39775">
        <ele>53.200000762939</ele>
        <time>2016-03-21T21:33:46.000Z</time>
      </trkpt>
      <trkpt lat="48.84545" lon="2.39745">
        <ele>54</ele>
        <time>2016-03-21T21:33:50.000Z</time>
      </trkpt>
      <trkpt lat="48.84545" lon="2.39712">
        <ele>55.200000762939</ele>
        <time>2016-03-21T21:33:54.000Z</time>
      </trkpt>
      <trkpt lat="48.84546" lon="2.39696">
        <ele>55.799999237061</ele>
        <time>2016-03-21T21:33:56.000Z</time>
      </trkpt>
      <trkpt lat="48.84548" lon="2.39666">
        <ele>57</ele>
        <time>2016-03-21T21:34:00.000Z</time>
      </trkpt>
      <trkpt lat="48.84558" lon="2.39652">
        <ele>58.400001525879</ele>
        <time>2016-03-21T21:34:02.000Z</time>
      </trkpt>
      <trkpt lat="48.84562" lon="2.39625">
        <ele>59.200000762939</ele>
        <time>2016-03-21T21:34:05.000Z</time>
      </trkpt>
      <trkpt lat="48.84567" lon="2.39608">
        <ele>59.599998474121</ele>
        <time>2016-03-21T21:34:07.000Z</time>
      </trkpt>
      <trkpt lat="48.8457" lon="2.39593">
        <ele>59.799999237061</ele>
        <time>2016-03-21T21:34:09.000Z</time>
      </trkpt>
      <trkpt lat="48.84575" lon="2.39562">
        <ele>60.400001525879</ele>
        <time>2016-03-21T21:34:13.000Z</time>
      </trkpt>
      <trkpt lat="48.84574" lon="2.39535">
        <ele>59.599998474121</ele>
        <time>2016-03-21T21:34:16.000Z</time>
      </trkpt>
      <trkpt lat="48.84582" lon="2.39513">
        <ele>58.200000762939</ele>
        <time>2016-03-21T21:34:20.000Z</time>
      </trkpt>
      <trkpt lat="48.84594" lon="2.39494">
        <ele>57.400001525879</ele>
        <time>2016-03-21T21:34:24.000Z</time>
      </trkpt>
      <trkpt lat="48.84595" lon="2.39481">
        <ele>57.400001525879</ele>
        <time>2016-03-21T21:34:26.000Z</time>
      </trkpt>
      <trkpt lat="48.84601" lon="2.39465">
        <ele>56.799999237061</ele>
        <time>2016-03-21T21:34:30.000Z</time>
      </trkpt>
      <trkpt lat="48.84609" lon="2.39457">
        <ele>56.799999237061</ele>
        <time>2016-03-21T21:34:33.000Z</time>
      </trkpt>
      <trkpt lat="48.84629" lon="2.39449">
        <ele>57.799999237061</ele>
        <time>2016-03-21T21:34:38.000Z</time>
      </trkpt>
      <trkpt lat="48.84649" lon="2.39446">
        <ele>58.599998474121</ele>
        <time>2016-03-21T21:34:42.000Z</time>
      </trkpt>
      <trkpt lat="48.84667" lon="2.39437">
        <ele>58.599998474121</ele>
        <time>2016-03-21T21:34:47.000Z</time>
      </trkpt>
      <trkpt lat="48.84684" lon="2.39419">
        <ele>58</ele>
        <time>2016-03-21T21:34:55.000Z</time>
      </trkpt>
      <trkpt lat="48.84682" lon="2.3941">
        <ele>57.799999237061</ele>
        <time>2016-03-21T21:34:56.000Z</time>
      </trkpt>
      <trkpt lat="48.84697" lon="2.39376">
        <ele>57.400001525879</ele>
        <time>2016-03-21T21:35:00.000Z</time>
      </trkpt>
      <trkpt lat="48.84716" lon="2.3936">
        <ele>56</ele>
        <time>2016-03-21T21:35:03.000Z</time>
      </trkpt>
      <trkpt lat="48.84742" lon="2.39348">
        <ele>54.599998474121</ele>
        <time>2016-03-21T21:35:05.000Z</time>
      </trkpt>
      <trkpt lat="48.84759" lon="2.39331">
        <ele>53.799999237061</ele>
        <time>2016-03-21T21:35:09.000Z</time>
      </trkpt>
      <trkpt lat="48.84761" lon="2.39325">
        <ele>53.400001525879</ele>
        <time>2016-03-21T21:35:10.000Z</time>
      </trkpt>
      <trkpt lat="48.84777" lon="2.39301">
        <ele>53.799999237061</ele>
        <time>2016-03-21T21:35:15.000Z</time>
      </trkpt>
      <trkpt lat="48.84787" lon="2.39292">
        <ele>54.400001525879</ele>
        <time>2016-03-21T21:35:19.000Z</time>
      </trkpt>
      <trkpt lat="48.84797" lon="2.39284">
        <ele>55</ele>
        <time>2016-03-21T21:35:29.000Z</time>
      </trkpt>
      <trkpt lat="48.848" lon="2.39282">
        <ele>55.200000762939</ele>
        <time>2016-03-21T21:35:30.000Z</time>
      </trkpt>
      <trkpt lat="48.84812" lon="2.39277">
        <ele>55.200000762939</ele>
        <time>2016-03-21T21:35:33.000Z</time>
      </trkpt>
      <trkpt lat="48.84832" lon="2.39272">
        <ele>54.799999237061</ele>
        <time>2016-03-21T21:35:37.000Z</time>
      </trkpt>
      <trkpt lat="48.84848" lon="2.39256">
        <ele>54.200000762939</ele>
        <time>2016-03-21T21:35:41.000Z</time>
      </trkpt>
      <trkpt lat="48.84863" lon="2.39239">
        <ele>53.200000762939</ele>
        <time>2016-03-21T21:35:45.000Z</time>
      </trkpt>
      <trkpt lat="48.84881" lon="2.39222">
        <ele>51.799999237061</ele>
        <time>2016-03-21T21:35:51.000Z</time>
      </trkpt>
      <trkpt lat="48.84891" lon="2.39206">
        <ele>50.799999237061</ele>
        <time>2016-03-21T21:35:55.000Z</time>
      </trkpt>
      <trkpt lat="48.84899" lon="2.39181">
        <ele>50.200000762939</ele>
        <time>2016-03-21T21:35:59.000Z</time>
      </trkpt>
      <trkpt lat="48.84908" lon="2.39155">
        <ele>49.599998474121</ele>
        <time>2016-03-21T21:36:03.000Z</time>
      </trkpt>
      <trkpt lat="48.84913" lon="2.39129">
        <ele>48.799999237061</ele>
        <time>2016-03-21T21:36:06.000Z</time>
      </trkpt>
      <trkpt lat="48.84921" lon="2.39095">
        <ele>48</ele>
        <time>2016-03-21T21:36:10.000Z</time>
      </trkpt>
      <trkpt lat="48.84926" lon="2.39078">
        <ele>47.799999237061</ele>
        <time>2016-03-21T21:36:12.000Z</time>
      </trkpt>
      <trkpt lat="48.84938" lon="2.39047">
        <ele>48</ele>
        <time>2016-03-21T21:36:16.000Z</time>
      </trkpt>
      <trkpt lat="48.84948" lon="2.39014">
        <ele>48.599998474121</ele>
        <time>2016-03-21T21:36:20.000Z</time>
      </trkpt>
      <trkpt lat="48.84955" lon="2.38988">
        <ele>48.799999237061</ele>
        <time>2016-03-21T21:36:23.000Z</time>
      </trkpt>
      <trkpt lat="48.84961" lon="2.38962">
        <ele>49</ele>
        <time>2016-03-21T21:36:26.000Z</time>
      </trkpt>
      <trkpt lat="48.84966" lon="2.38936">
        <ele>49</ele>
        <time>2016-03-21T21:36:29.000Z</time>
      </trkpt>
      <trkpt lat="48.84969" lon="2.38918">
        <ele>48.200000762939</ele>
        <time>2016-03-21T21:36:31.000Z</time>
      </trkpt>
      <trkpt lat="48.84975" lon="2.3889">
        <ele>47.200000762939</ele>
        <time>2016-03-21T21:36:34.000Z</time>
      </trkpt>
      <trkpt lat="48.84977" lon="2.38859">
        <ele>46</ele>
        <time>2016-03-21T21:36:37.000Z</time>
      </trkpt>
      <trkpt lat="48.84981" lon="2.38829">
        <ele>45</ele>
        <time>2016-03-21T21:36:40.000Z</time>
      </trkpt>
      <trkpt lat="48.84985" lon="2.388">
        <ele>45</ele>
        <time>2016-03-21T21:36:43.000Z</time>
      </trkpt>
      <trkpt lat="48.84987" lon="2.38772">
        <ele>45.200000762939</ele>
        <time>2016-03-21T21:36:46.000Z</time>
      </trkpt>
      <trkpt lat="48.8499" lon="2.38736">
        <ele>45.200000762939</ele>
        <time>2016-03-21T21:36:50.000Z</time>
      </trkpt>
      <trkpt lat="48.84997" lon="2.38702">
        <ele>44.799999237061</ele>
        <time>2016-03-21T21:36:54.000Z</time>
      </trkpt>
      <trkpt lat="48.84999" lon="2.38667">
        <ele>44.799999237061</ele>
        <time>2016-03-21T21:36:58.000Z</time>
      </trkpt>
      <trkpt lat="48.85006" lon="2.38635">
        <ele>45.200000762939</ele>
        <time>2016-03-21T21:37:02.000Z</time>
      </trkpt>
      <trkpt lat="48.85012" lon="2.38614">
        <ele>45.799999237061</ele>
        <time>2016-03-21T21:37:05.000Z</time>
      </trkpt>
      <trkpt lat="48.85019" lon="2.38595">
        <ele>46.599998474121</ele>
        <time>2016-03-21T21:37:08.000Z</time>
      </trkpt>
      <trkpt lat="48.85024" lon="2.38573">
        <ele>46.799999237061</ele>
        <time>2016-03-21T21:37:11.000Z</time>
      </trkpt>
      <trkpt lat="48.85031" lon="2.38541">
        <ele>46</ele>
        <time>2016-03-21T21:37:15.000Z</time>
      </trkpt>
      <trkpt lat="48.85039" lon="2.38518">
        <ele>45.400001525879</ele>
        <time>2016-03-21T21:37:18.000Z</time>
      </trkpt>
      <trkpt lat="48.85045" lon="2.38493">
        <ele>44.599998474121</ele>
        <time>2016-03-21T21:37:22.000Z</time>
      </trkpt>
      <trkpt lat="48.8505" lon="2.38477">
        <ele>44</ele>
        <time>2016-03-21T21:37:25.000Z</time>
      </trkpt>
      <trkpt lat="48.85044" lon="2.38453">
        <ele>43.200000762939</ele>
        <time>2016-03-21T21:37:28.000Z</time>
      </trkpt>
      <trkpt lat="48.85044" lon="2.3842">
        <ele>42.400001525879</ele>
        <time>2016-03-21T21:37:32.000Z</time>
      </trkpt>
      <trkpt lat="48.85044" lon="2.38404">
        <ele>41.599998474121</ele>
        <time>2016-03-21T21:37:34.000Z</time>
      </trkpt>
      <trkpt lat="48.8504" lon="2.38372">
        <ele>39.599998474121</ele>
        <time>2016-03-21T21:37:38.000Z</time>
      </trkpt>
      <trkpt lat="48.85037" lon="2.3834">
        <ele>38.200000762939</ele>
        <time>2016-03-21T21:37:42.000Z</time>
      </trkpt>
      <trkpt lat="48.85037" lon="2.38304">
        <ele>39.599998474121</ele>
        <time>2016-03-21T21:37:46.000Z</time>
      </trkpt>
      <trkpt lat="48.85041" lon="2.38277">
        <ele>41.200000762939</ele>
        <time>2016-03-21T21:37:49.000Z</time>
      </trkpt>
      <trkpt lat="48.85042" lon="2.38247">
        <ele>41.599998474121</ele>
        <time>2016-03-21T21:37:52.000Z</time>
      </trkpt>
      <trkpt lat="48.8504" lon="2.38218">
        <ele>42.400001525879</ele>
        <time>2016-03-21T21:37:55.000Z</time>
      </trkpt>
      <trkpt lat="48.85042" lon="2.3819">
        <ele>43</ele>
        <time>2016-03-21T21:37:58.000Z</time>
      </trkpt>
      <trkpt lat="48.85047" lon="2.38155">
        <ele>42.799999237061</ele>
        <time>2016-03-21T21:38:02.000Z</time>
      </trkpt>
      <trkpt lat="48.8505" lon="2.38127">
        <ele>43.200000762939</ele>
        <time>2016-03-21T21:38:05.000Z</time>
      </trkpt>
      <trkpt lat="48.8505" lon="2.38118">
        <ele>43.200000762939</ele>
        <time>2016-03-21T21:38:06.000Z</time>
      </trkpt>
      <trkpt lat="48.85051" lon="2.38089">
        <ele>43.400001525879</ele>
        <time>2016-03-21T21:38:09.000Z</time>
      </trkpt>
      <trkpt lat="48.85051" lon="2.3806">
        <ele>42.599998474121</ele>
        <time>2016-03-21T21:38:12.000Z</time>
      </trkpt>
      <trkpt lat="48.85052" lon="2.38031">
        <ele>41.400001525879</ele>
        <time>2016-03-21T21:38:15.000Z</time>
      </trkpt>
      <trkpt lat="48.85054" lon="2.38003">
        <ele>40.799999237061</ele>
        <time>2016-03-21T21:38:18.000Z</time>
      </trkpt>
      <trkpt lat="48.85058" lon="2.37967">
        <ele>40.599998474121</ele>
        <time>2016-03-21T21:38:22.000Z</time>
      </trkpt>
      <trkpt lat="48.85063" lon="2.37932">
        <ele>40.799999237061</ele>
        <time>2016-03-21T21:38:26.000Z</time>
      </trkpt>
      <trkpt lat="48.85065" lon="2.37896">
        <ele>41.200000762939</ele>
        <time>2016-03-21T21:38:30.000Z</time>
      </trkpt>
      <trkpt lat="48.85066" lon="2.37888">
        <ele>41.400001525879</ele>
        <time>2016-03-21T21:38:31.000Z</time>
      </trkpt>
      <trkpt lat="48.85074" lon="2.37856">
        <ele>41.799999237061</ele>
        <time>2016-03-21T21:38:35.000Z</time>
      </trkpt>
      <trkpt lat="48.85086" lon="2.37826">
        <ele>42</ele>
        <time>2016-03-21T21:38:39.000Z</time>
      </trkpt>
      <trkpt lat="48.85089" lon="2.37818">
        <ele>42.200000762939</ele>
        <time>2016-03-21T21:38:40.000Z</time>
      </trkpt>
      <trkpt lat="48.85099" lon="2.37794">
        <ele>42.400001525879</ele>
        <time>2016-03-21T21:38:43.000Z</time>
      </trkpt>
      <trkpt lat="48.85106" lon="2.37767">
        <ele>42.799999237061</ele>
        <time>2016-03-21T21:38:46.000Z</time>
      </trkpt>
      <trkpt lat="48.8511" lon="2.3775">
        <ele>43</ele>
        <time>2016-03-21T21:38:48.000Z</time>
      </trkpt>
      <trkpt lat="48.85115" lon="2.37723">
        <ele>44.200000762939</ele>
        <time>2016-03-21T21:38:51.000Z</time>
      </trkpt>
      <trkpt lat="48.85122" lon="2.37698">
        <ele>45.400001525879</ele>
        <time>2016-03-21T21:38:54.000Z</time>
      </trkpt>
      <trkpt lat="48.85128" lon="2.37674">
        <ele>46.200000762939</ele>
        <time>2016-03-21T21:38:57.000Z</time>
      </trkpt>
      <trkpt lat="48.85134" lon="2.37646">
        <ele>45.799999237061</ele>
        <time>2016-03-21T21:39:01.000Z</time>
      </trkpt>
      <trkpt lat="48.85138" lon="2.37625">
        <ele>45.200000762939</ele>
        <time>2016-03-21T21:39:05.000Z</time>
      </trkpt>
      <trkpt lat="48.85137" lon="2.3762">
        <ele>45.200000762939</ele>
        <time>2016-03-21T21:39:07.000Z</time>
      </trkpt>
      <trkpt lat="48.85135" lon="2.37598">
        <ele>45</ele>
        <time>2016-03-21T21:39:14.000Z</time>
      </trkpt>
      <trkpt lat="48.85136" lon="2.37593">
        <ele>45</ele>
        <time>2016-03-21T21:39:15.000Z</time>
      </trkpt>
      <trkpt lat="48.85145" lon="2.37565">
        <ele>44.599998474121</ele>
        <time>2016-03-21T21:39:19.000Z</time>
      </trkpt>
      <trkpt lat="48.85151" lon="2.37534">
        <ele>44</ele>
        <time>2016-03-21T21:39:23.000Z</time>
      </trkpt>
      <trkpt lat="48.8516" lon="2.37501">
        <ele>43.599998474121</ele>
        <time>2016-03-21T21:39:27.000Z</time>
      </trkpt>
      <trkpt lat="48.85168" lon="2.3747">
        <ele>44</ele>
        <time>2016-03-21T21:39:31.000Z</time>
      </trkpt>
      <trkpt lat="48.85176" lon="2.37445">
        <ele>44</ele>
        <time>2016-03-21T21:39:34.000Z</time>
      </trkpt>
      <trkpt lat="48.85183" lon="2.37419">
        <ele>44</ele>
        <time>2016-03-21T21:39:37.000Z</time>
      </trkpt>
      <trkpt lat="48.85189" lon="2.37393">
        <ele>44</ele>
        <time>2016-03-21T21:39:40.000Z</time>
      </trkpt>
      <trkpt lat="48.85195" lon="2.37366">
        <ele>44</ele>
        <time>2016-03-21T21:39:43.000Z</time>
      </trkpt>
      <trkpt lat="48.85202" lon="2.37339">
        <ele>44</ele>
        <time>2016-03-21T21:39:46.000Z</time>
      </trkpt>
      <trkpt lat="48.85209" lon="2.37313">
        <ele>43.599998474121</ele>
        <time>2016-03-21T21:39:49.000Z</time>
      </trkpt>
      <trkpt lat="48.85217" lon="2.37286">
        <ele>43.200000762939</ele>
        <time>2016-03-21T21:39:52.000Z</time>
      </trkpt>
      <trkpt lat="48.85223" lon="2.3727">
        <ele>42.799999237061</ele>
        <time>2016-03-21T21:39:54.000Z</time>
      </trkpt>
      <trkpt lat="48.85231" lon="2.37245">
        <ele>42.799999237061</ele>
        <time>2016-03-21T21:39:57.000Z</time>
      </trkpt>
      <trkpt lat="48.85237" lon="2.37218">
        <ele>45</ele>
        <time>2016-03-21T21:40:00.000Z</time>
      </trkpt>
      <trkpt lat="48.85245" lon="2.37192">
        <ele>44.599998474121</ele>
        <time>2016-03-21T21:40:03.000Z</time>
      </trkpt>
      <trkpt lat="48.85252" lon="2.37177">
        <ele>44</ele>
        <time>2016-03-21T21:40:05.000Z</time>
      </trkpt>
      <trkpt lat="48.85264" lon="2.37148">
        <ele>43.599998474121</ele>
        <time>2016-03-21T21:40:09.000Z</time>
      </trkpt>
      <trkpt lat="48.85278" lon="2.37121">
        <ele>45.200000762939</ele>
        <time>2016-03-21T21:40:13.000Z</time>
      </trkpt>
      <trkpt lat="48.85292" lon="2.37098">
        <ele>46.599998474121</ele>
        <time>2016-03-21T21:40:17.000Z</time>
      </trkpt>
      <trkpt lat="48.85307" lon="2.37073">
        <ele>45.799999237061</ele>
        <time>2016-03-21T21:40:21.000Z</time>
      </trkpt>
      <trkpt lat="48.85319" lon="2.3705">
        <ele>45.400001525879</ele>
        <time>2016-03-21T21:40:25.000Z</time>
      </trkpt>
      <trkpt lat="48.8533" lon="2.37029">
        <ele>44.599998474121</ele>
        <time>2016-03-21T21:40:29.000Z</time>
      </trkpt>
      <trkpt lat="48.85332" lon="2.37021">
        <ele>44.200000762939</ele>
        <time>2016-03-21T21:40:54.000Z</time>
      </trkpt>
      <trkpt lat="48.85341" lon="2.36995">
        <ele>43.200000762939</ele>
        <time>2016-03-21T21:41:03.000Z</time>
      </trkpt>
      <trkpt lat="48.85343" lon="2.36992">
        <ele>42.799999237061</ele>
        <time>2016-03-21T21:41:04.000Z</time>
      </trkpt>
      <trkpt lat="48.85357" lon="2.36979">
        <ele>42.200000762939</ele>
        <time>2016-03-21T21:41:13.000Z</time>
      </trkpt>
      <trkpt lat="48.85355" lon="2.36976">
        <ele>42.200000762939</ele>
        <time>2016-03-21T21:42:19.000Z</time>
      </trkpt>
      <trkpt lat="48.85358" lon="2.36948">
        <ele>42.599998474121</ele>
        <time>2016-03-21T21:42:41.000Z</time>
      </trkpt>
      <trkpt lat="48.85365" lon="2.36921">
        <ele>42.799999237061</ele>
        <time>2016-03-21T21:42:50.000Z</time>
      </trkpt>
      <trkpt lat="48.85367" lon="2.36914">
        <ele>42.400001525879</ele>
        <time>2016-03-21T21:42:54.000Z</time>
      </trkpt>
      <trkpt lat="48.85362" lon="2.36892">
        <ele>44.200000762939</ele>
        <time>2016-03-21T21:43:20.000Z</time>
      </trkpt>
      <trkpt lat="48.85368" lon="2.36863">
        <ele>45.400001525879</ele>
        <time>2016-03-21T21:43:49.000Z</time>
      </trkpt>
      <trkpt lat="48.8537" lon="2.36839">
        <ele>47</ele>
        <time>2016-03-21T21:43:57.000Z</time>
      </trkpt>
      <trkpt lat="48.85379" lon="2.3681">
        <ele>47.400001525879</ele>
        <time>2016-03-21T21:44:05.000Z</time>
      </trkpt>
      <trkpt lat="48.85384" lon="2.36784">
        <ele>47</ele>
        <time>2016-03-21T21:44:10.000Z</time>
      </trkpt>
      <trkpt lat="48.85387" lon="2.36753">
        <ele>47.599998474121</ele>
        <time>2016-03-21T21:44:15.000Z</time>
      </trkpt>
      <trkpt lat="48.85384" lon="2.36745">
        <ele>47.400001525879</ele>
        <time>2016-03-21T21:44:17.000Z</time>
      </trkpt>
      <trkpt lat="48.85367" lon="2.36733">
        <ele>46.400001525879</ele>
        <time>2016-03-21T21:44:24.000Z</time>
      </trkpt>
      <trkpt lat="48.85361" lon="2.36725">
        <ele>45.799999237061</ele>
        <time>2016-03-21T21:44:27.000Z</time>
      </trkpt>
      <trkpt lat="48.85364" lon="2.36695">
        <ele>44</ele>
        <time>2016-03-21T21:44:33.000Z</time>
      </trkpt>
      <trkpt lat="48.85367" lon="2.36667">
        <ele>42.599998474121</ele>
        <time>2016-03-21T21:44:37.000Z</time>
      </trkpt>
      <trkpt lat="48.85373" lon="2.36638">
        <ele>43.200000762939</ele>
        <time>2016-03-21T21:44:41.000Z</time>
      </trkpt>
      <trkpt lat="48.8538" lon="2.36609">
        <ele>44.200000762939</ele>
        <time>2016-03-21T21:44:45.000Z</time>
      </trkpt>
      <trkpt lat="48.85388" lon="2.36579">
        <ele>43.200000762939</ele>
        <time>2016-03-21T21:44:49.000Z</time>
      </trkpt>
      <trkpt lat="48.85393" lon="2.36555">
        <ele>43.200000762939</ele>
        <time>2016-03-21T21:44:52.000Z</time>
      </trkpt>
      <trkpt lat="48.85402" lon="2.36526">
        <ele>43.400001525879</ele>
        <time>2016-03-21T21:44:56.000Z</time>
      </trkpt>
      <trkpt lat="48.85406" lon="2.36498">
        <ele>44</ele>
        <time>2016-03-21T21:45:00.000Z</time>
      </trkpt>
      <trkpt lat="48.85411" lon="2.36469">
        <ele>45</ele>
        <time>2016-03-21T21:45:04.000Z</time>
      </trkpt>
      <trkpt lat="48.85419" lon="2.36438">
        <ele>45.599998474121</ele>
        <time>2016-03-21T21:45:08.000Z</time>
      </trkpt>
      <trkpt lat="48.8542" lon="2.3643">
        <ele>45.799999237061</ele>
        <time>2016-03-21T21:45:09.000Z</time>
      </trkpt>
      <trkpt lat="48.85427" lon="2.36405">
        <ele>45.599998474121</ele>
        <time>2016-03-21T21:45:12.000Z</time>
      </trkpt>
      <trkpt lat="48.85434" lon="2.3638">
        <ele>45.400001525879</ele>
        <time>2016-03-21T21:45:15.000Z</time>
      </trkpt>
      <trkpt lat="48.85442" lon="2.36354">
        <ele>45.200000762939</ele>
        <time>2016-03-21T21:45:18.000Z</time>
      </trkpt>
      <trkpt lat="48.8545" lon="2.36328">
        <ele>44.599998474121</ele>
        <time>2016-03-21T21:45:21.000Z</time>
      </trkpt>
      <trkpt lat="48.85459" lon="2.36296">
        <ele>43.200000762939</ele>
        <time>2016-03-21T21:45:25.000Z</time>
      </trkpt>
      <trkpt lat="48.85465" lon="2.36282">
        <ele>42.599998474121</ele>
        <time>2016-03-21T21:45:27.000Z</time>
      </trkpt>
      <trkpt lat="48.85477" lon="2.36254">
        <ele>42.400001525879</ele>
        <time>2016-03-21T21:45:31.000Z</time>
      </trkpt>
      <trkpt lat="48.85488" lon="2.36225">
        <ele>42.400001525879</ele>
        <time>2016-03-21T21:45:35.000Z</time>
      </trkpt>
      <trkpt lat="48.85499" lon="2.36197">
        <ele>43</ele>
        <time>2016-03-21T21:45:39.000Z</time>
      </trkpt>
      <trkpt lat="48.85508" lon="2.36168">
        <ele>44.200000762939</ele>
        <time>2016-03-21T21:45:43.000Z</time>
      </trkpt>
      <trkpt lat="48.85517" lon="2.36134">
        <ele>44.400001525879</ele>
        <time>2016-03-21T21:45:47.000Z</time>
      </trkpt>
      <trkpt lat="48.85524" lon="2.36104">
        <ele>44.200000762939</ele>
        <time>2016-03-21T21:45:50.000Z</time>
      </trkpt>
      <trkpt lat="48.85532" lon="2.36077">
        <ele>44.200000762939</ele>
        <time>2016-03-21T21:45:53.000Z</time>
      </trkpt>
      <trkpt lat="48.85534" lon="2.36067">
        <ele>44.400001525879</ele>
        <time>2016-03-21T21:45:54.000Z</time>
      </trkpt>
      <trkpt lat="48.8554" lon="2.36039">
        <ele>44.799999237061</ele>
        <time>2016-03-21T21:45:57.000Z</time>
      </trkpt>
      <trkpt lat="48.85542" lon="2.36019">
        <ele>45</ele>
        <time>2016-03-21T21:45:59.000Z</time>
      </trkpt>
      <trkpt lat="48.85548" lon="2.35993">
        <ele>45.200000762939</ele>
        <time>2016-03-21T21:46:02.000Z</time>
      </trkpt>
      <trkpt lat="48.85555" lon="2.35965">
        <ele>45</ele>
        <time>2016-03-21T21:46:05.000Z</time>
      </trkpt>
      <trkpt lat="48.85563" lon="2.35936">
        <ele>45</ele>
        <time>2016-03-21T21:46:08.000Z</time>
      </trkpt>
      <trkpt lat="48.85572" lon="2.35908">
        <ele>45</ele>
        <time>2016-03-21T21:46:11.000Z</time>
      </trkpt>
      <trkpt lat="48.8558" lon="2.35879">
        <ele>44.400001525879</ele>
        <time>2016-03-21T21:46:14.000Z</time>
      </trkpt>
      <trkpt lat="48.85588" lon="2.35851">
        <ele>45</ele>
        <time>2016-03-21T21:46:17.000Z</time>
      </trkpt>
      <trkpt lat="48.85596" lon="2.35821">
        <ele>45.200000762939</ele>
        <time>2016-03-21T21:46:20.000Z</time>
      </trkpt>
      <trkpt lat="48.85604" lon="2.35792">
        <ele>45.400001525879</ele>
        <time>2016-03-21T21:46:23.000Z</time>
      </trkpt>
      <trkpt lat="48.85612" lon="2.35764">
        <ele>45.400001525879</ele>
        <time>2016-03-21T21:46:26.000Z</time>
      </trkpt>
      <trkpt lat="48.8562" lon="2.35737">
        <ele>45.400001525879</ele>
        <time>2016-03-21T21:46:29.000Z</time>
      </trkpt>
      <trkpt lat="48.85628" lon="2.3571">
        <ele>45.400001525879</ele>
        <time>2016-03-21T21:46:32.000Z</time>
      </trkpt>
      <trkpt lat="48.85635" lon="2.35683">
        <ele>45.200000762939</ele>
        <time>2016-03-21T21:46:35.000Z</time>
      </trkpt>
      <trkpt lat="48.85643" lon="2.3565">
        <ele>44.799999237061</ele>
        <time>2016-03-21T21:46:39.000Z</time>
      </trkpt>
      <trkpt lat="48.85651" lon="2.35622">
        <ele>44.599998474121</ele>
        <time>2016-03-21T21:46:42.000Z</time>
      </trkpt>
      <trkpt lat="48.8566" lon="2.35592">
        <ele>45</ele>
        <time>2016-03-21T21:46:45.000Z</time>
      </trkpt>
      <trkpt lat="48.85668" lon="2.35561">
        <ele>44.200000762939</ele>
        <time>2016-03-21T21:46:48.000Z</time>
      </trkpt>
      <trkpt lat="48.85677" lon="2.35529">
        <ele>45.400001525879</ele>
        <time>2016-03-21T21:46:51.000Z</time>
      </trkpt>
      <trkpt lat="48.85684" lon="2.35494">
        <ele>46.599998474121</ele>
        <time>2016-03-21T21:46:54.000Z</time>
      </trkpt>
      <trkpt lat="48.85692" lon="2.35461">
        <ele>46</ele>
        <time>2016-03-21T21:46:57.000Z</time>
      </trkpt>
      <trkpt lat="48.85697" lon="2.35431">
        <ele>45.400001525879</ele>
        <time>2016-03-21T21:47:00.000Z</time>
      </trkpt>
      <trkpt lat="48.85702" lon="2.35402">
        <ele>46.400001525879</ele>
        <time>2016-03-21T21:47:03.000Z</time>
      </trkpt>
      <trkpt lat="48.85703" lon="2.35372">
        <ele>47.599998474121</ele>
        <time>2016-03-21T21:47:06.000Z</time>
      </trkpt>
      <trkpt lat="48.85704" lon="2.35342">
        <ele>48.599998474121</ele>
        <time>2016-03-21T21:47:09.000Z</time>
      </trkpt>
      <trkpt lat="48.85711" lon="2.35314">
        <ele>48.799999237061</ele>
        <time>2016-03-21T21:47:12.000Z</time>
      </trkpt>
      <trkpt lat="48.85718" lon="2.3529">
        <ele>48.799999237061</ele>
        <time>2016-03-21T21:47:15.000Z</time>
      </trkpt>
      <trkpt lat="48.85728" lon="2.35261">
        <ele>47.400001525879</ele>
        <time>2016-03-21T21:47:19.000Z</time>
      </trkpt>
      <trkpt lat="48.85737" lon="2.35235">
        <ele>45.200000762939</ele>
        <time>2016-03-21T21:47:23.000Z</time>
      </trkpt>
      <trkpt lat="48.85737" lon="2.35226">
        <ele>44.400001525879</ele>
        <time>2016-03-21T21:47:24.000Z</time>
      </trkpt>
      <trkpt lat="48.85741" lon="2.35203">
        <ele>42.599998474121</ele>
        <time>2016-03-21T21:47:27.000Z</time>
      </trkpt>
      <trkpt lat="48.85748" lon="2.35173">
        <ele>41</ele>
        <time>2016-03-21T21:47:32.000Z</time>
      </trkpt>
      <trkpt lat="48.85755" lon="2.3514">
        <ele>40.400001525879</ele>
        <time>2016-03-21T21:47:37.000Z</time>
      </trkpt>
      <trkpt lat="48.85758" lon="2.35133">
        <ele>41.200000762939</ele>
        <time>2016-03-21T21:47:38.000Z</time>
      </trkpt>
      <trkpt lat="48.85769" lon="2.35106">
        <ele>43.400001525879</ele>
        <time>2016-03-21T21:47:41.000Z</time>
      </trkpt>
      <trkpt lat="48.85778" lon="2.35077">
        <ele>45.400001525879</ele>
        <time>2016-03-21T21:47:44.000Z</time>
      </trkpt>
      <trkpt lat="48.85788" lon="2.3505">
        <ele>46.799999237061</ele>
        <time>2016-03-21T21:47:47.000Z</time>
      </trkpt>
      <trkpt lat="48.85797" lon="2.35024">
        <ele>48.200000762939</ele>
        <time>2016-03-21T21:47:50.000Z</time>
      </trkpt>
      <trkpt lat="48.85806" lon="2.34997">
        <ele>47.599998474121</ele>
        <time>2016-03-21T21:47:53.000Z</time>
      </trkpt>
      <trkpt lat="48.85809" lon="2.34988">
        <ele>46.799999237061</ele>
        <time>2016-03-21T21:47:54.000Z</time>
      </trkpt>
      <trkpt lat="48.85818" lon="2.34963">
        <ele>44.599998474121</ele>
        <time>2016-03-21T21:47:57.000Z</time>
      </trkpt>
      <trkpt lat="48.85827" lon="2.34936">
        <ele>45.400001525879</ele>
        <time>2016-03-21T21:48:00.000Z</time>
      </trkpt>
      <trkpt lat="48.85835" lon="2.34909">
        <ele>46</ele>
        <time>2016-03-21T21:48:03.000Z</time>
      </trkpt>
      <trkpt lat="48.85843" lon="2.34883">
        <ele>46.400001525879</ele>
        <time>2016-03-21T21:48:06.000Z</time>
      </trkpt>
      <trkpt lat="48.85853" lon="2.34856">
        <ele>47.599998474121</ele>
        <time>2016-03-21T21:48:09.000Z</time>
      </trkpt>
      <trkpt lat="48.85864" lon="2.34829">
        <ele>48</ele>
        <time>2016-03-21T21:48:12.000Z</time>
      </trkpt>
      <trkpt lat="48.85873" lon="2.34801">
        <ele>47.599998474121</ele>
        <time>2016-03-21T21:48:15.000Z</time>
      </trkpt>
      <trkpt lat="48.85881" lon="2.34774">
        <ele>47.400001525879</ele>
        <time>2016-03-21T21:48:18.000Z</time>
      </trkpt>
      <trkpt lat="48.85889" lon="2.34745">
        <ele>45.799999237061</ele>
        <time>2016-03-21T21:48:22.000Z</time>
      </trkpt>
      <trkpt lat="48.85906" lon="2.34735">
        <ele>45.400001525879</ele>
        <time>2016-03-21T21:48:26.000Z</time>
      </trkpt>
      <trkpt lat="48.85924" lon="2.34722">
        <ele>45.200000762939</ele>
        <time>2016-03-21T21:48:30.000Z</time>
      </trkpt>
      <trkpt lat="48.85936" lon="2.34716">
        <ele>45.200000762939</ele>
        <time>2016-03-21T21:48:33.000Z</time>
      </trkpt>
      <trkpt lat="48.85954" lon="2.34721">
        <ele>45.200000762939</ele>
        <time>2016-03-21T21:48:38.000Z</time>
      </trkpt>
      <trkpt lat="48.85958" lon="2.34727">
        <ele>45</ele>
        <time>2016-03-21T21:48:40.000Z</time>
      </trkpt>
      <trkpt lat="48.85964" lon="2.34736">
        <ele>44.599998474121</ele>
        <time>2016-03-21T21:48:43.000Z</time>
      </trkpt>
      <trkpt lat="48.85967" lon="2.34739">
        <ele>44.599998474121</ele>
        <time>2016-03-21T21:48:48.000Z</time>
      </trkpt>
    </trkseg>
  </trk>
</gpx>